<?xml version="1.0" encoding="UTF-8" standalone="no" ?>
<gpx xmlns="http://www.topografix.com/GPX/1/1" xmlns:xsi="http://www.w3.org/2001/XMLSchema-instance" xsi:schemaLocation="http://www.topografix.com/GPX/1/1 http://www.topografix.com/GPX/1/1/gpx.xsd" version="1.1" creator="VisuGPX - https://www.visugpx.com">
  <metadata>
    <name>Vacances Avril 2019 Grenoble Camargue</name>
    <desc><![CDATA[Deuxième partie du voyage après le but dans le Nord, direction le Sud. 
Pas de pluie mais Mistral d'enfer]]></desc>
  </metadata>
  <trk>
    <name><![CDATA[20190502221855-rGymn]]></name>
    <trkseg>
      <trkpt lat="44.53211" lon="5.81591">
        <ele>871.228</ele>
        <time>2019-04-26T10:24:59Z</time>
      </trkpt>
      <trkpt lat="44.53206" lon="5.81587">
        <ele>870.6</ele>
        <time>2019-04-26T10:25:09Z</time>
      </trkpt>
      <trkpt lat="44.53207" lon="5.81593">
        <ele>869.358</ele>
        <time>2019-04-26T10:25:20Z</time>
      </trkpt>
      <trkpt lat="44.53201" lon="5.81593">
        <ele>860.738</ele>
        <time>2019-04-26T10:25:31Z</time>
      </trkpt>
      <trkpt lat="44.53201" lon="5.81591">
        <ele>860.893</ele>
        <time>2019-04-26T10:25:42Z</time>
      </trkpt>
      <trkpt lat="44.53202" lon="5.81591">
        <ele>861.047</ele>
        <time>2019-04-26T10:25:52Z</time>
      </trkpt>
      <trkpt lat="44.53203" lon="5.81589">
        <ele>861.126</ele>
        <time>2019-04-26T10:26:03Z</time>
      </trkpt>
      <trkpt lat="44.53204" lon="5.81589">
        <ele>861.293</ele>
        <time>2019-04-26T10:26:14Z</time>
      </trkpt>
      <trkpt lat="44.53208" lon="5.81581">
        <ele>862.332</ele>
        <time>2019-04-26T10:26:24Z</time>
      </trkpt>
      <trkpt lat="44.53215" lon="5.81603">
        <ele>863.751</ele>
        <time>2019-04-26T10:26:34Z</time>
      </trkpt>
      <trkpt lat="44.53233" lon="5.81651">
        <ele>864.434</ele>
        <time>2019-04-26T10:26:45Z</time>
      </trkpt>
      <trkpt lat="44.53247" lon="5.81704">
        <ele>865.683</ele>
        <time>2019-04-26T10:26:55Z</time>
      </trkpt>
      <trkpt lat="44.53259" lon="5.81761">
        <ele>866.631</ele>
        <time>2019-04-26T10:27:06Z</time>
      </trkpt>
      <trkpt lat="44.53268" lon="5.81811">
        <ele>867.59</ele>
        <time>2019-04-26T10:27:16Z</time>
      </trkpt>
      <trkpt lat="44.53275" lon="5.81864">
        <ele>868.324</ele>
        <time>2019-04-26T10:27:27Z</time>
      </trkpt>
      <trkpt lat="44.5328" lon="5.81911">
        <ele>869.286</ele>
        <time>2019-04-26T10:27:38Z</time>
      </trkpt>
      <trkpt lat="44.53284" lon="5.81957">
        <ele>869.814</ele>
        <time>2019-04-26T10:27:49Z</time>
      </trkpt>
      <trkpt lat="44.53285" lon="5.81969">
        <ele>870.406</ele>
        <time>2019-04-26T10:27:59Z</time>
      </trkpt>
      <trkpt lat="44.53304" lon="5.82011">
        <ele>871.571</ele>
        <time>2019-04-26T10:28:10Z</time>
      </trkpt>
      <trkpt lat="44.53326" lon="5.82048">
        <ele>874.711</ele>
        <time>2019-04-26T10:28:20Z</time>
      </trkpt>
      <trkpt lat="44.53327" lon="5.82079">
        <ele>876.209</ele>
        <time>2019-04-26T10:28:30Z</time>
      </trkpt>
      <trkpt lat="44.53346" lon="5.82098">
        <ele>877.467</ele>
        <time>2019-04-26T10:28:41Z</time>
      </trkpt>
      <trkpt lat="44.53366" lon="5.82134">
        <ele>877.9</ele>
        <time>2019-04-26T10:28:51Z</time>
      </trkpt>
      <trkpt lat="44.53387" lon="5.82174">
        <ele>878.44</ele>
        <time>2019-04-26T10:29:02Z</time>
      </trkpt>
      <trkpt lat="44.53402" lon="5.82206">
        <ele>878.425</ele>
        <time>2019-04-26T10:29:12Z</time>
      </trkpt>
      <trkpt lat="44.5341" lon="5.82228">
        <ele>878.362</ele>
        <time>2019-04-26T10:29:22Z</time>
      </trkpt>
      <trkpt lat="44.53402" lon="5.82266">
        <ele>879.285</ele>
        <time>2019-04-26T10:29:32Z</time>
      </trkpt>
      <trkpt lat="44.534" lon="5.82306">
        <ele>877.179</ele>
        <time>2019-04-26T10:29:43Z</time>
      </trkpt>
      <trkpt lat="44.53367" lon="5.82324">
        <ele>875.728</ele>
        <time>2019-04-26T10:29:54Z</time>
      </trkpt>
      <trkpt lat="44.53365" lon="5.82325">
        <ele>875.752</ele>
        <time>2019-04-26T10:30:04Z</time>
      </trkpt>
      <trkpt lat="44.53364" lon="5.82325">
        <ele>875.852</ele>
        <time>2019-04-26T10:30:15Z</time>
      </trkpt>
      <trkpt lat="44.53344" lon="5.82331">
        <ele>878.818</ele>
        <time>2019-04-26T10:30:26Z</time>
      </trkpt>
      <trkpt lat="44.53359" lon="5.82389">
        <ele>883.089</ele>
        <time>2019-04-26T10:30:37Z</time>
      </trkpt>
      <trkpt lat="44.53377" lon="5.82445">
        <ele>881.355</ele>
        <time>2019-04-26T10:30:47Z</time>
      </trkpt>
      <trkpt lat="44.53397" lon="5.82499">
        <ele>878.028</ele>
        <time>2019-04-26T10:30:58Z</time>
      </trkpt>
      <trkpt lat="44.53421" lon="5.82564">
        <ele>876.354</ele>
        <time>2019-04-26T10:31:09Z</time>
      </trkpt>
      <trkpt lat="44.53441" lon="5.8262">
        <ele>875.695</ele>
        <time>2019-04-26T10:31:20Z</time>
      </trkpt>
      <trkpt lat="44.5346" lon="5.82671">
        <ele>876.908</ele>
        <time>2019-04-26T10:31:31Z</time>
      </trkpt>
      <trkpt lat="44.53483" lon="5.82736">
        <ele>874.846</ele>
        <time>2019-04-26T10:31:42Z</time>
      </trkpt>
      <trkpt lat="44.53515" lon="5.82804">
        <ele>874.788</ele>
        <time>2019-04-26T10:31:53Z</time>
      </trkpt>
      <trkpt lat="44.53543" lon="5.82864">
        <ele>875.798</ele>
        <time>2019-04-26T10:32:03Z</time>
      </trkpt>
      <trkpt lat="44.53577" lon="5.82922">
        <ele>875.878</ele>
        <time>2019-04-26T10:32:13Z</time>
      </trkpt>
      <trkpt lat="44.5362" lon="5.82985">
        <ele>880.023</ele>
        <time>2019-04-26T10:32:24Z</time>
      </trkpt>
      <trkpt lat="44.53642" lon="5.83078">
        <ele>878.891</ele>
        <time>2019-04-26T10:32:34Z</time>
      </trkpt>
      <trkpt lat="44.53666" lon="5.83166">
        <ele>876.837</ele>
        <time>2019-04-26T10:32:44Z</time>
      </trkpt>
      <trkpt lat="44.53646" lon="5.83189">
        <ele>873.555</ele>
        <time>2019-04-26T10:32:55Z</time>
      </trkpt>
      <trkpt lat="44.53646" lon="5.83206">
        <ele>873.364</ele>
        <time>2019-04-26T10:33:06Z</time>
      </trkpt>
      <trkpt lat="44.53646" lon="5.83206">
        <ele>873.288</ele>
        <time>2019-04-26T10:33:17Z</time>
      </trkpt>
      <trkpt lat="44.53651" lon="5.83199">
        <ele>873.272</ele>
        <time>2019-04-26T10:33:28Z</time>
      </trkpt>
      <trkpt lat="44.53651" lon="5.83199">
        <ele>873.217</ele>
        <time>2019-04-26T10:33:38Z</time>
      </trkpt>
      <trkpt lat="44.53651" lon="5.83199">
        <ele>873.083</ele>
        <time>2019-04-26T10:33:49Z</time>
      </trkpt>
      <trkpt lat="44.53651" lon="5.83199">
        <ele>872.862</ele>
        <time>2019-04-26T10:34:00Z</time>
      </trkpt>
      <trkpt lat="44.53651" lon="5.83199">
        <ele>872.786</ele>
        <time>2019-04-26T10:34:11Z</time>
      </trkpt>
      <trkpt lat="44.53651" lon="5.83199">
        <ele>872.824</ele>
        <time>2019-04-26T10:34:22Z</time>
      </trkpt>
      <trkpt lat="44.53658" lon="5.83201">
        <ele>871.612</ele>
        <time>2019-04-26T10:34:33Z</time>
      </trkpt>
      <trkpt lat="44.53634" lon="5.83228">
        <ele>843.118</ele>
        <time>2019-04-26T10:35:25Z</time>
      </trkpt>
      <trkpt lat="44.53632" lon="5.83231">
        <ele>844.469</ele>
        <time>2019-04-26T10:35:35Z</time>
      </trkpt>
      <trkpt lat="44.53644" lon="5.83211">
        <ele>851.93</ele>
        <time>2019-04-26T10:47:06Z</time>
      </trkpt>
      <trkpt lat="44.53643" lon="5.83212">
        <ele>855.354</ele>
        <time>2019-04-26T10:47:16Z</time>
      </trkpt>
      <trkpt lat="44.5365" lon="5.83212">
        <ele>856.759</ele>
        <time>2019-04-26T10:47:27Z</time>
      </trkpt>
      <trkpt lat="44.53652" lon="5.83209">
        <ele>856.792</ele>
        <time>2019-04-26T10:47:38Z</time>
      </trkpt>
      <trkpt lat="44.5365" lon="5.83204">
        <ele>856.761</ele>
        <time>2019-04-26T10:47:49Z</time>
      </trkpt>
      <trkpt lat="44.5365" lon="5.83204">
        <ele>856.879</ele>
        <time>2019-04-26T10:48:00Z</time>
      </trkpt>
      <trkpt lat="44.5365" lon="5.83203">
        <ele>857.055</ele>
        <time>2019-04-26T10:48:10Z</time>
      </trkpt>
      <trkpt lat="44.5365" lon="5.832">
        <ele>857.385</ele>
        <time>2019-04-26T10:48:20Z</time>
      </trkpt>
      <trkpt lat="44.53651" lon="5.83199">
        <ele>857.532</ele>
        <time>2019-04-26T10:48:31Z</time>
      </trkpt>
      <trkpt lat="44.53651" lon="5.83198">
        <ele>857.648</ele>
        <time>2019-04-26T10:48:42Z</time>
      </trkpt>
      <trkpt lat="44.53651" lon="5.83199">
        <ele>857.682</ele>
        <time>2019-04-26T10:48:52Z</time>
      </trkpt>
      <trkpt lat="44.53652" lon="5.83199">
        <ele>857.665</ele>
        <time>2019-04-26T10:49:03Z</time>
      </trkpt>
      <trkpt lat="44.53648" lon="5.83195">
        <ele>858.285</ele>
        <time>2019-04-26T10:49:14Z</time>
      </trkpt>
      <trkpt lat="44.53642" lon="5.83205">
        <ele>859.734</ele>
        <time>2019-04-26T10:49:25Z</time>
      </trkpt>
      <trkpt lat="44.53639" lon="5.83224">
        <ele>861.526</ele>
        <time>2019-04-26T10:49:36Z</time>
      </trkpt>
      <trkpt lat="44.53637" lon="5.83227">
        <ele>865.325</ele>
        <time>2019-04-26T10:49:48Z</time>
      </trkpt>
      <trkpt lat="44.53637" lon="5.83224">
        <ele>866.466</ele>
        <time>2019-04-26T10:50:00Z</time>
      </trkpt>
      <trkpt lat="44.53639" lon="5.83225">
        <ele>864.493</ele>
        <time>2019-04-26T10:50:11Z</time>
      </trkpt>
      <trkpt lat="44.53645" lon="5.83223">
        <ele>862.072</ele>
        <time>2019-04-26T10:50:23Z</time>
      </trkpt>
      <trkpt lat="44.53654" lon="5.83231">
        <ele>867.526</ele>
        <time>2019-04-26T10:50:33Z</time>
      </trkpt>
      <trkpt lat="44.53649" lon="5.83244">
        <ele>864.288</ele>
        <time>2019-04-26T10:50:43Z</time>
      </trkpt>
      <trkpt lat="44.53642" lon="5.83234">
        <ele>860.248</ele>
        <time>2019-04-26T10:50:56Z</time>
      </trkpt>
      <trkpt lat="44.53647" lon="5.8324">
        <ele>856.418</ele>
        <time>2019-04-26T10:51:07Z</time>
      </trkpt>
      <trkpt lat="44.5366" lon="5.83258">
        <ele>857.787</ele>
        <time>2019-04-26T10:51:18Z</time>
      </trkpt>
      <trkpt lat="44.53662" lon="5.83271">
        <ele>858.224</ele>
        <time>2019-04-26T10:51:29Z</time>
      </trkpt>
      <trkpt lat="44.53668" lon="5.83266">
        <ele>856.56</ele>
        <time>2019-04-26T10:51:40Z</time>
      </trkpt>
      <trkpt lat="44.5368" lon="5.8327">
        <ele>844.921</ele>
        <time>2019-04-26T10:51:51Z</time>
      </trkpt>
      <trkpt lat="44.53719" lon="5.83257">
        <ele>831.215</ele>
        <time>2019-04-26T10:52:02Z</time>
      </trkpt>
      <trkpt lat="44.53722" lon="5.8326">
        <ele>833.857</ele>
        <time>2019-04-26T10:52:13Z</time>
      </trkpt>
      <trkpt lat="44.53708" lon="5.83261">
        <ele>831.082</ele>
        <time>2019-04-26T10:52:24Z</time>
      </trkpt>
      <trkpt lat="44.5369" lon="5.83258">
        <ele>842.345</ele>
        <time>2019-04-26T10:52:35Z</time>
      </trkpt>
      <trkpt lat="44.53683" lon="5.83259">
        <ele>841.892</ele>
        <time>2019-04-26T10:52:45Z</time>
      </trkpt>
      <trkpt lat="44.53676" lon="5.83265">
        <ele>841.8</ele>
        <time>2019-04-26T10:52:55Z</time>
      </trkpt>
      <trkpt lat="44.53676" lon="5.83261">
        <ele>848.779</ele>
        <time>2019-04-26T10:53:06Z</time>
      </trkpt>
      <trkpt lat="44.53675" lon="5.83261">
        <ele>849.901</ele>
        <time>2019-04-26T10:53:17Z</time>
      </trkpt>
      <trkpt lat="44.53678" lon="5.83267">
        <ele>850.027</ele>
        <time>2019-04-26T10:53:27Z</time>
      </trkpt>
      <trkpt lat="44.53683" lon="5.83267">
        <ele>847.185</ele>
        <time>2019-04-26T10:53:38Z</time>
      </trkpt>
      <trkpt lat="44.53684" lon="5.8327">
        <ele>841.693</ele>
        <time>2019-04-26T10:53:48Z</time>
      </trkpt>
      <trkpt lat="44.53685" lon="5.83276">
        <ele>838.913</ele>
        <time>2019-04-26T10:53:58Z</time>
      </trkpt>
      <trkpt lat="44.53659" lon="5.8326">
        <ele>837.17</ele>
        <time>2019-04-26T10:54:09Z</time>
      </trkpt>
      <trkpt lat="44.5364" lon="5.83236">
        <ele>835.834</ele>
        <time>2019-04-26T10:54:20Z</time>
      </trkpt>
      <trkpt lat="44.53629" lon="5.83229">
        <ele>833.206</ele>
        <time>2019-04-26T10:54:31Z</time>
      </trkpt>
      <trkpt lat="44.53628" lon="5.83229">
        <ele>832.301</ele>
        <time>2019-04-26T10:54:41Z</time>
      </trkpt>
      <trkpt lat="44.53633" lon="5.8322">
        <ele>835.13</ele>
        <time>2019-04-26T10:54:52Z</time>
      </trkpt>
      <trkpt lat="44.53624" lon="5.83224">
        <ele>841.535</ele>
        <time>2019-04-26T10:55:02Z</time>
      </trkpt>
      <trkpt lat="44.53625" lon="5.83224">
        <ele>841.686</ele>
        <time>2019-04-26T10:55:13Z</time>
      </trkpt>
      <trkpt lat="44.53625" lon="5.83224">
        <ele>842.056</ele>
        <time>2019-04-26T10:55:24Z</time>
      </trkpt>
      <trkpt lat="44.53628" lon="5.83222">
        <ele>842.976</ele>
        <time>2019-04-26T10:55:35Z</time>
      </trkpt>
      <trkpt lat="44.53629" lon="5.83221">
        <ele>843.508</ele>
        <time>2019-04-26T10:55:46Z</time>
      </trkpt>
      <trkpt lat="44.53644" lon="5.83201">
        <ele>851.123</ele>
        <time>2019-04-26T10:55:57Z</time>
      </trkpt>
      <trkpt lat="44.53648" lon="5.83194">
        <ele>856.525</ele>
        <time>2019-04-26T10:56:08Z</time>
      </trkpt>
      <trkpt lat="44.53655" lon="5.83186">
        <ele>867.357</ele>
        <time>2019-04-26T10:56:19Z</time>
      </trkpt>
      <trkpt lat="44.53657" lon="5.83188">
        <ele>875.647</ele>
        <time>2019-04-26T10:56:29Z</time>
      </trkpt>
      <trkpt lat="44.53633" lon="5.83201">
        <ele>876.878</ele>
        <time>2019-04-26T10:56:40Z</time>
      </trkpt>
      <trkpt lat="44.53641" lon="5.83186">
        <ele>876.925</ele>
        <time>2019-04-26T10:56:51Z</time>
      </trkpt>
      <trkpt lat="44.53666" lon="5.83161">
        <ele>876.554</ele>
        <time>2019-04-26T10:57:02Z</time>
      </trkpt>
      <trkpt lat="44.53655" lon="5.83117">
        <ele>876.23</ele>
        <time>2019-04-26T10:57:13Z</time>
      </trkpt>
      <trkpt lat="44.53646" lon="5.83076">
        <ele>876.216</ele>
        <time>2019-04-26T10:57:23Z</time>
      </trkpt>
      <trkpt lat="44.53645" lon="5.83073">
        <ele>876.21</ele>
        <time>2019-04-26T10:57:34Z</time>
      </trkpt>
      <trkpt lat="44.53645" lon="5.83068">
        <ele>876.194</ele>
        <time>2019-04-26T10:57:45Z</time>
      </trkpt>
      <trkpt lat="44.53634" lon="5.8303">
        <ele>875.705</ele>
        <time>2019-04-26T10:57:55Z</time>
      </trkpt>
      <trkpt lat="44.53621" lon="5.82985">
        <ele>875.249</ele>
        <time>2019-04-26T10:58:06Z</time>
      </trkpt>
      <trkpt lat="44.53596" lon="5.8294">
        <ele>875.298</ele>
        <time>2019-04-26T10:58:17Z</time>
      </trkpt>
      <trkpt lat="44.53566" lon="5.82896">
        <ele>874.915</ele>
        <time>2019-04-26T10:58:28Z</time>
      </trkpt>
      <trkpt lat="44.5354" lon="5.82848">
        <ele>874.068</ele>
        <time>2019-04-26T10:58:38Z</time>
      </trkpt>
      <trkpt lat="44.53538" lon="5.82827">
        <ele>874.338</ele>
        <time>2019-04-26T10:58:49Z</time>
      </trkpt>
      <trkpt lat="44.53537" lon="5.82827">
        <ele>874.476</ele>
        <time>2019-04-26T10:58:59Z</time>
      </trkpt>
      <trkpt lat="44.53537" lon="5.82827">
        <ele>874.558</ele>
        <time>2019-04-26T10:59:10Z</time>
      </trkpt>
      <trkpt lat="44.53537" lon="5.82828">
        <ele>874.641</ele>
        <time>2019-04-26T10:59:21Z</time>
      </trkpt>
      <trkpt lat="44.53537" lon="5.82831">
        <ele>874.724</ele>
        <time>2019-04-26T10:59:31Z</time>
      </trkpt>
      <trkpt lat="44.53528" lon="5.82809">
        <ele>874.649</ele>
        <time>2019-04-26T10:59:41Z</time>
      </trkpt>
      <trkpt lat="44.53498" lon="5.82758">
        <ele>873.306</ele>
        <time>2019-04-26T10:59:52Z</time>
      </trkpt>
      <trkpt lat="44.53471" lon="5.82697">
        <ele>873.837</ele>
        <time>2019-04-26T11:00:03Z</time>
      </trkpt>
      <trkpt lat="44.5345" lon="5.82642">
        <ele>876.088</ele>
        <time>2019-04-26T11:00:13Z</time>
      </trkpt>
      <trkpt lat="44.53427" lon="5.82564">
        <ele>876</ele>
        <time>2019-04-26T11:00:24Z</time>
      </trkpt>
      <trkpt lat="44.53412" lon="5.82511">
        <ele>900.227</ele>
        <time>2019-04-26T11:00:34Z</time>
      </trkpt>
      <trkpt lat="44.53389" lon="5.82467">
        <ele>888.646</ele>
        <time>2019-04-26T11:00:44Z</time>
      </trkpt>
      <trkpt lat="44.53367" lon="5.82406">
        <ele>878.196</ele>
        <time>2019-04-26T11:00:55Z</time>
      </trkpt>
      <trkpt lat="44.53349" lon="5.82348">
        <ele>870.445</ele>
        <time>2019-04-26T11:01:05Z</time>
      </trkpt>
      <trkpt lat="44.53304" lon="5.82342">
        <ele>867.508</ele>
        <time>2019-04-26T11:01:15Z</time>
      </trkpt>
      <trkpt lat="44.53222" lon="5.82379">
        <ele>866.667</ele>
        <time>2019-04-26T11:01:26Z</time>
      </trkpt>
      <trkpt lat="44.53103" lon="5.82404">
        <ele>857.05</ele>
        <time>2019-04-26T11:01:39Z</time>
      </trkpt>
      <trkpt lat="44.53061" lon="5.8241">
        <ele>847.916</ele>
        <time>2019-04-26T11:01:49Z</time>
      </trkpt>
      <trkpt lat="44.52998" lon="5.8242">
        <ele>857.86</ele>
        <time>2019-04-26T11:02:00Z</time>
      </trkpt>
      <trkpt lat="44.52945" lon="5.82439">
        <ele>859.934</ele>
        <time>2019-04-26T11:02:10Z</time>
      </trkpt>
      <trkpt lat="44.52891" lon="5.82458">
        <ele>849.546</ele>
        <time>2019-04-26T11:02:21Z</time>
      </trkpt>
      <trkpt lat="44.52848" lon="5.82474">
        <ele>854.472</ele>
        <time>2019-04-26T11:02:31Z</time>
      </trkpt>
      <trkpt lat="44.52807" lon="5.82468">
        <ele>859.753</ele>
        <time>2019-04-26T11:02:42Z</time>
      </trkpt>
      <trkpt lat="44.52781" lon="5.82423">
        <ele>857.031</ele>
        <time>2019-04-26T11:02:52Z</time>
      </trkpt>
      <trkpt lat="44.52751" lon="5.82358">
        <ele>860.596</ele>
        <time>2019-04-26T11:03:02Z</time>
      </trkpt>
      <trkpt lat="44.52711" lon="5.82297">
        <ele>857.719</ele>
        <time>2019-04-26T11:03:13Z</time>
      </trkpt>
      <trkpt lat="44.52675" lon="5.82237">
        <ele>857.013</ele>
        <time>2019-04-26T11:03:23Z</time>
      </trkpt>
      <trkpt lat="44.52636" lon="5.82179">
        <ele>859.863</ele>
        <time>2019-04-26T11:03:34Z</time>
      </trkpt>
      <trkpt lat="44.52597" lon="5.82114">
        <ele>859.08</ele>
        <time>2019-04-26T11:03:45Z</time>
      </trkpt>
      <trkpt lat="44.52564" lon="5.82062">
        <ele>857.416</ele>
        <time>2019-04-26T11:03:55Z</time>
      </trkpt>
      <trkpt lat="44.5253" lon="5.82001">
        <ele>858.383</ele>
        <time>2019-04-26T11:04:06Z</time>
      </trkpt>
      <trkpt lat="44.525" lon="5.81924">
        <ele>858.698</ele>
        <time>2019-04-26T11:04:17Z</time>
      </trkpt>
      <trkpt lat="44.5248" lon="5.81868">
        <ele>857.268</ele>
        <time>2019-04-26T11:04:27Z</time>
      </trkpt>
      <trkpt lat="44.52458" lon="5.81805">
        <ele>856.616</ele>
        <time>2019-04-26T11:04:38Z</time>
      </trkpt>
      <trkpt lat="44.52437" lon="5.81739">
        <ele>856.083</ele>
        <time>2019-04-26T11:04:48Z</time>
      </trkpt>
      <trkpt lat="44.52407" lon="5.81665">
        <ele>855.311</ele>
        <time>2019-04-26T11:04:59Z</time>
      </trkpt>
      <trkpt lat="44.52382" lon="5.81589">
        <ele>854.085</ele>
        <time>2019-04-26T11:05:10Z</time>
      </trkpt>
      <trkpt lat="44.52361" lon="5.81532">
        <ele>853.058</ele>
        <time>2019-04-26T11:05:20Z</time>
      </trkpt>
      <trkpt lat="44.52337" lon="5.81458">
        <ele>851.471</ele>
        <time>2019-04-26T11:05:31Z</time>
      </trkpt>
      <trkpt lat="44.52312" lon="5.81384">
        <ele>848.579</ele>
        <time>2019-04-26T11:05:42Z</time>
      </trkpt>
      <trkpt lat="44.52287" lon="5.8131">
        <ele>847.561</ele>
        <time>2019-04-26T11:05:53Z</time>
      </trkpt>
      <trkpt lat="44.52257" lon="5.81232">
        <ele>847.56</ele>
        <time>2019-04-26T11:06:04Z</time>
      </trkpt>
      <trkpt lat="44.52232" lon="5.81161">
        <ele>843.173</ele>
        <time>2019-04-26T11:06:14Z</time>
      </trkpt>
      <trkpt lat="44.52206" lon="5.81084">
        <ele>844.084</ele>
        <time>2019-04-26T11:06:25Z</time>
      </trkpt>
      <trkpt lat="44.52186" lon="5.81012">
        <ele>845.267</ele>
        <time>2019-04-26T11:06:36Z</time>
      </trkpt>
      <trkpt lat="44.52171" lon="5.80989">
        <ele>845.747</ele>
        <time>2019-04-26T11:06:47Z</time>
      </trkpt>
      <trkpt lat="44.52171" lon="5.80989">
        <ele>845.952</ele>
        <time>2019-04-26T11:06:58Z</time>
      </trkpt>
      <trkpt lat="44.52157" lon="5.80974">
        <ele>848.118</ele>
        <time>2019-04-26T11:07:09Z</time>
      </trkpt>
      <trkpt lat="44.52153" lon="5.80964">
        <ele>848.18</ele>
        <time>2019-04-26T11:07:20Z</time>
      </trkpt>
      <trkpt lat="44.52154" lon="5.80968">
        <ele>848.527</ele>
        <time>2019-04-26T11:07:31Z</time>
      </trkpt>
      <trkpt lat="44.52154" lon="5.80969">
        <ele>849.946</ele>
        <time>2019-04-26T11:07:42Z</time>
      </trkpt>
      <trkpt lat="44.52154" lon="5.80969">
        <ele>850.032</ele>
        <time>2019-04-26T11:07:53Z</time>
      </trkpt>
      <trkpt lat="44.52154" lon="5.80969">
        <ele>850.047</ele>
        <time>2019-04-26T11:08:03Z</time>
      </trkpt>
      <trkpt lat="44.52162" lon="5.80957">
        <ele>857.186</ele>
        <time>2019-04-26T11:08:14Z</time>
      </trkpt>
      <trkpt lat="44.52162" lon="5.80957">
        <ele>857.326</ele>
        <time>2019-04-26T11:08:25Z</time>
      </trkpt>
      <trkpt lat="44.52157" lon="5.8096">
        <ele>857.315</ele>
        <time>2019-04-26T11:08:36Z</time>
      </trkpt>
      <trkpt lat="44.52157" lon="5.8096">
        <ele>857.234</ele>
        <time>2019-04-26T11:08:46Z</time>
      </trkpt>
      <trkpt lat="44.52155" lon="5.80966">
        <ele>857.091</ele>
        <time>2019-04-26T11:08:57Z</time>
      </trkpt>
      <trkpt lat="44.52155" lon="5.80966">
        <ele>856.94</ele>
        <time>2019-04-26T11:09:07Z</time>
      </trkpt>
      <trkpt lat="44.52155" lon="5.80966">
        <ele>856.765</ele>
        <time>2019-04-26T11:09:18Z</time>
      </trkpt>
      <trkpt lat="44.52155" lon="5.80966">
        <ele>856.606</ele>
        <time>2019-04-26T11:09:29Z</time>
      </trkpt>
      <trkpt lat="44.52155" lon="5.80966">
        <ele>856.353</ele>
        <time>2019-04-26T11:09:40Z</time>
      </trkpt>
      <trkpt lat="44.52155" lon="5.80966">
        <ele>856.259</ele>
        <time>2019-04-26T11:09:50Z</time>
      </trkpt>
      <trkpt lat="44.52155" lon="5.80966">
        <ele>856.171</ele>
        <time>2019-04-26T11:10:00Z</time>
      </trkpt>
      <trkpt lat="44.52155" lon="5.80966">
        <ele>856.08</ele>
        <time>2019-04-26T11:10:11Z</time>
      </trkpt>
      <trkpt lat="44.52155" lon="5.80966">
        <ele>855.992</ele>
        <time>2019-04-26T11:10:22Z</time>
      </trkpt>
      <trkpt lat="44.52155" lon="5.80966">
        <ele>855.907</ele>
        <time>2019-04-26T11:10:32Z</time>
      </trkpt>
      <trkpt lat="44.52155" lon="5.80966">
        <ele>855.817</ele>
        <time>2019-04-26T11:10:43Z</time>
      </trkpt>
      <trkpt lat="44.52155" lon="5.80966">
        <ele>855.721</ele>
        <time>2019-04-26T11:10:54Z</time>
      </trkpt>
      <trkpt lat="44.52155" lon="5.80966">
        <ele>855.629</ele>
        <time>2019-04-26T11:11:04Z</time>
      </trkpt>
      <trkpt lat="44.52154" lon="5.80967">
        <ele>855.524</ele>
        <time>2019-04-26T11:11:15Z</time>
      </trkpt>
      <trkpt lat="44.52154" lon="5.80967">
        <ele>855.236</ele>
        <time>2019-04-26T11:11:26Z</time>
      </trkpt>
      <trkpt lat="44.52153" lon="5.80966">
        <ele>855.145</ele>
        <time>2019-04-26T11:11:37Z</time>
      </trkpt>
      <trkpt lat="44.52153" lon="5.80966">
        <ele>855.128</ele>
        <time>2019-04-26T11:11:48Z</time>
      </trkpt>
      <trkpt lat="44.52152" lon="5.80966">
        <ele>855.109</ele>
        <time>2019-04-26T11:11:58Z</time>
      </trkpt>
      <trkpt lat="44.52161" lon="5.80973">
        <ele>855.905</ele>
        <time>2019-04-26T11:12:09Z</time>
      </trkpt>
      <trkpt lat="44.52151" lon="5.80972">
        <ele>854.202</ele>
        <time>2019-04-26T11:12:20Z</time>
      </trkpt>
      <trkpt lat="44.52147" lon="5.8097">
        <ele>852.949</ele>
        <time>2019-04-26T11:12:30Z</time>
      </trkpt>
      <trkpt lat="44.52143" lon="5.80967">
        <ele>852.712</ele>
        <time>2019-04-26T11:12:41Z</time>
      </trkpt>
      <trkpt lat="44.52144" lon="5.80969">
        <ele>852.602</ele>
        <time>2019-04-26T11:12:52Z</time>
      </trkpt>
      <trkpt lat="44.52145" lon="5.8097">
        <ele>852.451</ele>
        <time>2019-04-26T11:13:03Z</time>
      </trkpt>
      <trkpt lat="44.52145" lon="5.8097">
        <ele>852.268</ele>
        <time>2019-04-26T11:13:13Z</time>
      </trkpt>
      <trkpt lat="44.52146" lon="5.80971">
        <ele>852.175</ele>
        <time>2019-04-26T11:13:23Z</time>
      </trkpt>
      <trkpt lat="44.52147" lon="5.80972">
        <ele>852.069</ele>
        <time>2019-04-26T11:13:34Z</time>
      </trkpt>
      <trkpt lat="44.52148" lon="5.80972">
        <ele>851.934</ele>
        <time>2019-04-26T11:13:45Z</time>
      </trkpt>
      <trkpt lat="44.52149" lon="5.80972">
        <ele>851.835</ele>
        <time>2019-04-26T11:13:56Z</time>
      </trkpt>
      <trkpt lat="44.52149" lon="5.80971">
        <ele>851.765</ele>
        <time>2019-04-26T11:14:07Z</time>
      </trkpt>
      <trkpt lat="44.5215" lon="5.80971">
        <ele>851.717</ele>
        <time>2019-04-26T11:14:17Z</time>
      </trkpt>
      <trkpt lat="44.5215" lon="5.80971">
        <ele>851.662</ele>
        <time>2019-04-26T11:14:28Z</time>
      </trkpt>
      <trkpt lat="44.5215" lon="5.80972">
        <ele>851.613</ele>
        <time>2019-04-26T11:14:39Z</time>
      </trkpt>
      <trkpt lat="44.5215" lon="5.80972">
        <ele>851.564</ele>
        <time>2019-04-26T11:14:49Z</time>
      </trkpt>
      <trkpt lat="44.5215" lon="5.80972">
        <ele>851.495</ele>
        <time>2019-04-26T11:15:00Z</time>
      </trkpt>
      <trkpt lat="44.5215" lon="5.80972">
        <ele>851.426</ele>
        <time>2019-04-26T11:15:10Z</time>
      </trkpt>
      <trkpt lat="44.5215" lon="5.80972">
        <ele>851.351</ele>
        <time>2019-04-26T11:15:20Z</time>
      </trkpt>
      <trkpt lat="44.5215" lon="5.80972">
        <ele>851.284</ele>
        <time>2019-04-26T11:15:30Z</time>
      </trkpt>
      <trkpt lat="44.5215" lon="5.80971">
        <ele>851.237</ele>
        <time>2019-04-26T11:15:41Z</time>
      </trkpt>
      <trkpt lat="44.5215" lon="5.80972">
        <ele>851.245</ele>
        <time>2019-04-26T11:15:51Z</time>
      </trkpt>
      <trkpt lat="44.5215" lon="5.80972">
        <ele>851.268</ele>
        <time>2019-04-26T11:16:01Z</time>
      </trkpt>
      <trkpt lat="44.5215" lon="5.80971">
        <ele>851.228</ele>
        <time>2019-04-26T11:16:12Z</time>
      </trkpt>
      <trkpt lat="44.52151" lon="5.80971">
        <ele>851.188</ele>
        <time>2019-04-26T11:16:23Z</time>
      </trkpt>
      <trkpt lat="44.52151" lon="5.80971">
        <ele>851.18</ele>
        <time>2019-04-26T11:16:34Z</time>
      </trkpt>
      <trkpt lat="44.52151" lon="5.80971">
        <ele>851.203</ele>
        <time>2019-04-26T11:16:44Z</time>
      </trkpt>
      <trkpt lat="44.52151" lon="5.80971">
        <ele>851.221</ele>
        <time>2019-04-26T11:16:55Z</time>
      </trkpt>
      <trkpt lat="44.52151" lon="5.8097">
        <ele>851.148</ele>
        <time>2019-04-26T11:17:06Z</time>
      </trkpt>
      <trkpt lat="44.52152" lon="5.8097">
        <ele>851.09</ele>
        <time>2019-04-26T11:17:17Z</time>
      </trkpt>
      <trkpt lat="44.52152" lon="5.8097">
        <ele>851.005</ele>
        <time>2019-04-26T11:17:27Z</time>
      </trkpt>
      <trkpt lat="44.52152" lon="5.80969">
        <ele>850.909</ele>
        <time>2019-04-26T11:17:37Z</time>
      </trkpt>
      <trkpt lat="44.52152" lon="5.80969">
        <ele>850.791</ele>
        <time>2019-04-26T11:17:48Z</time>
      </trkpt>
      <trkpt lat="44.52152" lon="5.80969">
        <ele>850.743</ele>
        <time>2019-04-26T11:17:58Z</time>
      </trkpt>
      <trkpt lat="44.52153" lon="5.80969">
        <ele>850.663</ele>
        <time>2019-04-26T11:18:09Z</time>
      </trkpt>
      <trkpt lat="44.52153" lon="5.80969">
        <ele>850.627</ele>
        <time>2019-04-26T11:18:20Z</time>
      </trkpt>
      <trkpt lat="44.52153" lon="5.80969">
        <ele>850.547</ele>
        <time>2019-04-26T11:18:31Z</time>
      </trkpt>
      <trkpt lat="44.52153" lon="5.80969">
        <ele>850.461</ele>
        <time>2019-04-26T11:18:41Z</time>
      </trkpt>
      <trkpt lat="44.52143" lon="5.80962">
        <ele>851.974</ele>
        <time>2019-04-26T11:18:52Z</time>
      </trkpt>
      <trkpt lat="44.52158" lon="5.80968">
        <ele>851.065</ele>
        <time>2019-04-26T11:19:03Z</time>
      </trkpt>
      <trkpt lat="44.52161" lon="5.80967">
        <ele>851.011</ele>
        <time>2019-04-26T11:19:14Z</time>
      </trkpt>
      <trkpt lat="44.5216" lon="5.80968">
        <ele>850.378</ele>
        <time>2019-04-26T11:19:24Z</time>
      </trkpt>
      <trkpt lat="44.52154" lon="5.80972">
        <ele>847.429</ele>
        <time>2019-04-26T11:19:35Z</time>
      </trkpt>
      <trkpt lat="44.52151" lon="5.8097">
        <ele>846.763</ele>
        <time>2019-04-26T11:19:45Z</time>
      </trkpt>
      <trkpt lat="44.52151" lon="5.80969">
        <ele>846.819</ele>
        <time>2019-04-26T11:19:56Z</time>
      </trkpt>
      <trkpt lat="44.5215" lon="5.80968">
        <ele>847.136</ele>
        <time>2019-04-26T11:20:07Z</time>
      </trkpt>
      <trkpt lat="44.52146" lon="5.80964">
        <ele>853.369</ele>
        <time>2019-04-26T11:20:18Z</time>
      </trkpt>
      <trkpt lat="44.52145" lon="5.80966">
        <ele>858.049</ele>
        <time>2019-04-26T11:20:28Z</time>
      </trkpt>
      <trkpt lat="44.52145" lon="5.80965">
        <ele>858.132</ele>
        <time>2019-04-26T11:20:39Z</time>
      </trkpt>
      <trkpt lat="44.52145" lon="5.80964">
        <ele>858.338</ele>
        <time>2019-04-26T11:20:49Z</time>
      </trkpt>
      <trkpt lat="44.52145" lon="5.80964">
        <ele>858.594</ele>
        <time>2019-04-26T11:21:00Z</time>
      </trkpt>
      <trkpt lat="44.52146" lon="5.80965">
        <ele>858.769</ele>
        <time>2019-04-26T11:21:10Z</time>
      </trkpt>
      <trkpt lat="44.52147" lon="5.80965">
        <ele>858.847</ele>
        <time>2019-04-26T11:21:21Z</time>
      </trkpt>
      <trkpt lat="44.52148" lon="5.80966">
        <ele>858.789</ele>
        <time>2019-04-26T11:21:32Z</time>
      </trkpt>
      <trkpt lat="44.52148" lon="5.80966">
        <ele>858.538</ele>
        <time>2019-04-26T11:21:43Z</time>
      </trkpt>
      <trkpt lat="44.52149" lon="5.80967">
        <ele>858.508</ele>
        <time>2019-04-26T11:21:53Z</time>
      </trkpt>
      <trkpt lat="44.5215" lon="5.80968">
        <ele>858.503</ele>
        <time>2019-04-26T11:22:03Z</time>
      </trkpt>
      <trkpt lat="44.5215" lon="5.80968">
        <ele>858.461</ele>
        <time>2019-04-26T11:22:14Z</time>
      </trkpt>
      <trkpt lat="44.52151" lon="5.80968">
        <ele>858.462</ele>
        <time>2019-04-26T11:22:25Z</time>
      </trkpt>
      <trkpt lat="44.52151" lon="5.80968">
        <ele>858.452</ele>
        <time>2019-04-26T11:22:36Z</time>
      </trkpt>
      <trkpt lat="44.52151" lon="5.80968">
        <ele>858.399</ele>
        <time>2019-04-26T11:22:47Z</time>
      </trkpt>
      <trkpt lat="44.52152" lon="5.80968">
        <ele>856.862</ele>
        <time>2019-04-26T11:22:58Z</time>
      </trkpt>
      <trkpt lat="44.5215" lon="5.80975">
        <ele>856.75</ele>
        <time>2019-04-26T11:23:08Z</time>
      </trkpt>
      <trkpt lat="44.52149" lon="5.80973">
        <ele>856.57</ele>
        <time>2019-04-26T11:23:19Z</time>
      </trkpt>
      <trkpt lat="44.5215" lon="5.80972">
        <ele>856.348</ele>
        <time>2019-04-26T11:23:30Z</time>
      </trkpt>
      <trkpt lat="44.5215" lon="5.80971">
        <ele>856.251</ele>
        <time>2019-04-26T11:23:41Z</time>
      </trkpt>
      <trkpt lat="44.52151" lon="5.8097">
        <ele>856.097</ele>
        <time>2019-04-26T11:23:52Z</time>
      </trkpt>
      <trkpt lat="44.52152" lon="5.80968">
        <ele>855.753</ele>
        <time>2019-04-26T11:24:03Z</time>
      </trkpt>
      <trkpt lat="44.52266" lon="5.80988">
        <ele>873.943</ele>
        <time>2019-04-26T11:24:14Z</time>
      </trkpt>
      <trkpt lat="44.52184" lon="5.80989">
        <ele>880.127</ele>
        <time>2019-04-26T11:24:25Z</time>
      </trkpt>
      <trkpt lat="44.52162" lon="5.80992">
        <ele>874.945</ele>
        <time>2019-04-26T11:24:35Z</time>
      </trkpt>
      <trkpt lat="44.52136" lon="5.81021">
        <ele>859.001</ele>
        <time>2019-04-26T11:24:46Z</time>
      </trkpt>
      <trkpt lat="44.52122" lon="5.81012">
        <ele>856.79</ele>
        <time>2019-04-26T11:24:57Z</time>
      </trkpt>
      <trkpt lat="44.521" lon="5.80991">
        <ele>856.481</ele>
        <time>2019-04-26T11:25:08Z</time>
      </trkpt>
      <trkpt lat="44.52081" lon="5.8097">
        <ele>856.391</ele>
        <time>2019-04-26T11:25:19Z</time>
      </trkpt>
      <trkpt lat="44.52068" lon="5.80956">
        <ele>857.416</ele>
        <time>2019-04-26T11:25:30Z</time>
      </trkpt>
      <trkpt lat="44.52051" lon="5.80946">
        <ele>856.505</ele>
        <time>2019-04-26T11:25:41Z</time>
      </trkpt>
      <trkpt lat="44.5203" lon="5.80939">
        <ele>856.62</ele>
        <time>2019-04-26T11:25:52Z</time>
      </trkpt>
      <trkpt lat="44.52014" lon="5.80956">
        <ele>856.994</ele>
        <time>2019-04-26T11:26:02Z</time>
      </trkpt>
      <trkpt lat="44.52018" lon="5.80979">
        <ele>857.578</ele>
        <time>2019-04-26T11:26:13Z</time>
      </trkpt>
      <trkpt lat="44.52029" lon="5.81005">
        <ele>858.207</ele>
        <time>2019-04-26T11:26:23Z</time>
      </trkpt>
      <trkpt lat="44.5203" lon="5.81033">
        <ele>858.849</ele>
        <time>2019-04-26T11:26:34Z</time>
      </trkpt>
      <trkpt lat="44.52019" lon="5.81048">
        <ele>859.46</ele>
        <time>2019-04-26T11:26:44Z</time>
      </trkpt>
      <trkpt lat="44.52003" lon="5.81042">
        <ele>860.062</ele>
        <time>2019-04-26T11:26:54Z</time>
      </trkpt>
      <trkpt lat="44.51985" lon="5.81035">
        <ele>860.936</ele>
        <time>2019-04-26T11:27:05Z</time>
      </trkpt>
      <trkpt lat="44.51965" lon="5.81024">
        <ele>861.865</ele>
        <time>2019-04-26T11:27:16Z</time>
      </trkpt>
      <trkpt lat="44.51947" lon="5.81012">
        <ele>862.96</ele>
        <time>2019-04-26T11:27:27Z</time>
      </trkpt>
      <trkpt lat="44.51929" lon="5.80997">
        <ele>863.372</ele>
        <time>2019-04-26T11:27:38Z</time>
      </trkpt>
      <trkpt lat="44.51912" lon="5.8098">
        <ele>863.91</ele>
        <time>2019-04-26T11:27:49Z</time>
      </trkpt>
      <trkpt lat="44.51902" lon="5.80963">
        <ele>865.531</ele>
        <time>2019-04-26T11:27:59Z</time>
      </trkpt>
      <trkpt lat="44.51894" lon="5.80936">
        <ele>867.655</ele>
        <time>2019-04-26T11:28:10Z</time>
      </trkpt>
      <trkpt lat="44.51887" lon="5.80911">
        <ele>869.328</ele>
        <time>2019-04-26T11:28:20Z</time>
      </trkpt>
      <trkpt lat="44.5188" lon="5.80885">
        <ele>870.924</ele>
        <time>2019-04-26T11:28:31Z</time>
      </trkpt>
      <trkpt lat="44.51872" lon="5.80863">
        <ele>872.052</ele>
        <time>2019-04-26T11:28:41Z</time>
      </trkpt>
      <trkpt lat="44.5186" lon="5.80843">
        <ele>873.177</ele>
        <time>2019-04-26T11:28:52Z</time>
      </trkpt>
      <trkpt lat="44.51844" lon="5.80825">
        <ele>874.451</ele>
        <time>2019-04-26T11:29:03Z</time>
      </trkpt>
      <trkpt lat="44.51813" lon="5.80814">
        <ele>875.176</ele>
        <time>2019-04-26T11:29:14Z</time>
      </trkpt>
      <trkpt lat="44.51769" lon="5.80824">
        <ele>877.05</ele>
        <time>2019-04-26T11:29:24Z</time>
      </trkpt>
      <trkpt lat="44.51722" lon="5.80867">
        <ele>878.04</ele>
        <time>2019-04-26T11:29:35Z</time>
      </trkpt>
      <trkpt lat="44.5169" lon="5.80936">
        <ele>869.801</ele>
        <time>2019-04-26T11:29:45Z</time>
      </trkpt>
      <trkpt lat="44.51631" lon="5.80962">
        <ele>866.855</ele>
        <time>2019-04-26T11:29:55Z</time>
      </trkpt>
      <trkpt lat="44.51601" lon="5.80845">
        <ele>868.071</ele>
        <time>2019-04-26T11:30:06Z</time>
      </trkpt>
      <trkpt lat="44.51535" lon="5.80795">
        <ele>868.182</ele>
        <time>2019-04-26T11:30:17Z</time>
      </trkpt>
      <trkpt lat="44.5147" lon="5.80755">
        <ele>874.606</ele>
        <time>2019-04-26T11:30:28Z</time>
      </trkpt>
      <trkpt lat="44.51415" lon="5.80742">
        <ele>873.188</ele>
        <time>2019-04-26T11:30:38Z</time>
      </trkpt>
      <trkpt lat="44.51368" lon="5.80695">
        <ele>879.469</ele>
        <time>2019-04-26T11:30:49Z</time>
      </trkpt>
      <trkpt lat="44.51361" lon="5.80721">
        <ele>874.451</ele>
        <time>2019-04-26T11:31:00Z</time>
      </trkpt>
      <trkpt lat="44.51339" lon="5.80735">
        <ele>874.703</ele>
        <time>2019-04-26T11:31:10Z</time>
      </trkpt>
      <trkpt lat="44.51319" lon="5.80745">
        <ele>875.062</ele>
        <time>2019-04-26T11:31:21Z</time>
      </trkpt>
      <trkpt lat="44.51302" lon="5.80758">
        <ele>875.344</ele>
        <time>2019-04-26T11:31:31Z</time>
      </trkpt>
      <trkpt lat="44.51284" lon="5.80772">
        <ele>875.837</ele>
        <time>2019-04-26T11:31:42Z</time>
      </trkpt>
      <trkpt lat="44.51267" lon="5.80782">
        <ele>876.528</ele>
        <time>2019-04-26T11:31:52Z</time>
      </trkpt>
      <trkpt lat="44.5125" lon="5.80794">
        <ele>877.29</ele>
        <time>2019-04-26T11:32:03Z</time>
      </trkpt>
      <trkpt lat="44.51237" lon="5.80808">
        <ele>878.007</ele>
        <time>2019-04-26T11:32:13Z</time>
      </trkpt>
      <trkpt lat="44.51221" lon="5.80819">
        <ele>878.672</ele>
        <time>2019-04-26T11:32:23Z</time>
      </trkpt>
      <trkpt lat="44.51205" lon="5.80806">
        <ele>879.356</ele>
        <time>2019-04-26T11:32:34Z</time>
      </trkpt>
      <trkpt lat="44.51196" lon="5.80779">
        <ele>880.116</ele>
        <time>2019-04-26T11:32:45Z</time>
      </trkpt>
      <trkpt lat="44.51185" lon="5.80747">
        <ele>880.964</ele>
        <time>2019-04-26T11:32:56Z</time>
      </trkpt>
      <trkpt lat="44.51147" lon="5.80714">
        <ele>884.501</ele>
        <time>2019-04-26T11:33:06Z</time>
      </trkpt>
      <trkpt lat="44.51075" lon="5.80732">
        <ele>893.146</ele>
        <time>2019-04-26T11:33:18Z</time>
      </trkpt>
      <trkpt lat="44.51029" lon="5.80671">
        <ele>931.029</ele>
        <time>2019-04-26T11:33:30Z</time>
      </trkpt>
      <trkpt lat="44.50972" lon="5.80566">
        <ele>926.343</ele>
        <time>2019-04-26T11:33:40Z</time>
      </trkpt>
      <trkpt lat="44.50922" lon="5.80502">
        <ele>907.209</ele>
        <time>2019-04-26T11:33:51Z</time>
      </trkpt>
      <trkpt lat="44.50867" lon="5.8044">
        <ele>891.125</ele>
        <time>2019-04-26T11:34:02Z</time>
      </trkpt>
      <trkpt lat="44.50818" lon="5.80418">
        <ele>885</ele>
        <time>2019-04-26T11:34:13Z</time>
      </trkpt>
      <trkpt lat="44.50787" lon="5.80435">
        <ele>884.566</ele>
        <time>2019-04-26T11:34:23Z</time>
      </trkpt>
      <trkpt lat="44.5076" lon="5.80462">
        <ele>884.017</ele>
        <time>2019-04-26T11:34:34Z</time>
      </trkpt>
      <trkpt lat="44.50733" lon="5.80465">
        <ele>883.578</ele>
        <time>2019-04-26T11:34:44Z</time>
      </trkpt>
      <trkpt lat="44.50705" lon="5.80459">
        <ele>883.073</ele>
        <time>2019-04-26T11:34:55Z</time>
      </trkpt>
      <trkpt lat="44.50682" lon="5.80442">
        <ele>882.826</ele>
        <time>2019-04-26T11:35:05Z</time>
      </trkpt>
      <trkpt lat="44.50664" lon="5.80422">
        <ele>883.088</ele>
        <time>2019-04-26T11:35:16Z</time>
      </trkpt>
      <trkpt lat="44.50648" lon="5.80407">
        <ele>883.762</ele>
        <time>2019-04-26T11:35:26Z</time>
      </trkpt>
      <trkpt lat="44.50629" lon="5.80389">
        <ele>884.661</ele>
        <time>2019-04-26T11:35:36Z</time>
      </trkpt>
      <trkpt lat="44.50603" lon="5.80392">
        <ele>885.617</ele>
        <time>2019-04-26T11:35:47Z</time>
      </trkpt>
      <trkpt lat="44.50566" lon="5.80415">
        <ele>887.586</ele>
        <time>2019-04-26T11:35:58Z</time>
      </trkpt>
      <trkpt lat="44.50513" lon="5.80453">
        <ele>884.151</ele>
        <time>2019-04-26T11:36:09Z</time>
      </trkpt>
      <trkpt lat="44.5046" lon="5.80435">
        <ele>885.367</ele>
        <time>2019-04-26T11:36:19Z</time>
      </trkpt>
      <trkpt lat="44.5045" lon="5.80339">
        <ele>882.735</ele>
        <time>2019-04-26T11:36:29Z</time>
      </trkpt>
      <trkpt lat="44.50414" lon="5.80233">
        <ele>878.137</ele>
        <time>2019-04-26T11:36:40Z</time>
      </trkpt>
      <trkpt lat="44.50397" lon="5.80141">
        <ele>879.508</ele>
        <time>2019-04-26T11:36:50Z</time>
      </trkpt>
      <trkpt lat="44.50376" lon="5.80016">
        <ele>873.542</ele>
        <time>2019-04-26T11:37:01Z</time>
      </trkpt>
      <trkpt lat="44.50367" lon="5.79896">
        <ele>871.31</ele>
        <time>2019-04-26T11:37:12Z</time>
      </trkpt>
      <trkpt lat="44.50368" lon="5.79813">
        <ele>870.193</ele>
        <time>2019-04-26T11:37:22Z</time>
      </trkpt>
      <trkpt lat="44.50392" lon="5.79712">
        <ele>875.438</ele>
        <time>2019-04-26T11:37:33Z</time>
      </trkpt>
      <trkpt lat="44.50409" lon="5.79662">
        <ele>893.764</ele>
        <time>2019-04-26T11:37:43Z</time>
      </trkpt>
      <trkpt lat="44.50388" lon="5.79578">
        <ele>885.276</ele>
        <time>2019-04-26T11:37:54Z</time>
      </trkpt>
      <trkpt lat="44.50361" lon="5.79501">
        <ele>878.984</ele>
        <time>2019-04-26T11:38:05Z</time>
      </trkpt>
      <trkpt lat="44.50348" lon="5.79473">
        <ele>887.411</ele>
        <time>2019-04-26T11:38:15Z</time>
      </trkpt>
      <trkpt lat="44.50326" lon="5.79418">
        <ele>886.781</ele>
        <time>2019-04-26T11:38:26Z</time>
      </trkpt>
      <trkpt lat="44.50295" lon="5.7937">
        <ele>877.023</ele>
        <time>2019-04-26T11:38:37Z</time>
      </trkpt>
      <trkpt lat="44.50256" lon="5.79298">
        <ele>870.204</ele>
        <time>2019-04-26T11:38:47Z</time>
      </trkpt>
      <trkpt lat="44.50184" lon="5.79212">
        <ele>863.619</ele>
        <time>2019-04-26T11:38:59Z</time>
      </trkpt>
      <trkpt lat="44.50143" lon="5.79092">
        <ele>852.351</ele>
        <time>2019-04-26T11:39:09Z</time>
      </trkpt>
      <trkpt lat="44.50075" lon="5.79026">
        <ele>859.317</ele>
        <time>2019-04-26T11:39:20Z</time>
      </trkpt>
      <trkpt lat="44.5003" lon="5.7896">
        <ele>863.636</ele>
        <time>2019-04-26T11:39:30Z</time>
      </trkpt>
      <trkpt lat="44.49944" lon="5.78926">
        <ele>866.734</ele>
        <time>2019-04-26T11:39:40Z</time>
      </trkpt>
      <trkpt lat="44.49848" lon="5.78846">
        <ele>852.993</ele>
        <time>2019-04-26T11:39:51Z</time>
      </trkpt>
      <trkpt lat="44.49741" lon="5.78791">
        <ele>870.111</ele>
        <time>2019-04-26T11:40:02Z</time>
      </trkpt>
      <trkpt lat="44.49672" lon="5.78746">
        <ele>872.984</ele>
        <time>2019-04-26T11:40:13Z</time>
      </trkpt>
      <trkpt lat="44.49611" lon="5.78681">
        <ele>857.749</ele>
        <time>2019-04-26T11:40:23Z</time>
      </trkpt>
      <trkpt lat="44.49557" lon="5.78622">
        <ele>841.594</ele>
        <time>2019-04-26T11:40:33Z</time>
      </trkpt>
      <trkpt lat="44.49498" lon="5.78586">
        <ele>839.042</ele>
        <time>2019-04-26T11:40:44Z</time>
      </trkpt>
      <trkpt lat="44.49454" lon="5.78565">
        <ele>834.298</ele>
        <time>2019-04-26T11:40:54Z</time>
      </trkpt>
      <trkpt lat="44.4939" lon="5.78514">
        <ele>818.065</ele>
        <time>2019-04-26T11:41:05Z</time>
      </trkpt>
      <trkpt lat="44.49321" lon="5.78446">
        <ele>801.629</ele>
        <time>2019-04-26T11:41:16Z</time>
      </trkpt>
      <trkpt lat="44.49254" lon="5.78389">
        <ele>800.489</ele>
        <time>2019-04-26T11:41:26Z</time>
      </trkpt>
      <trkpt lat="44.49195" lon="5.78319">
        <ele>799.574</ele>
        <time>2019-04-26T11:41:36Z</time>
      </trkpt>
      <trkpt lat="44.49157" lon="5.78253">
        <ele>803.736</ele>
        <time>2019-04-26T11:41:47Z</time>
      </trkpt>
      <trkpt lat="44.49111" lon="5.7819">
        <ele>802.879</ele>
        <time>2019-04-26T11:41:57Z</time>
      </trkpt>
      <trkpt lat="44.49047" lon="5.78179">
        <ele>810.401</ele>
        <time>2019-04-26T11:42:08Z</time>
      </trkpt>
      <trkpt lat="44.48993" lon="5.7817">
        <ele>813.262</ele>
        <time>2019-04-26T11:42:19Z</time>
      </trkpt>
      <trkpt lat="44.48918" lon="5.78164">
        <ele>817.113</ele>
        <time>2019-04-26T11:42:32Z</time>
      </trkpt>
      <trkpt lat="44.48859" lon="5.78153">
        <ele>824.62</ele>
        <time>2019-04-26T11:42:43Z</time>
      </trkpt>
      <trkpt lat="44.48785" lon="5.78136">
        <ele>820.527</ele>
        <time>2019-04-26T11:42:54Z</time>
      </trkpt>
      <trkpt lat="44.48727" lon="5.78144">
        <ele>812.067</ele>
        <time>2019-04-26T11:43:04Z</time>
      </trkpt>
      <trkpt lat="44.48681" lon="5.78146">
        <ele>813.563</ele>
        <time>2019-04-26T11:43:14Z</time>
      </trkpt>
      <trkpt lat="44.48638" lon="5.78151">
        <ele>814.985</ele>
        <time>2019-04-26T11:43:25Z</time>
      </trkpt>
      <trkpt lat="44.48608" lon="5.78158">
        <ele>815.432</ele>
        <time>2019-04-26T11:43:35Z</time>
      </trkpt>
      <trkpt lat="44.48576" lon="5.78152">
        <ele>816.07</ele>
        <time>2019-04-26T11:43:46Z</time>
      </trkpt>
      <trkpt lat="44.48551" lon="5.78136">
        <ele>816.844</ele>
        <time>2019-04-26T11:43:56Z</time>
      </trkpt>
      <trkpt lat="44.48525" lon="5.78116">
        <ele>817.932</ele>
        <time>2019-04-26T11:44:06Z</time>
      </trkpt>
      <trkpt lat="44.48493" lon="5.781">
        <ele>819.136</ele>
        <time>2019-04-26T11:44:17Z</time>
      </trkpt>
      <trkpt lat="44.48459" lon="5.78099">
        <ele>820.189</ele>
        <time>2019-04-26T11:44:28Z</time>
      </trkpt>
      <trkpt lat="44.48455" lon="5.78096">
        <ele>822.007</ele>
        <time>2019-04-26T11:44:39Z</time>
      </trkpt>
      <trkpt lat="44.48453" lon="5.78089">
        <ele>821.81</ele>
        <time>2019-04-26T11:44:49Z</time>
      </trkpt>
      <trkpt lat="44.48458" lon="5.78095">
        <ele>822.28</ele>
        <time>2019-04-26T11:45:00Z</time>
      </trkpt>
      <trkpt lat="44.48439" lon="5.78074">
        <ele>827.754</ele>
        <time>2019-04-26T11:45:10Z</time>
      </trkpt>
      <trkpt lat="44.4844" lon="5.78084">
        <ele>838.673</ele>
        <time>2019-04-26T11:45:20Z</time>
      </trkpt>
      <trkpt lat="44.48435" lon="5.78082">
        <ele>862.986</ele>
        <time>2019-04-26T11:45:32Z</time>
      </trkpt>
      <trkpt lat="44.48419" lon="5.78104">
        <ele>843.031</ele>
        <time>2019-04-26T11:45:42Z</time>
      </trkpt>
      <trkpt lat="44.48395" lon="5.78116">
        <ele>836.082</ele>
        <time>2019-04-26T11:45:52Z</time>
      </trkpt>
      <trkpt lat="44.48379" lon="5.78132">
        <ele>833.062</ele>
        <time>2019-04-26T11:46:03Z</time>
      </trkpt>
      <trkpt lat="44.48368" lon="5.78149">
        <ele>831.358</ele>
        <time>2019-04-26T11:46:14Z</time>
      </trkpt>
      <trkpt lat="44.48355" lon="5.78178">
        <ele>829.931</ele>
        <time>2019-04-26T11:46:25Z</time>
      </trkpt>
      <trkpt lat="44.48331" lon="5.78229">
        <ele>823.229</ele>
        <time>2019-04-26T11:46:36Z</time>
      </trkpt>
      <trkpt lat="44.48267" lon="5.78272">
        <ele>820.012</ele>
        <time>2019-04-26T11:46:47Z</time>
      </trkpt>
      <trkpt lat="44.48192" lon="5.78298">
        <ele>818.725</ele>
        <time>2019-04-26T11:46:58Z</time>
      </trkpt>
      <trkpt lat="44.4813" lon="5.7833">
        <ele>818.295</ele>
        <time>2019-04-26T11:47:09Z</time>
      </trkpt>
      <trkpt lat="44.48084" lon="5.78352">
        <ele>817.608</ele>
        <time>2019-04-26T11:47:19Z</time>
      </trkpt>
      <trkpt lat="44.48041" lon="5.78363">
        <ele>817.753</ele>
        <time>2019-04-26T11:47:30Z</time>
      </trkpt>
      <trkpt lat="44.48008" lon="5.78361">
        <ele>818.227</ele>
        <time>2019-04-26T11:47:41Z</time>
      </trkpt>
      <trkpt lat="44.47978" lon="5.78365">
        <ele>818.813</ele>
        <time>2019-04-26T11:47:52Z</time>
      </trkpt>
      <trkpt lat="44.47949" lon="5.78383">
        <ele>819.394</ele>
        <time>2019-04-26T11:48:03Z</time>
      </trkpt>
      <trkpt lat="44.47922" lon="5.78398">
        <ele>820.096</ele>
        <time>2019-04-26T11:48:14Z</time>
      </trkpt>
      <trkpt lat="44.47891" lon="5.78402">
        <ele>820.828</ele>
        <time>2019-04-26T11:48:25Z</time>
      </trkpt>
      <trkpt lat="44.47856" lon="5.78392">
        <ele>821.857</ele>
        <time>2019-04-26T11:48:36Z</time>
      </trkpt>
      <trkpt lat="44.47822" lon="5.78386">
        <ele>822.993</ele>
        <time>2019-04-26T11:48:46Z</time>
      </trkpt>
      <trkpt lat="44.47787" lon="5.78391">
        <ele>824.51</ele>
        <time>2019-04-26T11:48:57Z</time>
      </trkpt>
      <trkpt lat="44.4774" lon="5.7839">
        <ele>830.366</ele>
        <time>2019-04-26T11:49:07Z</time>
      </trkpt>
      <trkpt lat="44.47668" lon="5.78364">
        <ele>831.945</ele>
        <time>2019-04-26T11:49:18Z</time>
      </trkpt>
      <trkpt lat="44.47608" lon="5.78319">
        <ele>831.172</ele>
        <time>2019-04-26T11:49:28Z</time>
      </trkpt>
      <trkpt lat="44.47551" lon="5.78261">
        <ele>829.801</ele>
        <time>2019-04-26T11:49:39Z</time>
      </trkpt>
      <trkpt lat="44.47491" lon="5.78198">
        <ele>828.222</ele>
        <time>2019-04-26T11:49:50Z</time>
      </trkpt>
      <trkpt lat="44.47417" lon="5.78169">
        <ele>826.18</ele>
        <time>2019-04-26T11:50:00Z</time>
      </trkpt>
      <trkpt lat="44.47361" lon="5.78192">
        <ele>823.27</ele>
        <time>2019-04-26T11:50:10Z</time>
      </trkpt>
      <trkpt lat="44.47311" lon="5.78278">
        <ele>819.52</ele>
        <time>2019-04-26T11:50:21Z</time>
      </trkpt>
      <trkpt lat="44.47263" lon="5.7836">
        <ele>816.404</ele>
        <time>2019-04-26T11:50:32Z</time>
      </trkpt>
      <trkpt lat="44.47221" lon="5.78433">
        <ele>814.439</ele>
        <time>2019-04-26T11:50:42Z</time>
      </trkpt>
      <trkpt lat="44.4718" lon="5.78505">
        <ele>812.934</ele>
        <time>2019-04-26T11:50:53Z</time>
      </trkpt>
      <trkpt lat="44.47143" lon="5.78566">
        <ele>812.022</ele>
        <time>2019-04-26T11:51:04Z</time>
      </trkpt>
      <trkpt lat="44.4712" lon="5.78609">
        <ele>812.318</ele>
        <time>2019-04-26T11:51:14Z</time>
      </trkpt>
      <trkpt lat="44.47088" lon="5.78659">
        <ele>812.725</ele>
        <time>2019-04-26T11:51:25Z</time>
      </trkpt>
      <trkpt lat="44.47051" lon="5.78726">
        <ele>813.11</ele>
        <time>2019-04-26T11:51:36Z</time>
      </trkpt>
      <trkpt lat="44.47007" lon="5.7875">
        <ele>813.26</ele>
        <time>2019-04-26T11:51:46Z</time>
      </trkpt>
      <trkpt lat="44.46966" lon="5.78726">
        <ele>812.473</ele>
        <time>2019-04-26T11:51:57Z</time>
      </trkpt>
      <trkpt lat="44.46941" lon="5.78687">
        <ele>812.53</ele>
        <time>2019-04-26T11:52:08Z</time>
      </trkpt>
      <trkpt lat="44.46909" lon="5.78663">
        <ele>813.363</ele>
        <time>2019-04-26T11:52:18Z</time>
      </trkpt>
      <trkpt lat="44.46861" lon="5.78631">
        <ele>813.324</ele>
        <time>2019-04-26T11:52:29Z</time>
      </trkpt>
      <trkpt lat="44.46819" lon="5.78592">
        <ele>811.669</ele>
        <time>2019-04-26T11:52:39Z</time>
      </trkpt>
      <trkpt lat="44.46779" lon="5.78555">
        <ele>810.753</ele>
        <time>2019-04-26T11:52:50Z</time>
      </trkpt>
      <trkpt lat="44.46745" lon="5.78525">
        <ele>811.149</ele>
        <time>2019-04-26T11:53:01Z</time>
      </trkpt>
      <trkpt lat="44.46716" lon="5.785">
        <ele>811.415</ele>
        <time>2019-04-26T11:53:12Z</time>
      </trkpt>
      <trkpt lat="44.46689" lon="5.78464">
        <ele>812.78</ele>
        <time>2019-04-26T11:53:22Z</time>
      </trkpt>
      <trkpt lat="44.46672" lon="5.78421">
        <ele>813.52</ele>
        <time>2019-04-26T11:53:33Z</time>
      </trkpt>
      <trkpt lat="44.46641" lon="5.78389">
        <ele>814.964</ele>
        <time>2019-04-26T11:53:44Z</time>
      </trkpt>
      <trkpt lat="44.46603" lon="5.78361">
        <ele>816.361</ele>
        <time>2019-04-26T11:53:55Z</time>
      </trkpt>
      <trkpt lat="44.46566" lon="5.78333">
        <ele>818.212</ele>
        <time>2019-04-26T11:54:06Z</time>
      </trkpt>
      <trkpt lat="44.46526" lon="5.78318">
        <ele>819.072</ele>
        <time>2019-04-26T11:54:16Z</time>
      </trkpt>
      <trkpt lat="44.4648" lon="5.78305">
        <ele>819.83</ele>
        <time>2019-04-26T11:54:27Z</time>
      </trkpt>
      <trkpt lat="44.4644" lon="5.7831">
        <ele>820.23</ele>
        <time>2019-04-26T11:54:38Z</time>
      </trkpt>
      <trkpt lat="44.46397" lon="5.78324">
        <ele>820.48</ele>
        <time>2019-04-26T11:54:49Z</time>
      </trkpt>
      <trkpt lat="44.46352" lon="5.7832">
        <ele>822.31</ele>
        <time>2019-04-26T11:55:00Z</time>
      </trkpt>
      <trkpt lat="44.463" lon="5.78314">
        <ele>822.822</ele>
        <time>2019-04-26T11:55:11Z</time>
      </trkpt>
      <trkpt lat="44.46254" lon="5.78285">
        <ele>820.776</ele>
        <time>2019-04-26T11:55:22Z</time>
      </trkpt>
      <trkpt lat="44.4622" lon="5.78259">
        <ele>820.552</ele>
        <time>2019-04-26T11:55:32Z</time>
      </trkpt>
      <trkpt lat="44.46184" lon="5.7825">
        <ele>820.793</ele>
        <time>2019-04-26T11:55:43Z</time>
      </trkpt>
      <trkpt lat="44.46147" lon="5.78251">
        <ele>821.059</ele>
        <time>2019-04-26T11:55:54Z</time>
      </trkpt>
      <trkpt lat="44.46114" lon="5.78254">
        <ele>821.427</ele>
        <time>2019-04-26T11:56:05Z</time>
      </trkpt>
      <trkpt lat="44.46082" lon="5.7828">
        <ele>821.824</ele>
        <time>2019-04-26T11:56:16Z</time>
      </trkpt>
      <trkpt lat="44.46047" lon="5.78322">
        <ele>822.52</ele>
        <time>2019-04-26T11:56:27Z</time>
      </trkpt>
      <trkpt lat="44.45997" lon="5.78328">
        <ele>823.88</ele>
        <time>2019-04-26T11:56:38Z</time>
      </trkpt>
      <trkpt lat="44.4596" lon="5.78322">
        <ele>823.949</ele>
        <time>2019-04-26T11:56:48Z</time>
      </trkpt>
      <trkpt lat="44.4594" lon="5.78287">
        <ele>824.035</ele>
        <time>2019-04-26T11:56:59Z</time>
      </trkpt>
      <trkpt lat="44.45918" lon="5.78281">
        <ele>824.744</ele>
        <time>2019-04-26T11:57:10Z</time>
      </trkpt>
      <trkpt lat="44.45894" lon="5.78279">
        <ele>825.62</ele>
        <time>2019-04-26T11:57:21Z</time>
      </trkpt>
      <trkpt lat="44.4587" lon="5.78285">
        <ele>826.184</ele>
        <time>2019-04-26T11:57:32Z</time>
      </trkpt>
      <trkpt lat="44.4585" lon="5.78299">
        <ele>826.727</ele>
        <time>2019-04-26T11:57:43Z</time>
      </trkpt>
      <trkpt lat="44.45832" lon="5.78315">
        <ele>827.486</ele>
        <time>2019-04-26T11:57:54Z</time>
      </trkpt>
      <trkpt lat="44.45814" lon="5.78337">
        <ele>828.4</ele>
        <time>2019-04-26T11:58:05Z</time>
      </trkpt>
      <trkpt lat="44.45796" lon="5.7836">
        <ele>829.554</ele>
        <time>2019-04-26T11:58:16Z</time>
      </trkpt>
      <trkpt lat="44.45776" lon="5.78383">
        <ele>830.893</ele>
        <time>2019-04-26T11:58:27Z</time>
      </trkpt>
      <trkpt lat="44.45755" lon="5.78405">
        <ele>832.161</ele>
        <time>2019-04-26T11:58:37Z</time>
      </trkpt>
      <trkpt lat="44.4572" lon="5.78402">
        <ele>832.705</ele>
        <time>2019-04-26T11:58:47Z</time>
      </trkpt>
      <trkpt lat="44.45689" lon="5.78384">
        <ele>833.003</ele>
        <time>2019-04-26T11:58:58Z</time>
      </trkpt>
      <trkpt lat="44.45678" lon="5.78355">
        <ele>834.706</ele>
        <time>2019-04-26T11:59:09Z</time>
      </trkpt>
      <trkpt lat="44.45668" lon="5.7832">
        <ele>836.894</ele>
        <time>2019-04-26T11:59:20Z</time>
      </trkpt>
      <trkpt lat="44.45657" lon="5.78291">
        <ele>838.362</ele>
        <time>2019-04-26T11:59:30Z</time>
      </trkpt>
      <trkpt lat="44.45639" lon="5.78265">
        <ele>839.802</ele>
        <time>2019-04-26T11:59:41Z</time>
      </trkpt>
      <trkpt lat="44.45612" lon="5.7827">
        <ele>841.106</ele>
        <time>2019-04-26T11:59:52Z</time>
      </trkpt>
      <trkpt lat="44.45593" lon="5.78296">
        <ele>842.183</ele>
        <time>2019-04-26T12:00:03Z</time>
      </trkpt>
      <trkpt lat="44.45572" lon="5.78315">
        <ele>842.907</ele>
        <time>2019-04-26T12:00:13Z</time>
      </trkpt>
      <trkpt lat="44.45547" lon="5.78319">
        <ele>843.754</ele>
        <time>2019-04-26T12:00:23Z</time>
      </trkpt>
      <trkpt lat="44.4552" lon="5.78317">
        <ele>844.031</ele>
        <time>2019-04-26T12:00:34Z</time>
      </trkpt>
      <trkpt lat="44.45493" lon="5.78316">
        <ele>844.35</ele>
        <time>2019-04-26T12:00:45Z</time>
      </trkpt>
      <trkpt lat="44.45464" lon="5.78315">
        <ele>844.82</ele>
        <time>2019-04-26T12:00:56Z</time>
      </trkpt>
      <trkpt lat="44.45437" lon="5.78321">
        <ele>845.605</ele>
        <time>2019-04-26T12:01:07Z</time>
      </trkpt>
      <trkpt lat="44.45404" lon="5.78353">
        <ele>847.377</ele>
        <time>2019-04-26T12:01:17Z</time>
      </trkpt>
      <trkpt lat="44.45343" lon="5.78431">
        <ele>842.708</ele>
        <time>2019-04-26T12:01:27Z</time>
      </trkpt>
      <trkpt lat="44.45253" lon="5.78496">
        <ele>841.827</ele>
        <time>2019-04-26T12:01:38Z</time>
      </trkpt>
      <trkpt lat="44.45196" lon="5.7843">
        <ele>841.293</ele>
        <time>2019-04-26T12:01:48Z</time>
      </trkpt>
      <trkpt lat="44.45146" lon="5.78439">
        <ele>839.898</ele>
        <time>2019-04-26T12:01:58Z</time>
      </trkpt>
      <trkpt lat="44.45092" lon="5.78426">
        <ele>840.93</ele>
        <time>2019-04-26T12:02:09Z</time>
      </trkpt>
      <trkpt lat="44.45051" lon="5.78443">
        <ele>841.836</ele>
        <time>2019-04-26T12:02:19Z</time>
      </trkpt>
      <trkpt lat="44.45014" lon="5.7841">
        <ele>841.979</ele>
        <time>2019-04-26T12:02:30Z</time>
      </trkpt>
      <trkpt lat="44.45027" lon="5.78358">
        <ele>842.711</ele>
        <time>2019-04-26T12:02:40Z</time>
      </trkpt>
      <trkpt lat="44.45002" lon="5.78311">
        <ele>843.382</ele>
        <time>2019-04-26T12:02:51Z</time>
      </trkpt>
      <trkpt lat="44.44958" lon="5.78268">
        <ele>843.154</ele>
        <time>2019-04-26T12:03:02Z</time>
      </trkpt>
      <trkpt lat="44.44903" lon="5.78217">
        <ele>842.536</ele>
        <time>2019-04-26T12:03:12Z</time>
      </trkpt>
      <trkpt lat="44.44818" lon="5.78196">
        <ele>841.659</ele>
        <time>2019-04-26T12:03:23Z</time>
      </trkpt>
      <trkpt lat="44.44744" lon="5.78213">
        <ele>840.586</ele>
        <time>2019-04-26T12:03:33Z</time>
      </trkpt>
      <trkpt lat="44.44686" lon="5.78264">
        <ele>839.038</ele>
        <time>2019-04-26T12:03:44Z</time>
      </trkpt>
      <trkpt lat="44.44685" lon="5.78265">
        <ele>838.935</ele>
        <time>2019-04-26T12:03:54Z</time>
      </trkpt>
      <trkpt lat="44.44685" lon="5.78265">
        <ele>838.61</ele>
        <time>2019-04-26T12:04:05Z</time>
      </trkpt>
      <trkpt lat="44.44685" lon="5.78265">
        <ele>838.551</ele>
        <time>2019-04-26T12:04:15Z</time>
      </trkpt>
      <trkpt lat="44.4468" lon="5.78263">
        <ele>838.083</ele>
        <time>2019-04-26T12:04:26Z</time>
      </trkpt>
      <trkpt lat="44.44661" lon="5.78289">
        <ele>837.571</ele>
        <time>2019-04-26T12:04:36Z</time>
      </trkpt>
      <trkpt lat="44.44626" lon="5.78323">
        <ele>835.173</ele>
        <time>2019-04-26T12:04:46Z</time>
      </trkpt>
      <trkpt lat="44.44568" lon="5.7832">
        <ele>834.142</ele>
        <time>2019-04-26T12:04:56Z</time>
      </trkpt>
      <trkpt lat="44.44528" lon="5.78316">
        <ele>834.525</ele>
        <time>2019-04-26T12:05:06Z</time>
      </trkpt>
      <trkpt lat="44.44511" lon="5.78343">
        <ele>834.767</ele>
        <time>2019-04-26T12:05:17Z</time>
      </trkpt>
      <trkpt lat="44.44498" lon="5.7837">
        <ele>834.869</ele>
        <time>2019-04-26T12:05:28Z</time>
      </trkpt>
      <trkpt lat="44.44485" lon="5.78398">
        <ele>834.965</ele>
        <time>2019-04-26T12:05:39Z</time>
      </trkpt>
      <trkpt lat="44.44472" lon="5.78429">
        <ele>835.113</ele>
        <time>2019-04-26T12:05:50Z</time>
      </trkpt>
      <trkpt lat="44.44459" lon="5.78457">
        <ele>835.273</ele>
        <time>2019-04-26T12:06:00Z</time>
      </trkpt>
      <trkpt lat="44.44452" lon="5.78475">
        <ele>835.619</ele>
        <time>2019-04-26T12:06:11Z</time>
      </trkpt>
      <trkpt lat="44.44452" lon="5.78475">
        <ele>835.682</ele>
        <time>2019-04-26T12:06:22Z</time>
      </trkpt>
      <trkpt lat="44.44452" lon="5.78475">
        <ele>835.769</ele>
        <time>2019-04-26T12:06:32Z</time>
      </trkpt>
      <trkpt lat="44.44452" lon="5.78475">
        <ele>836.105</ele>
        <time>2019-04-26T12:06:43Z</time>
      </trkpt>
      <trkpt lat="44.44451" lon="5.78481">
        <ele>836.692</ele>
        <time>2019-04-26T12:06:54Z</time>
      </trkpt>
      <trkpt lat="44.44451" lon="5.78483">
        <ele>837.142</ele>
        <time>2019-04-26T12:07:05Z</time>
      </trkpt>
      <trkpt lat="44.44446" lon="5.78492">
        <ele>838.158</ele>
        <time>2019-04-26T12:07:16Z</time>
      </trkpt>
      <trkpt lat="44.44435" lon="5.78522">
        <ele>839.278</ele>
        <time>2019-04-26T12:07:26Z</time>
      </trkpt>
      <trkpt lat="44.44428" lon="5.78557">
        <ele>840.36</ele>
        <time>2019-04-26T12:07:37Z</time>
      </trkpt>
      <trkpt lat="44.44426" lon="5.78592">
        <ele>841.36</ele>
        <time>2019-04-26T12:07:48Z</time>
      </trkpt>
      <trkpt lat="44.44419" lon="5.7862">
        <ele>842.42</ele>
        <time>2019-04-26T12:07:59Z</time>
      </trkpt>
      <trkpt lat="44.4441" lon="5.78647">
        <ele>843.461</ele>
        <time>2019-04-26T12:08:10Z</time>
      </trkpt>
      <trkpt lat="44.44404" lon="5.78666">
        <ele>844.366</ele>
        <time>2019-04-26T12:08:21Z</time>
      </trkpt>
      <trkpt lat="44.44394" lon="5.78687">
        <ele>845.151</ele>
        <time>2019-04-26T12:08:31Z</time>
      </trkpt>
      <trkpt lat="44.44393" lon="5.78711">
        <ele>846.273</ele>
        <time>2019-04-26T12:08:42Z</time>
      </trkpt>
      <trkpt lat="44.44389" lon="5.78734">
        <ele>847.337</ele>
        <time>2019-04-26T12:08:53Z</time>
      </trkpt>
      <trkpt lat="44.44383" lon="5.78759">
        <ele>848.457</ele>
        <time>2019-04-26T12:09:04Z</time>
      </trkpt>
      <trkpt lat="44.4438" lon="5.78787">
        <ele>849.675</ele>
        <time>2019-04-26T12:09:15Z</time>
      </trkpt>
      <trkpt lat="44.44375" lon="5.78813">
        <ele>851.062</ele>
        <time>2019-04-26T12:09:26Z</time>
      </trkpt>
      <trkpt lat="44.4437" lon="5.78834">
        <ele>852.383</ele>
        <time>2019-04-26T12:09:36Z</time>
      </trkpt>
      <trkpt lat="44.44364" lon="5.78853">
        <ele>853.88</ele>
        <time>2019-04-26T12:09:47Z</time>
      </trkpt>
      <trkpt lat="44.44353" lon="5.78871">
        <ele>855.176</ele>
        <time>2019-04-26T12:09:58Z</time>
      </trkpt>
      <trkpt lat="44.4434" lon="5.78886">
        <ele>856.132</ele>
        <time>2019-04-26T12:10:08Z</time>
      </trkpt>
      <trkpt lat="44.44324" lon="5.78901">
        <ele>857.4</ele>
        <time>2019-04-26T12:10:19Z</time>
      </trkpt>
      <trkpt lat="44.44309" lon="5.78913">
        <ele>859.135</ele>
        <time>2019-04-26T12:10:30Z</time>
      </trkpt>
      <trkpt lat="44.44295" lon="5.78925">
        <ele>861.187</ele>
        <time>2019-04-26T12:10:40Z</time>
      </trkpt>
      <trkpt lat="44.44279" lon="5.78936">
        <ele>863.266</ele>
        <time>2019-04-26T12:10:51Z</time>
      </trkpt>
      <trkpt lat="44.44261" lon="5.78949">
        <ele>865.06</ele>
        <time>2019-04-26T12:11:02Z</time>
      </trkpt>
      <trkpt lat="44.44241" lon="5.78958">
        <ele>866.788</ele>
        <time>2019-04-26T12:11:13Z</time>
      </trkpt>
      <trkpt lat="44.44223" lon="5.78965">
        <ele>868.28</ele>
        <time>2019-04-26T12:11:23Z</time>
      </trkpt>
      <trkpt lat="44.44203" lon="5.78978">
        <ele>869.719</ele>
        <time>2019-04-26T12:11:34Z</time>
      </trkpt>
      <trkpt lat="44.44188" lon="5.78998">
        <ele>871.219</ele>
        <time>2019-04-26T12:11:45Z</time>
      </trkpt>
      <trkpt lat="44.44176" lon="5.7902">
        <ele>872.448</ele>
        <time>2019-04-26T12:11:55Z</time>
      </trkpt>
      <trkpt lat="44.44164" lon="5.79049">
        <ele>873.702</ele>
        <time>2019-04-26T12:12:06Z</time>
      </trkpt>
      <trkpt lat="44.44158" lon="5.79061">
        <ele>874.69</ele>
        <time>2019-04-26T12:12:16Z</time>
      </trkpt>
      <trkpt lat="44.44158" lon="5.79061">
        <ele>874.833</ele>
        <time>2019-04-26T12:12:27Z</time>
      </trkpt>
      <trkpt lat="44.44158" lon="5.79061">
        <ele>874.954</ele>
        <time>2019-04-26T12:12:37Z</time>
      </trkpt>
      <trkpt lat="44.44158" lon="5.79061">
        <ele>875.112</ele>
        <time>2019-04-26T12:12:48Z</time>
      </trkpt>
      <trkpt lat="44.44157" lon="5.79068">
        <ele>876.074</ele>
        <time>2019-04-26T12:12:58Z</time>
      </trkpt>
      <trkpt lat="44.44144" lon="5.79094">
        <ele>877.692</ele>
        <time>2019-04-26T12:13:09Z</time>
      </trkpt>
      <trkpt lat="44.44132" lon="5.79105">
        <ele>879.528</ele>
        <time>2019-04-26T12:13:20Z</time>
      </trkpt>
      <trkpt lat="44.44132" lon="5.79105">
        <ele>879.94</ele>
        <time>2019-04-26T12:13:31Z</time>
      </trkpt>
      <trkpt lat="44.44132" lon="5.79105">
        <ele>880.112</ele>
        <time>2019-04-26T12:13:42Z</time>
      </trkpt>
      <trkpt lat="44.44132" lon="5.79106">
        <ele>880.221</ele>
        <time>2019-04-26T12:13:52Z</time>
      </trkpt>
      <trkpt lat="44.44132" lon="5.79107">
        <ele>880.947</ele>
        <time>2019-04-26T12:14:03Z</time>
      </trkpt>
      <trkpt lat="44.44135" lon="5.79105">
        <ele>882.054</ele>
        <time>2019-04-26T12:14:14Z</time>
      </trkpt>
      <trkpt lat="44.44135" lon="5.79106">
        <ele>882.211</ele>
        <time>2019-04-26T12:14:25Z</time>
      </trkpt>
      <trkpt lat="44.44135" lon="5.79106">
        <ele>882.598</ele>
        <time>2019-04-26T12:14:36Z</time>
      </trkpt>
      <trkpt lat="44.44134" lon="5.79106">
        <ele>882.979</ele>
        <time>2019-04-26T12:14:47Z</time>
      </trkpt>
      <trkpt lat="44.44132" lon="5.79105">
        <ele>884.37</ele>
        <time>2019-04-26T12:14:57Z</time>
      </trkpt>
      <trkpt lat="44.44132" lon="5.79105">
        <ele>884.612</ele>
        <time>2019-04-26T12:15:07Z</time>
      </trkpt>
      <trkpt lat="44.44133" lon="5.79105">
        <ele>884.897</ele>
        <time>2019-04-26T12:15:18Z</time>
      </trkpt>
      <trkpt lat="44.44132" lon="5.79105">
        <ele>885.507</ele>
        <time>2019-04-26T12:15:29Z</time>
      </trkpt>
      <trkpt lat="44.44132" lon="5.79105">
        <ele>886.016</ele>
        <time>2019-04-26T12:15:39Z</time>
      </trkpt>
      <trkpt lat="44.44132" lon="5.79105">
        <ele>886.177</ele>
        <time>2019-04-26T12:15:50Z</time>
      </trkpt>
      <trkpt lat="44.44133" lon="5.79106">
        <ele>886.535</ele>
        <time>2019-04-26T12:16:01Z</time>
      </trkpt>
      <trkpt lat="44.44133" lon="5.79106">
        <ele>886.808</ele>
        <time>2019-04-26T12:16:12Z</time>
      </trkpt>
      <trkpt lat="44.44133" lon="5.79106">
        <ele>886.916</ele>
        <time>2019-04-26T12:16:23Z</time>
      </trkpt>
      <trkpt lat="44.44133" lon="5.79105">
        <ele>887.101</ele>
        <time>2019-04-26T12:16:34Z</time>
      </trkpt>
      <trkpt lat="44.44132" lon="5.79105">
        <ele>887.218</ele>
        <time>2019-04-26T12:16:44Z</time>
      </trkpt>
      <trkpt lat="44.44132" lon="5.79104">
        <ele>887.516</ele>
        <time>2019-04-26T12:16:55Z</time>
      </trkpt>
      <trkpt lat="44.44132" lon="5.79103">
        <ele>887.725</ele>
        <time>2019-04-26T12:17:06Z</time>
      </trkpt>
      <trkpt lat="44.44132" lon="5.79102">
        <ele>887.955</ele>
        <time>2019-04-26T12:17:16Z</time>
      </trkpt>
      <trkpt lat="44.44132" lon="5.79102">
        <ele>888.226</ele>
        <time>2019-04-26T12:17:27Z</time>
      </trkpt>
      <trkpt lat="44.44132" lon="5.79101">
        <ele>888.926</ele>
        <time>2019-04-26T12:17:38Z</time>
      </trkpt>
      <trkpt lat="44.44132" lon="5.791">
        <ele>889.441</ele>
        <time>2019-04-26T12:17:49Z</time>
      </trkpt>
      <trkpt lat="44.44132" lon="5.79098">
        <ele>889.733</ele>
        <time>2019-04-26T12:18:00Z</time>
      </trkpt>
      <trkpt lat="44.44132" lon="5.79098">
        <ele>890.017</ele>
        <time>2019-04-26T12:18:10Z</time>
      </trkpt>
      <trkpt lat="44.44133" lon="5.79098">
        <ele>890.315</ele>
        <time>2019-04-26T12:18:21Z</time>
      </trkpt>
      <trkpt lat="44.44133" lon="5.79097">
        <ele>890.614</ele>
        <time>2019-04-26T12:18:32Z</time>
      </trkpt>
      <trkpt lat="44.44133" lon="5.79098">
        <ele>890.869</ele>
        <time>2019-04-26T12:18:42Z</time>
      </trkpt>
      <trkpt lat="44.44133" lon="5.79098">
        <ele>891.511</ele>
        <time>2019-04-26T12:18:52Z</time>
      </trkpt>
      <trkpt lat="44.44125" lon="5.79076">
        <ele>902.692</ele>
        <time>2019-04-26T12:19:03Z</time>
      </trkpt>
      <trkpt lat="44.44125" lon="5.79107">
        <ele>892.248</ele>
        <time>2019-04-26T12:19:13Z</time>
      </trkpt>
      <trkpt lat="44.44126" lon="5.79108">
        <ele>880.609</ele>
        <time>2019-04-26T12:19:23Z</time>
      </trkpt>
      <trkpt lat="44.44127" lon="5.79108">
        <ele>880.866</ele>
        <time>2019-04-26T12:19:34Z</time>
      </trkpt>
      <trkpt lat="44.44128" lon="5.79107">
        <ele>881.013</ele>
        <time>2019-04-26T12:19:45Z</time>
      </trkpt>
      <trkpt lat="44.44128" lon="5.79107">
        <ele>881.145</ele>
        <time>2019-04-26T12:19:55Z</time>
      </trkpt>
      <trkpt lat="44.44129" lon="5.79107">
        <ele>881.411</ele>
        <time>2019-04-26T12:20:06Z</time>
      </trkpt>
      <trkpt lat="44.44129" lon="5.79107">
        <ele>881.775</ele>
        <time>2019-04-26T12:20:17Z</time>
      </trkpt>
      <trkpt lat="44.4413" lon="5.79107">
        <ele>882.024</ele>
        <time>2019-04-26T12:20:28Z</time>
      </trkpt>
      <trkpt lat="44.4413" lon="5.79107">
        <ele>882.17</ele>
        <time>2019-04-26T12:20:38Z</time>
      </trkpt>
      <trkpt lat="44.4413" lon="5.79107">
        <ele>882.335</ele>
        <time>2019-04-26T12:20:49Z</time>
      </trkpt>
      <trkpt lat="44.44131" lon="5.79106">
        <ele>882.652</ele>
        <time>2019-04-26T12:21:00Z</time>
      </trkpt>
      <trkpt lat="44.44131" lon="5.79106">
        <ele>883.069</ele>
        <time>2019-04-26T12:21:10Z</time>
      </trkpt>
      <trkpt lat="44.44131" lon="5.79107">
        <ele>883.227</ele>
        <time>2019-04-26T12:21:21Z</time>
      </trkpt>
      <trkpt lat="44.44131" lon="5.79107">
        <ele>883.492</ele>
        <time>2019-04-26T12:21:31Z</time>
      </trkpt>
      <trkpt lat="44.44132" lon="5.79107">
        <ele>883.643</ele>
        <time>2019-04-26T12:21:42Z</time>
      </trkpt>
      <trkpt lat="44.44132" lon="5.79107">
        <ele>883.928</ele>
        <time>2019-04-26T12:21:53Z</time>
      </trkpt>
      <trkpt lat="44.44123" lon="5.79127">
        <ele>895.86</ele>
        <time>2019-04-26T12:22:04Z</time>
      </trkpt>
      <trkpt lat="44.44109" lon="5.79136">
        <ele>900.605</ele>
        <time>2019-04-26T12:22:18Z</time>
      </trkpt>
      <trkpt lat="44.44073" lon="5.7915">
        <ele>899.081</ele>
        <time>2019-04-26T12:22:31Z</time>
      </trkpt>
      <trkpt lat="44.44109" lon="5.79123">
        <ele>847.291</ele>
        <time>2019-04-26T12:22:42Z</time>
      </trkpt>
      <trkpt lat="44.4408" lon="5.79156">
        <ele>820.54</ele>
        <time>2019-04-26T12:22:53Z</time>
      </trkpt>
      <trkpt lat="44.44081" lon="5.79226">
        <ele>830.083</ele>
        <time>2019-04-26T12:23:05Z</time>
      </trkpt>
      <trkpt lat="44.44052" lon="5.79251">
        <ele>840.674</ele>
        <time>2019-04-26T12:23:15Z</time>
      </trkpt>
      <trkpt lat="44.44031" lon="5.79267">
        <ele>849.372</ele>
        <time>2019-04-26T12:23:26Z</time>
      </trkpt>
      <trkpt lat="44.44009" lon="5.79278">
        <ele>856.807</ele>
        <time>2019-04-26T12:23:37Z</time>
      </trkpt>
      <trkpt lat="44.4398" lon="5.7929">
        <ele>862.855</ele>
        <time>2019-04-26T12:23:48Z</time>
      </trkpt>
      <trkpt lat="44.43936" lon="5.79298">
        <ele>892.037</ele>
        <time>2019-04-26T12:23:59Z</time>
      </trkpt>
      <trkpt lat="44.4389" lon="5.79308">
        <ele>899.321</ele>
        <time>2019-04-26T12:24:10Z</time>
      </trkpt>
      <trkpt lat="44.43857" lon="5.79301">
        <ele>893.183</ele>
        <time>2019-04-26T12:24:21Z</time>
      </trkpt>
      <trkpt lat="44.43808" lon="5.79343">
        <ele>888.847</ele>
        <time>2019-04-26T12:24:31Z</time>
      </trkpt>
      <trkpt lat="44.43774" lon="5.79361">
        <ele>888.347</ele>
        <time>2019-04-26T12:24:43Z</time>
      </trkpt>
      <trkpt lat="44.43728" lon="5.79385">
        <ele>887.072</ele>
        <time>2019-04-26T12:24:54Z</time>
      </trkpt>
      <trkpt lat="44.43694" lon="5.79405">
        <ele>910.067</ele>
        <time>2019-04-26T12:25:06Z</time>
      </trkpt>
      <trkpt lat="44.43633" lon="5.79415">
        <ele>905.425</ele>
        <time>2019-04-26T12:25:16Z</time>
      </trkpt>
      <trkpt lat="44.43553" lon="5.79431">
        <ele>886.849</ele>
        <time>2019-04-26T12:25:26Z</time>
      </trkpt>
      <trkpt lat="44.4347" lon="5.79424">
        <ele>892.971</ele>
        <time>2019-04-26T12:25:37Z</time>
      </trkpt>
      <trkpt lat="44.4338" lon="5.79334">
        <ele>875.365</ele>
        <time>2019-04-26T12:25:48Z</time>
      </trkpt>
      <trkpt lat="44.4336" lon="5.79323">
        <ele>869.821</ele>
        <time>2019-04-26T12:25:58Z</time>
      </trkpt>
      <trkpt lat="44.43321" lon="5.79322">
        <ele>871.193</ele>
        <time>2019-04-26T12:26:08Z</time>
      </trkpt>
      <trkpt lat="44.43287" lon="5.79326">
        <ele>876.494</ele>
        <time>2019-04-26T12:26:19Z</time>
      </trkpt>
      <trkpt lat="44.43224" lon="5.79398">
        <ele>885.043</ele>
        <time>2019-04-26T12:26:30Z</time>
      </trkpt>
      <trkpt lat="44.43207" lon="5.79409">
        <ele>888.791</ele>
        <time>2019-04-26T12:26:42Z</time>
      </trkpt>
      <trkpt lat="44.43206" lon="5.79403">
        <ele>888.779</ele>
        <time>2019-04-26T12:26:53Z</time>
      </trkpt>
      <trkpt lat="44.43206" lon="5.79403">
        <ele>888.538</ele>
        <time>2019-04-26T12:27:03Z</time>
      </trkpt>
      <trkpt lat="44.43206" lon="5.79403">
        <ele>885.865</ele>
        <time>2019-04-26T12:27:14Z</time>
      </trkpt>
      <trkpt lat="44.43219" lon="5.7945">
        <ele>871.522</ele>
        <time>2019-04-26T12:27:26Z</time>
      </trkpt>
      <trkpt lat="44.43153" lon="5.79511">
        <ele>848.531</ele>
        <time>2019-04-26T12:27:37Z</time>
      </trkpt>
      <trkpt lat="44.43145" lon="5.79405">
        <ele>852.577</ele>
        <time>2019-04-26T12:27:47Z</time>
      </trkpt>
      <trkpt lat="44.43069" lon="5.79318">
        <ele>848.488</ele>
        <time>2019-04-26T12:27:57Z</time>
      </trkpt>
      <trkpt lat="44.43045" lon="5.79361">
        <ele>839.96</ele>
        <time>2019-04-26T12:28:08Z</time>
      </trkpt>
      <trkpt lat="44.43013" lon="5.79459">
        <ele>836.377</ele>
        <time>2019-04-26T12:28:21Z</time>
      </trkpt>
      <trkpt lat="44.4294" lon="5.79526">
        <ele>836.146</ele>
        <time>2019-04-26T12:28:31Z</time>
      </trkpt>
      <trkpt lat="44.42852" lon="5.79463">
        <ele>817.627</ele>
        <time>2019-04-26T12:28:42Z</time>
      </trkpt>
      <trkpt lat="44.42748" lon="5.79497">
        <ele>808.047</ele>
        <time>2019-04-26T12:28:53Z</time>
      </trkpt>
      <trkpt lat="44.42675" lon="5.79595">
        <ele>804.558</ele>
        <time>2019-04-26T12:29:04Z</time>
      </trkpt>
      <trkpt lat="44.42582" lon="5.79597">
        <ele>802.767</ele>
        <time>2019-04-26T12:29:15Z</time>
      </trkpt>
      <trkpt lat="44.42489" lon="5.79582">
        <ele>792.898</ele>
        <time>2019-04-26T12:29:26Z</time>
      </trkpt>
      <trkpt lat="44.42372" lon="5.7948">
        <ele>759.429</ele>
        <time>2019-04-26T12:29:38Z</time>
      </trkpt>
      <trkpt lat="44.42323" lon="5.79468">
        <ele>760.922</ele>
        <time>2019-04-26T12:29:48Z</time>
      </trkpt>
      <trkpt lat="44.42222" lon="5.79473">
        <ele>779.512</ele>
        <time>2019-04-26T12:29:59Z</time>
      </trkpt>
      <trkpt lat="44.42181" lon="5.79443">
        <ele>789.211</ele>
        <time>2019-04-26T12:30:09Z</time>
      </trkpt>
      <trkpt lat="44.42164" lon="5.79435">
        <ele>792.618</ele>
        <time>2019-04-26T12:30:20Z</time>
      </trkpt>
      <trkpt lat="44.42158" lon="5.79418">
        <ele>787.226</ele>
        <time>2019-04-26T12:30:30Z</time>
      </trkpt>
      <trkpt lat="44.42158" lon="5.79418">
        <ele>787.087</ele>
        <time>2019-04-26T12:30:40Z</time>
      </trkpt>
      <trkpt lat="44.42154" lon="5.79417">
        <ele>785.24</ele>
        <time>2019-04-26T12:30:51Z</time>
      </trkpt>
      <trkpt lat="44.4215" lon="5.79416">
        <ele>784.729</ele>
        <time>2019-04-26T12:31:01Z</time>
      </trkpt>
      <trkpt lat="44.42128" lon="5.79397">
        <ele>784.452</ele>
        <time>2019-04-26T12:31:11Z</time>
      </trkpt>
      <trkpt lat="44.42096" lon="5.79346">
        <ele>784.741</ele>
        <time>2019-04-26T12:31:22Z</time>
      </trkpt>
      <trkpt lat="44.4207" lon="5.79264">
        <ele>784.495</ele>
        <time>2019-04-26T12:31:32Z</time>
      </trkpt>
      <trkpt lat="44.42048" lon="5.79178">
        <ele>782.954</ele>
        <time>2019-04-26T12:31:42Z</time>
      </trkpt>
      <trkpt lat="44.42024" lon="5.7909">
        <ele>782.506</ele>
        <time>2019-04-26T12:31:53Z</time>
      </trkpt>
      <trkpt lat="44.42015" lon="5.79005">
        <ele>781.688</ele>
        <time>2019-04-26T12:32:04Z</time>
      </trkpt>
      <trkpt lat="44.42011" lon="5.78954">
        <ele>781.865</ele>
        <time>2019-04-26T12:32:14Z</time>
      </trkpt>
      <trkpt lat="44.42018" lon="5.78901">
        <ele>782.052</ele>
        <time>2019-04-26T12:32:25Z</time>
      </trkpt>
      <trkpt lat="44.42026" lon="5.7886">
        <ele>782.388</ele>
        <time>2019-04-26T12:32:35Z</time>
      </trkpt>
      <trkpt lat="44.42032" lon="5.78813">
        <ele>784.012</ele>
        <time>2019-04-26T12:32:45Z</time>
      </trkpt>
      <trkpt lat="44.42039" lon="5.78749">
        <ele>785.789</ele>
        <time>2019-04-26T12:32:56Z</time>
      </trkpt>
      <trkpt lat="44.42042" lon="5.78706">
        <ele>786.018</ele>
        <time>2019-04-26T12:33:06Z</time>
      </trkpt>
      <trkpt lat="44.42044" lon="5.78656">
        <ele>786.407</ele>
        <time>2019-04-26T12:33:17Z</time>
      </trkpt>
      <trkpt lat="44.42044" lon="5.78642">
        <ele>786.711</ele>
        <time>2019-04-26T12:33:27Z</time>
      </trkpt>
      <trkpt lat="44.42044" lon="5.78642">
        <ele>786.796</ele>
        <time>2019-04-26T12:33:38Z</time>
      </trkpt>
      <trkpt lat="44.42044" lon="5.78642">
        <ele>786.83</ele>
        <time>2019-04-26T12:33:49Z</time>
      </trkpt>
      <trkpt lat="44.4204" lon="5.78585">
        <ele>787.534</ele>
        <time>2019-04-26T12:33:59Z</time>
      </trkpt>
      <trkpt lat="44.42033" lon="5.78465">
        <ele>787.637</ele>
        <time>2019-04-26T12:34:09Z</time>
      </trkpt>
      <trkpt lat="44.42013" lon="5.78305">
        <ele>784.249</ele>
        <time>2019-04-26T12:34:20Z</time>
      </trkpt>
      <trkpt lat="44.42005" lon="5.78155">
        <ele>779.28</ele>
        <time>2019-04-26T12:34:31Z</time>
      </trkpt>
      <trkpt lat="44.42015" lon="5.78038">
        <ele>775.292</ele>
        <time>2019-04-26T12:34:41Z</time>
      </trkpt>
      <trkpt lat="44.42016" lon="5.77933">
        <ele>772.42</ele>
        <time>2019-04-26T12:34:51Z</time>
      </trkpt>
      <trkpt lat="44.41997" lon="5.77817">
        <ele>769.989</ele>
        <time>2019-04-26T12:35:01Z</time>
      </trkpt>
      <trkpt lat="44.41973" lon="5.77685">
        <ele>767.311</ele>
        <time>2019-04-26T12:35:12Z</time>
      </trkpt>
      <trkpt lat="44.41941" lon="5.77579">
        <ele>764.773</ele>
        <time>2019-04-26T12:35:23Z</time>
      </trkpt>
      <trkpt lat="44.41922" lon="5.7751">
        <ele>762.601</ele>
        <time>2019-04-26T12:35:34Z</time>
      </trkpt>
      <trkpt lat="44.41904" lon="5.77463">
        <ele>760.979</ele>
        <time>2019-04-26T12:35:44Z</time>
      </trkpt>
      <trkpt lat="44.41883" lon="5.7739">
        <ele>759.754</ele>
        <time>2019-04-26T12:35:55Z</time>
      </trkpt>
      <trkpt lat="44.41884" lon="5.77318">
        <ele>758.288</ele>
        <time>2019-04-26T12:36:05Z</time>
      </trkpt>
      <trkpt lat="44.41883" lon="5.77245">
        <ele>758.681</ele>
        <time>2019-04-26T12:36:16Z</time>
      </trkpt>
      <trkpt lat="44.41871" lon="5.77189">
        <ele>759.155</ele>
        <time>2019-04-26T12:36:26Z</time>
      </trkpt>
      <trkpt lat="44.41856" lon="5.77128">
        <ele>759.829</ele>
        <time>2019-04-26T12:36:37Z</time>
      </trkpt>
      <trkpt lat="44.41842" lon="5.77072">
        <ele>760.225</ele>
        <time>2019-04-26T12:36:47Z</time>
      </trkpt>
      <trkpt lat="44.41826" lon="5.77019">
        <ele>760.668</ele>
        <time>2019-04-26T12:36:57Z</time>
      </trkpt>
      <trkpt lat="44.41789" lon="5.76968">
        <ele>761.096</ele>
        <time>2019-04-26T12:37:08Z</time>
      </trkpt>
      <trkpt lat="44.41756" lon="5.76891">
        <ele>761.209</ele>
        <time>2019-04-26T12:37:19Z</time>
      </trkpt>
      <trkpt lat="44.41718" lon="5.76805">
        <ele>760.745</ele>
        <time>2019-04-26T12:37:29Z</time>
      </trkpt>
      <trkpt lat="44.41662" lon="5.76736">
        <ele>760.102</ele>
        <time>2019-04-26T12:37:40Z</time>
      </trkpt>
      <trkpt lat="44.4163" lon="5.76677">
        <ele>759.713</ele>
        <time>2019-04-26T12:37:51Z</time>
      </trkpt>
      <trkpt lat="44.41606" lon="5.76624">
        <ele>759.583</ele>
        <time>2019-04-26T12:38:02Z</time>
      </trkpt>
      <trkpt lat="44.41579" lon="5.76568">
        <ele>759.522</ele>
        <time>2019-04-26T12:38:13Z</time>
      </trkpt>
      <trkpt lat="44.41549" lon="5.76498">
        <ele>759.41</ele>
        <time>2019-04-26T12:38:24Z</time>
      </trkpt>
      <trkpt lat="44.41537" lon="5.76391">
        <ele>758.868</ele>
        <time>2019-04-26T12:38:34Z</time>
      </trkpt>
      <trkpt lat="44.41523" lon="5.76243">
        <ele>757.229</ele>
        <time>2019-04-26T12:38:45Z</time>
      </trkpt>
      <trkpt lat="44.41439" lon="5.76157">
        <ele>754.171</ele>
        <time>2019-04-26T12:38:55Z</time>
      </trkpt>
      <trkpt lat="44.41365" lon="5.76051">
        <ele>751.134</ele>
        <time>2019-04-26T12:39:06Z</time>
      </trkpt>
      <trkpt lat="44.4127" lon="5.76028">
        <ele>748.78</ele>
        <time>2019-04-26T12:39:17Z</time>
      </trkpt>
      <trkpt lat="44.41177" lon="5.75975">
        <ele>746.657</ele>
        <time>2019-04-26T12:39:28Z</time>
      </trkpt>
      <trkpt lat="44.411" lon="5.7589">
        <ele>745.155</ele>
        <time>2019-04-26T12:39:39Z</time>
      </trkpt>
      <trkpt lat="44.41037" lon="5.75814">
        <ele>744.346</ele>
        <time>2019-04-26T12:39:49Z</time>
      </trkpt>
      <trkpt lat="44.40977" lon="5.75713">
        <ele>743.127</ele>
        <time>2019-04-26T12:40:00Z</time>
      </trkpt>
      <trkpt lat="44.40903" lon="5.75617">
        <ele>741.525</ele>
        <time>2019-04-26T12:40:11Z</time>
      </trkpt>
      <trkpt lat="44.40843" lon="5.75508">
        <ele>739.871</ele>
        <time>2019-04-26T12:40:21Z</time>
      </trkpt>
      <trkpt lat="44.40768" lon="5.75401">
        <ele>737.849</ele>
        <time>2019-04-26T12:40:32Z</time>
      </trkpt>
      <trkpt lat="44.40702" lon="5.75335">
        <ele>735.276</ele>
        <time>2019-04-26T12:40:42Z</time>
      </trkpt>
      <trkpt lat="44.40656" lon="5.75271">
        <ele>732.47</ele>
        <time>2019-04-26T12:40:52Z</time>
      </trkpt>
      <trkpt lat="44.40623" lon="5.75187">
        <ele>729.952</ele>
        <time>2019-04-26T12:41:03Z</time>
      </trkpt>
      <trkpt lat="44.40593" lon="5.7511">
        <ele>728.242</ele>
        <time>2019-04-26T12:41:14Z</time>
      </trkpt>
      <trkpt lat="44.40567" lon="5.75041">
        <ele>726.68</ele>
        <time>2019-04-26T12:41:25Z</time>
      </trkpt>
      <trkpt lat="44.40548" lon="5.74977">
        <ele>725.48</ele>
        <time>2019-04-26T12:41:35Z</time>
      </trkpt>
      <trkpt lat="44.40543" lon="5.74914">
        <ele>724.495</ele>
        <time>2019-04-26T12:41:46Z</time>
      </trkpt>
      <trkpt lat="44.40539" lon="5.74861">
        <ele>724.194</ele>
        <time>2019-04-26T12:41:57Z</time>
      </trkpt>
      <trkpt lat="44.40532" lon="5.74798">
        <ele>723.152</ele>
        <time>2019-04-26T12:42:08Z</time>
      </trkpt>
      <trkpt lat="44.40527" lon="5.74726">
        <ele>723.278</ele>
        <time>2019-04-26T12:42:18Z</time>
      </trkpt>
      <trkpt lat="44.40525" lon="5.7464">
        <ele>723.862</ele>
        <time>2019-04-26T12:42:29Z</time>
      </trkpt>
      <trkpt lat="44.4052" lon="5.74587">
        <ele>723.915</ele>
        <time>2019-04-26T12:42:39Z</time>
      </trkpt>
      <trkpt lat="44.40518" lon="5.74541">
        <ele>723.832</ele>
        <time>2019-04-26T12:42:49Z</time>
      </trkpt>
      <trkpt lat="44.40516" lon="5.74491">
        <ele>723.919</ele>
        <time>2019-04-26T12:43:00Z</time>
      </trkpt>
      <trkpt lat="44.40522" lon="5.74444">
        <ele>724.244</ele>
        <time>2019-04-26T12:43:11Z</time>
      </trkpt>
      <trkpt lat="44.4053" lon="5.74408">
        <ele>724.511</ele>
        <time>2019-04-26T12:43:22Z</time>
      </trkpt>
      <trkpt lat="44.40541" lon="5.74344">
        <ele>724.432</ele>
        <time>2019-04-26T12:43:33Z</time>
      </trkpt>
      <trkpt lat="44.40552" lon="5.74251">
        <ele>724.389</ele>
        <time>2019-04-26T12:43:44Z</time>
      </trkpt>
      <trkpt lat="44.40544" lon="5.7415">
        <ele>724.041</ele>
        <time>2019-04-26T12:43:54Z</time>
      </trkpt>
      <trkpt lat="44.40537" lon="5.74049">
        <ele>723.35</ele>
        <time>2019-04-26T12:44:04Z</time>
      </trkpt>
      <trkpt lat="44.40529" lon="5.73946">
        <ele>722.373</ele>
        <time>2019-04-26T12:44:15Z</time>
      </trkpt>
      <trkpt lat="44.4053" lon="5.73859">
        <ele>721.494</ele>
        <time>2019-04-26T12:44:26Z</time>
      </trkpt>
      <trkpt lat="44.40535" lon="5.73776">
        <ele>720.786</ele>
        <time>2019-04-26T12:44:37Z</time>
      </trkpt>
      <trkpt lat="44.40542" lon="5.73694">
        <ele>720.073</ele>
        <time>2019-04-26T12:44:47Z</time>
      </trkpt>
      <trkpt lat="44.40557" lon="5.73615">
        <ele>719.174</ele>
        <time>2019-04-26T12:44:57Z</time>
      </trkpt>
      <trkpt lat="44.4057" lon="5.73527">
        <ele>718.672</ele>
        <time>2019-04-26T12:45:08Z</time>
      </trkpt>
      <trkpt lat="44.40547" lon="5.73428">
        <ele>718.006</ele>
        <time>2019-04-26T12:45:19Z</time>
      </trkpt>
      <trkpt lat="44.40525" lon="5.73334">
        <ele>717.555</ele>
        <time>2019-04-26T12:45:29Z</time>
      </trkpt>
      <trkpt lat="44.40499" lon="5.73239">
        <ele>717.025</ele>
        <time>2019-04-26T12:45:40Z</time>
      </trkpt>
      <trkpt lat="44.40479" lon="5.73162">
        <ele>716.635</ele>
        <time>2019-04-26T12:45:50Z</time>
      </trkpt>
      <trkpt lat="44.4046" lon="5.73086">
        <ele>716.212</ele>
        <time>2019-04-26T12:46:01Z</time>
      </trkpt>
      <trkpt lat="44.40429" lon="5.73092">
        <ele>715.22</ele>
        <time>2019-04-26T12:46:12Z</time>
      </trkpt>
      <trkpt lat="44.40384" lon="5.73126">
        <ele>713.597</ele>
        <time>2019-04-26T12:46:22Z</time>
      </trkpt>
      <trkpt lat="44.40331" lon="5.73164">
        <ele>712.125</ele>
        <time>2019-04-26T12:46:32Z</time>
      </trkpt>
      <trkpt lat="44.40268" lon="5.7321">
        <ele>710.708</ele>
        <time>2019-04-26T12:46:43Z</time>
      </trkpt>
      <trkpt lat="44.40256" lon="5.73213">
        <ele>710.408</ele>
        <time>2019-04-26T12:46:56Z</time>
      </trkpt>
      <trkpt lat="44.40256" lon="5.73213">
        <ele>710.249</ele>
        <time>2019-04-26T12:47:07Z</time>
      </trkpt>
      <trkpt lat="44.40256" lon="5.73213">
        <ele>710.158</ele>
        <time>2019-04-26T12:47:18Z</time>
      </trkpt>
      <trkpt lat="44.40257" lon="5.73211">
        <ele>709.905</ele>
        <time>2019-04-26T12:47:28Z</time>
      </trkpt>
      <trkpt lat="44.40242" lon="5.73162">
        <ele>708.408</ele>
        <time>2019-04-26T12:47:39Z</time>
      </trkpt>
      <trkpt lat="44.40229" lon="5.73104">
        <ele>707.903</ele>
        <time>2019-04-26T12:47:49Z</time>
      </trkpt>
      <trkpt lat="44.40217" lon="5.73048">
        <ele>707.806</ele>
        <time>2019-04-26T12:47:59Z</time>
      </trkpt>
      <trkpt lat="44.40199" lon="5.72992">
        <ele>707.703</ele>
        <time>2019-04-26T12:48:10Z</time>
      </trkpt>
      <trkpt lat="44.40201" lon="5.72993">
        <ele>707.771</ele>
        <time>2019-04-26T12:48:20Z</time>
      </trkpt>
      <trkpt lat="44.40201" lon="5.72993">
        <ele>707.718</ele>
        <time>2019-04-26T12:48:30Z</time>
      </trkpt>
      <trkpt lat="44.40197" lon="5.72987">
        <ele>707.347</ele>
        <time>2019-04-26T12:48:41Z</time>
      </trkpt>
      <trkpt lat="44.40152" lon="5.72936">
        <ele>704.032</ele>
        <time>2019-04-26T12:48:51Z</time>
      </trkpt>
      <trkpt lat="44.40097" lon="5.72916">
        <ele>702.736</ele>
        <time>2019-04-26T12:49:02Z</time>
      </trkpt>
      <trkpt lat="44.40051" lon="5.72948">
        <ele>700.978</ele>
        <time>2019-04-26T12:49:13Z</time>
      </trkpt>
      <trkpt lat="44.40031" lon="5.72969">
        <ele>701.364</ele>
        <time>2019-04-26T12:49:23Z</time>
      </trkpt>
      <trkpt lat="44.40031" lon="5.72969">
        <ele>701.386</ele>
        <time>2019-04-26T12:49:34Z</time>
      </trkpt>
      <trkpt lat="44.40031" lon="5.72969">
        <ele>701.424</ele>
        <time>2019-04-26T12:49:44Z</time>
      </trkpt>
      <trkpt lat="44.40031" lon="5.72969">
        <ele>701.488</ele>
        <time>2019-04-26T12:49:55Z</time>
      </trkpt>
      <trkpt lat="44.40031" lon="5.72969">
        <ele>701.553</ele>
        <time>2019-04-26T12:50:05Z</time>
      </trkpt>
      <trkpt lat="44.40031" lon="5.72969">
        <ele>701.746</ele>
        <time>2019-04-26T12:50:16Z</time>
      </trkpt>
      <trkpt lat="44.40031" lon="5.72969">
        <ele>701.807</ele>
        <time>2019-04-26T12:50:27Z</time>
      </trkpt>
      <trkpt lat="44.40029" lon="5.72972">
        <ele>701.991</ele>
        <time>2019-04-26T12:50:37Z</time>
      </trkpt>
      <trkpt lat="44.40005" lon="5.73">
        <ele>702.399</ele>
        <time>2019-04-26T12:50:48Z</time>
      </trkpt>
      <trkpt lat="44.39968" lon="5.73032">
        <ele>703.45</ele>
        <time>2019-04-26T12:50:59Z</time>
      </trkpt>
      <trkpt lat="44.39915" lon="5.73069">
        <ele>703.339</ele>
        <time>2019-04-26T12:51:10Z</time>
      </trkpt>
      <trkpt lat="44.39857" lon="5.73098">
        <ele>703.031</ele>
        <time>2019-04-26T12:51:20Z</time>
      </trkpt>
      <trkpt lat="44.398" lon="5.7315">
        <ele>702.146</ele>
        <time>2019-04-26T12:51:30Z</time>
      </trkpt>
      <trkpt lat="44.3974" lon="5.73151">
        <ele>700.486</ele>
        <time>2019-04-26T12:51:41Z</time>
      </trkpt>
      <trkpt lat="44.39715" lon="5.73083">
        <ele>699.157</ele>
        <time>2019-04-26T12:51:52Z</time>
      </trkpt>
      <trkpt lat="44.39693" lon="5.73019">
        <ele>698.206</ele>
        <time>2019-04-26T12:52:02Z</time>
      </trkpt>
      <trkpt lat="44.3966" lon="5.72926">
        <ele>697.273</ele>
        <time>2019-04-26T12:52:13Z</time>
      </trkpt>
      <trkpt lat="44.39616" lon="5.72891">
        <ele>696.326</ele>
        <time>2019-04-26T12:52:23Z</time>
      </trkpt>
      <trkpt lat="44.39559" lon="5.7295">
        <ele>695.266</ele>
        <time>2019-04-26T12:52:33Z</time>
      </trkpt>
      <trkpt lat="44.39462" lon="5.72999">
        <ele>693.982</ele>
        <time>2019-04-26T12:52:44Z</time>
      </trkpt>
      <trkpt lat="44.39358" lon="5.7305">
        <ele>692.526</ele>
        <time>2019-04-26T12:52:55Z</time>
      </trkpt>
      <trkpt lat="44.39265" lon="5.73085">
        <ele>690.529</ele>
        <time>2019-04-26T12:53:06Z</time>
      </trkpt>
      <trkpt lat="44.39191" lon="5.73078">
        <ele>688.579</ele>
        <time>2019-04-26T12:53:16Z</time>
      </trkpt>
      <trkpt lat="44.39125" lon="5.73018">
        <ele>686.758</ele>
        <time>2019-04-26T12:53:27Z</time>
      </trkpt>
      <trkpt lat="44.39071" lon="5.7299">
        <ele>686.124</ele>
        <time>2019-04-26T12:53:37Z</time>
      </trkpt>
      <trkpt lat="44.39003" lon="5.73013">
        <ele>685.566</ele>
        <time>2019-04-26T12:53:48Z</time>
      </trkpt>
      <trkpt lat="44.38934" lon="5.73073">
        <ele>684.443</ele>
        <time>2019-04-26T12:53:59Z</time>
      </trkpt>
      <trkpt lat="44.38867" lon="5.7313">
        <ele>684.19</ele>
        <time>2019-04-26T12:54:10Z</time>
      </trkpt>
      <trkpt lat="44.38803" lon="5.73168">
        <ele>684.494</ele>
        <time>2019-04-26T12:54:20Z</time>
      </trkpt>
      <trkpt lat="44.38741" lon="5.73215">
        <ele>683.807</ele>
        <time>2019-04-26T12:54:31Z</time>
      </trkpt>
      <trkpt lat="44.38684" lon="5.73261">
        <ele>684.027</ele>
        <time>2019-04-26T12:54:41Z</time>
      </trkpt>
      <trkpt lat="44.38621" lon="5.73305">
        <ele>683.651</ele>
        <time>2019-04-26T12:54:52Z</time>
      </trkpt>
      <trkpt lat="44.38578" lon="5.73331">
        <ele>682.44</ele>
        <time>2019-04-26T12:55:02Z</time>
      </trkpt>
      <trkpt lat="44.38546" lon="5.73348">
        <ele>682.318</ele>
        <time>2019-04-26T12:55:13Z</time>
      </trkpt>
      <trkpt lat="44.38523" lon="5.73346">
        <ele>683.065</ele>
        <time>2019-04-26T12:55:23Z</time>
      </trkpt>
      <trkpt lat="44.385" lon="5.7334">
        <ele>682.203</ele>
        <time>2019-04-26T12:55:34Z</time>
      </trkpt>
      <trkpt lat="44.38475" lon="5.73354">
        <ele>682.607</ele>
        <time>2019-04-26T12:55:45Z</time>
      </trkpt>
      <trkpt lat="44.38457" lon="5.73374">
        <ele>683.173</ele>
        <time>2019-04-26T12:55:56Z</time>
      </trkpt>
      <trkpt lat="44.38442" lon="5.73392">
        <ele>683.646</ele>
        <time>2019-04-26T12:56:06Z</time>
      </trkpt>
      <trkpt lat="44.38424" lon="5.73419">
        <ele>683.966</ele>
        <time>2019-04-26T12:56:17Z</time>
      </trkpt>
      <trkpt lat="44.38392" lon="5.73419">
        <ele>684.808</ele>
        <time>2019-04-26T12:56:27Z</time>
      </trkpt>
      <trkpt lat="44.38342" lon="5.73408">
        <ele>686.064</ele>
        <time>2019-04-26T12:56:37Z</time>
      </trkpt>
      <trkpt lat="44.3827" lon="5.73398">
        <ele>685.481</ele>
        <time>2019-04-26T12:56:48Z</time>
      </trkpt>
      <trkpt lat="44.38179" lon="5.73384">
        <ele>684.17</ele>
        <time>2019-04-26T12:56:59Z</time>
      </trkpt>
      <trkpt lat="44.38103" lon="5.73375">
        <ele>683.346</ele>
        <time>2019-04-26T12:57:10Z</time>
      </trkpt>
      <trkpt lat="44.38044" lon="5.73366">
        <ele>683.241</ele>
        <time>2019-04-26T12:57:21Z</time>
      </trkpt>
      <trkpt lat="44.37992" lon="5.73353">
        <ele>683.399</ele>
        <time>2019-04-26T12:57:31Z</time>
      </trkpt>
      <trkpt lat="44.37916" lon="5.73334">
        <ele>683.421</ele>
        <time>2019-04-26T12:57:42Z</time>
      </trkpt>
      <trkpt lat="44.37845" lon="5.73315">
        <ele>683.192</ele>
        <time>2019-04-26T12:57:52Z</time>
      </trkpt>
      <trkpt lat="44.37769" lon="5.73295">
        <ele>683.131</ele>
        <time>2019-04-26T12:58:03Z</time>
      </trkpt>
      <trkpt lat="44.37706" lon="5.73283">
        <ele>682.998</ele>
        <time>2019-04-26T12:58:13Z</time>
      </trkpt>
      <trkpt lat="44.37632" lon="5.73278">
        <ele>682.877</ele>
        <time>2019-04-26T12:58:24Z</time>
      </trkpt>
      <trkpt lat="44.37566" lon="5.73271">
        <ele>682.846</ele>
        <time>2019-04-26T12:58:35Z</time>
      </trkpt>
      <trkpt lat="44.37517" lon="5.73258">
        <ele>683.189</ele>
        <time>2019-04-26T12:58:45Z</time>
      </trkpt>
      <trkpt lat="44.3747" lon="5.73243">
        <ele>683.792</ele>
        <time>2019-04-26T12:58:56Z</time>
      </trkpt>
      <trkpt lat="44.37433" lon="5.73229">
        <ele>684.068</ele>
        <time>2019-04-26T12:59:06Z</time>
      </trkpt>
      <trkpt lat="44.37401" lon="5.73217">
        <ele>684.339</ele>
        <time>2019-04-26T12:59:17Z</time>
      </trkpt>
      <trkpt lat="44.37367" lon="5.73211">
        <ele>684.869</ele>
        <time>2019-04-26T12:59:28Z</time>
      </trkpt>
      <trkpt lat="44.37343" lon="5.73208">
        <ele>685.528</ele>
        <time>2019-04-26T12:59:38Z</time>
      </trkpt>
      <trkpt lat="44.37323" lon="5.73196">
        <ele>686.234</ele>
        <time>2019-04-26T12:59:48Z</time>
      </trkpt>
      <trkpt lat="44.37303" lon="5.73182">
        <ele>687.081</ele>
        <time>2019-04-26T12:59:59Z</time>
      </trkpt>
      <trkpt lat="44.37284" lon="5.73164">
        <ele>688.038</ele>
        <time>2019-04-26T13:00:10Z</time>
      </trkpt>
      <trkpt lat="44.37258" lon="5.73142">
        <ele>689.055</ele>
        <time>2019-04-26T13:00:21Z</time>
      </trkpt>
      <trkpt lat="44.37218" lon="5.73109">
        <ele>692.487</ele>
        <time>2019-04-26T13:00:32Z</time>
      </trkpt>
      <trkpt lat="44.37192" lon="5.73089">
        <ele>692.37</ele>
        <time>2019-04-26T13:00:42Z</time>
      </trkpt>
      <trkpt lat="44.37166" lon="5.73115">
        <ele>692.884</ele>
        <time>2019-04-26T13:00:53Z</time>
      </trkpt>
      <trkpt lat="44.37152" lon="5.73146">
        <ele>693.594</ele>
        <time>2019-04-26T13:01:03Z</time>
      </trkpt>
      <trkpt lat="44.37131" lon="5.73169">
        <ele>694.453</ele>
        <time>2019-04-26T13:01:14Z</time>
      </trkpt>
      <trkpt lat="44.37113" lon="5.73187">
        <ele>695.231</ele>
        <time>2019-04-26T13:01:24Z</time>
      </trkpt>
      <trkpt lat="44.3709" lon="5.73203">
        <ele>696.16</ele>
        <time>2019-04-26T13:01:35Z</time>
      </trkpt>
      <trkpt lat="44.37069" lon="5.73213">
        <ele>697.108</ele>
        <time>2019-04-26T13:01:45Z</time>
      </trkpt>
      <trkpt lat="44.3705" lon="5.73225">
        <ele>698.159</ele>
        <time>2019-04-26T13:01:55Z</time>
      </trkpt>
      <trkpt lat="44.37029" lon="5.73241">
        <ele>699.364</ele>
        <time>2019-04-26T13:02:06Z</time>
      </trkpt>
      <trkpt lat="44.37008" lon="5.73254">
        <ele>700.492</ele>
        <time>2019-04-26T13:02:16Z</time>
      </trkpt>
      <trkpt lat="44.36986" lon="5.73266">
        <ele>701.81</ele>
        <time>2019-04-26T13:02:27Z</time>
      </trkpt>
      <trkpt lat="44.36964" lon="5.73274">
        <ele>702.989</ele>
        <time>2019-04-26T13:02:37Z</time>
      </trkpt>
      <trkpt lat="44.3694" lon="5.73284">
        <ele>704.287</ele>
        <time>2019-04-26T13:02:48Z</time>
      </trkpt>
      <trkpt lat="44.36917" lon="5.73295">
        <ele>705.672</ele>
        <time>2019-04-26T13:02:59Z</time>
      </trkpt>
      <trkpt lat="44.36893" lon="5.73309">
        <ele>706.907</ele>
        <time>2019-04-26T13:03:10Z</time>
      </trkpt>
      <trkpt lat="44.36872" lon="5.73318">
        <ele>708.062</ele>
        <time>2019-04-26T13:03:20Z</time>
      </trkpt>
      <trkpt lat="44.36846" lon="5.73327">
        <ele>709.319</ele>
        <time>2019-04-26T13:03:31Z</time>
      </trkpt>
      <trkpt lat="44.36821" lon="5.7334">
        <ele>711.097</ele>
        <time>2019-04-26T13:03:42Z</time>
      </trkpt>
      <trkpt lat="44.368" lon="5.73357">
        <ele>712.899</ele>
        <time>2019-04-26T13:03:53Z</time>
      </trkpt>
      <trkpt lat="44.36777" lon="5.73373">
        <ele>714.75</ele>
        <time>2019-04-26T13:04:04Z</time>
      </trkpt>
      <trkpt lat="44.36757" lon="5.73388">
        <ele>716.336</ele>
        <time>2019-04-26T13:04:15Z</time>
      </trkpt>
      <trkpt lat="44.36737" lon="5.73403">
        <ele>717.565</ele>
        <time>2019-04-26T13:04:25Z</time>
      </trkpt>
      <trkpt lat="44.3672" lon="5.73422">
        <ele>718.95</ele>
        <time>2019-04-26T13:04:36Z</time>
      </trkpt>
      <trkpt lat="44.36703" lon="5.73439">
        <ele>720.353</ele>
        <time>2019-04-26T13:04:46Z</time>
      </trkpt>
      <trkpt lat="44.3669" lon="5.73422">
        <ele>722.188</ele>
        <time>2019-04-26T13:04:57Z</time>
      </trkpt>
      <trkpt lat="44.36689" lon="5.73424">
        <ele>722.794</ele>
        <time>2019-04-26T13:05:08Z</time>
      </trkpt>
      <trkpt lat="44.36688" lon="5.73424">
        <ele>722.955</ele>
        <time>2019-04-26T13:05:19Z</time>
      </trkpt>
      <trkpt lat="44.36688" lon="5.73424">
        <ele>723.105</ele>
        <time>2019-04-26T13:05:29Z</time>
      </trkpt>
      <trkpt lat="44.36688" lon="5.73424">
        <ele>723.265</ele>
        <time>2019-04-26T13:05:40Z</time>
      </trkpt>
      <trkpt lat="44.36688" lon="5.73425">
        <ele>723.421</ele>
        <time>2019-04-26T13:05:51Z</time>
      </trkpt>
      <trkpt lat="44.36688" lon="5.73425">
        <ele>723.576</ele>
        <time>2019-04-26T13:06:02Z</time>
      </trkpt>
      <trkpt lat="44.36688" lon="5.73425">
        <ele>723.726</ele>
        <time>2019-04-26T13:06:13Z</time>
      </trkpt>
      <trkpt lat="44.36688" lon="5.73425">
        <ele>723.86</ele>
        <time>2019-04-26T13:06:23Z</time>
      </trkpt>
      <trkpt lat="44.36688" lon="5.73425">
        <ele>724.017</ele>
        <time>2019-04-26T13:06:34Z</time>
      </trkpt>
      <trkpt lat="44.36688" lon="5.73425">
        <ele>724.202</ele>
        <time>2019-04-26T13:06:44Z</time>
      </trkpt>
      <trkpt lat="44.36688" lon="5.73426">
        <ele>724.449</ele>
        <time>2019-04-26T13:06:55Z</time>
      </trkpt>
      <trkpt lat="44.36689" lon="5.73427">
        <ele>724.701</ele>
        <time>2019-04-26T13:07:05Z</time>
      </trkpt>
      <trkpt lat="44.36689" lon="5.73424">
        <ele>725.26</ele>
        <time>2019-04-26T13:07:15Z</time>
      </trkpt>
      <trkpt lat="44.36695" lon="5.73416">
        <ele>726.016</ele>
        <time>2019-04-26T13:07:26Z</time>
      </trkpt>
      <trkpt lat="44.3672" lon="5.73406">
        <ele>726.66</ele>
        <time>2019-04-26T13:07:36Z</time>
      </trkpt>
      <trkpt lat="44.36743" lon="5.7338">
        <ele>727.65</ele>
        <time>2019-04-26T13:07:47Z</time>
      </trkpt>
      <trkpt lat="44.36764" lon="5.73358">
        <ele>728.638</ele>
        <time>2019-04-26T13:07:57Z</time>
      </trkpt>
      <trkpt lat="44.36784" lon="5.73334">
        <ele>729.65</ele>
        <time>2019-04-26T13:08:08Z</time>
      </trkpt>
      <trkpt lat="44.36799" lon="5.73306">
        <ele>730.48</ele>
        <time>2019-04-26T13:08:18Z</time>
      </trkpt>
      <trkpt lat="44.36789" lon="5.73274">
        <ele>731.361</ele>
        <time>2019-04-26T13:08:29Z</time>
      </trkpt>
      <trkpt lat="44.36768" lon="5.73249">
        <ele>732.083</ele>
        <time>2019-04-26T13:08:39Z</time>
      </trkpt>
      <trkpt lat="44.36743" lon="5.73218">
        <ele>732.781</ele>
        <time>2019-04-26T13:08:50Z</time>
      </trkpt>
      <trkpt lat="44.36715" lon="5.73185">
        <ele>734.088</ele>
        <time>2019-04-26T13:09:00Z</time>
      </trkpt>
      <trkpt lat="44.3667" lon="5.73133">
        <ele>736.202</ele>
        <time>2019-04-26T13:09:11Z</time>
      </trkpt>
      <trkpt lat="44.36601" lon="5.73036">
        <ele>734.189</ele>
        <time>2019-04-26T13:09:22Z</time>
      </trkpt>
      <trkpt lat="44.36552" lon="5.72913">
        <ele>731.296</ele>
        <time>2019-04-26T13:09:32Z</time>
      </trkpt>
      <trkpt lat="44.36472" lon="5.72803">
        <ele>728.058</ele>
        <time>2019-04-26T13:09:43Z</time>
      </trkpt>
      <trkpt lat="44.36393" lon="5.72713">
        <ele>725.136</ele>
        <time>2019-04-26T13:09:53Z</time>
      </trkpt>
      <trkpt lat="44.36301" lon="5.72667">
        <ele>722.755</ele>
        <time>2019-04-26T13:10:04Z</time>
      </trkpt>
      <trkpt lat="44.36222" lon="5.72614">
        <ele>720.811</ele>
        <time>2019-04-26T13:10:14Z</time>
      </trkpt>
      <trkpt lat="44.36155" lon="5.7253">
        <ele>718.63</ele>
        <time>2019-04-26T13:10:24Z</time>
      </trkpt>
      <trkpt lat="44.36094" lon="5.72462">
        <ele>716.879</ele>
        <time>2019-04-26T13:10:34Z</time>
      </trkpt>
      <trkpt lat="44.36051" lon="5.72398">
        <ele>715.917</ele>
        <time>2019-04-26T13:10:44Z</time>
      </trkpt>
      <trkpt lat="44.36007" lon="5.72345">
        <ele>714.946</ele>
        <time>2019-04-26T13:10:54Z</time>
      </trkpt>
      <trkpt lat="44.35946" lon="5.72307">
        <ele>714.261</ele>
        <time>2019-04-26T13:11:05Z</time>
      </trkpt>
      <trkpt lat="44.35877" lon="5.72287">
        <ele>714.456</ele>
        <time>2019-04-26T13:11:15Z</time>
      </trkpt>
      <trkpt lat="44.35788" lon="5.72261">
        <ele>713.682</ele>
        <time>2019-04-26T13:11:26Z</time>
      </trkpt>
      <trkpt lat="44.35708" lon="5.72209">
        <ele>712.485</ele>
        <time>2019-04-26T13:11:36Z</time>
      </trkpt>
      <trkpt lat="44.35624" lon="5.72148">
        <ele>710.929</ele>
        <time>2019-04-26T13:11:46Z</time>
      </trkpt>
      <trkpt lat="44.35592" lon="5.72076">
        <ele>709.056</ele>
        <time>2019-04-26T13:11:56Z</time>
      </trkpt>
      <trkpt lat="44.35593" lon="5.72003">
        <ele>707.754</ele>
        <time>2019-04-26T13:12:06Z</time>
      </trkpt>
      <trkpt lat="44.35593" lon="5.71988">
        <ele>707.447</ele>
        <time>2019-04-26T13:12:17Z</time>
      </trkpt>
      <trkpt lat="44.35593" lon="5.71988">
        <ele>707.299</ele>
        <time>2019-04-26T13:12:28Z</time>
      </trkpt>
      <trkpt lat="44.35586" lon="5.72014">
        <ele>704.997</ele>
        <time>2019-04-26T13:12:39Z</time>
      </trkpt>
      <trkpt lat="44.35591" lon="5.72094">
        <ele>703.517</ele>
        <time>2019-04-26T13:12:49Z</time>
      </trkpt>
      <trkpt lat="44.35591" lon="5.72182">
        <ele>702.819</ele>
        <time>2019-04-26T13:13:00Z</time>
      </trkpt>
      <trkpt lat="44.35594" lon="5.72274">
        <ele>702.099</ele>
        <time>2019-04-26T13:13:11Z</time>
      </trkpt>
      <trkpt lat="44.35598" lon="5.72356">
        <ele>701.527</ele>
        <time>2019-04-26T13:13:21Z</time>
      </trkpt>
      <trkpt lat="44.35602" lon="5.72449">
        <ele>700.603</ele>
        <time>2019-04-26T13:13:32Z</time>
      </trkpt>
      <trkpt lat="44.35606" lon="5.72544">
        <ele>699.601</ele>
        <time>2019-04-26T13:13:43Z</time>
      </trkpt>
      <trkpt lat="44.35608" lon="5.72636">
        <ele>698.733</ele>
        <time>2019-04-26T13:13:54Z</time>
      </trkpt>
      <trkpt lat="44.35611" lon="5.72719">
        <ele>697.903</ele>
        <time>2019-04-26T13:14:04Z</time>
      </trkpt>
      <trkpt lat="44.35615" lon="5.72812">
        <ele>696.761</ele>
        <time>2019-04-26T13:14:14Z</time>
      </trkpt>
      <trkpt lat="44.35612" lon="5.72903">
        <ele>695.745</ele>
        <time>2019-04-26T13:14:25Z</time>
      </trkpt>
      <trkpt lat="44.35587" lon="5.7297">
        <ele>695.068</ele>
        <time>2019-04-26T13:14:35Z</time>
      </trkpt>
      <trkpt lat="44.35553" lon="5.73055">
        <ele>694.29</ele>
        <time>2019-04-26T13:14:46Z</time>
      </trkpt>
      <trkpt lat="44.35515" lon="5.73149">
        <ele>693.33</ele>
        <time>2019-04-26T13:14:57Z</time>
      </trkpt>
      <trkpt lat="44.35474" lon="5.73249">
        <ele>692.215</ele>
        <time>2019-04-26T13:15:08Z</time>
      </trkpt>
      <trkpt lat="44.35432" lon="5.73352">
        <ele>690.997</ele>
        <time>2019-04-26T13:15:19Z</time>
      </trkpt>
      <trkpt lat="44.35394" lon="5.7345">
        <ele>689.8</ele>
        <time>2019-04-26T13:15:29Z</time>
      </trkpt>
      <trkpt lat="44.35352" lon="5.73554">
        <ele>688.647</ele>
        <time>2019-04-26T13:15:40Z</time>
      </trkpt>
      <trkpt lat="44.35313" lon="5.73651">
        <ele>687.612</ele>
        <time>2019-04-26T13:15:51Z</time>
      </trkpt>
      <trkpt lat="44.35278" lon="5.73739">
        <ele>686.778</ele>
        <time>2019-04-26T13:16:01Z</time>
      </trkpt>
      <trkpt lat="44.35239" lon="5.73836">
        <ele>685.709</ele>
        <time>2019-04-26T13:16:12Z</time>
      </trkpt>
      <trkpt lat="44.35198" lon="5.73938">
        <ele>684.708</ele>
        <time>2019-04-26T13:16:23Z</time>
      </trkpt>
      <trkpt lat="44.3516" lon="5.74032">
        <ele>683.647</ele>
        <time>2019-04-26T13:16:33Z</time>
      </trkpt>
      <trkpt lat="44.35122" lon="5.74129">
        <ele>682.583</ele>
        <time>2019-04-26T13:16:43Z</time>
      </trkpt>
      <trkpt lat="44.3508" lon="5.74234">
        <ele>681.396</ele>
        <time>2019-04-26T13:16:54Z</time>
      </trkpt>
      <trkpt lat="44.35042" lon="5.74331">
        <ele>680.07</ele>
        <time>2019-04-26T13:17:05Z</time>
      </trkpt>
      <trkpt lat="44.35008" lon="5.74418">
        <ele>678.889</ele>
        <time>2019-04-26T13:17:16Z</time>
      </trkpt>
      <trkpt lat="44.34971" lon="5.7451">
        <ele>677.863</ele>
        <time>2019-04-26T13:17:27Z</time>
      </trkpt>
      <trkpt lat="44.34937" lon="5.74595">
        <ele>677.084</ele>
        <time>2019-04-26T13:17:37Z</time>
      </trkpt>
      <trkpt lat="44.34901" lon="5.74686">
        <ele>676.372</ele>
        <time>2019-04-26T13:17:48Z</time>
      </trkpt>
      <trkpt lat="44.34866" lon="5.74774">
        <ele>675.798</ele>
        <time>2019-04-26T13:17:58Z</time>
      </trkpt>
      <trkpt lat="44.34826" lon="5.74871">
        <ele>675.098</ele>
        <time>2019-04-26T13:18:09Z</time>
      </trkpt>
      <trkpt lat="44.34791" lon="5.7496">
        <ele>674.322</ele>
        <time>2019-04-26T13:18:19Z</time>
      </trkpt>
      <trkpt lat="44.34751" lon="5.7506">
        <ele>673.403</ele>
        <time>2019-04-26T13:18:30Z</time>
      </trkpt>
      <trkpt lat="44.34708" lon="5.75166">
        <ele>672.355</ele>
        <time>2019-04-26T13:18:41Z</time>
      </trkpt>
      <trkpt lat="44.34666" lon="5.75271">
        <ele>671.253</ele>
        <time>2019-04-26T13:18:52Z</time>
      </trkpt>
      <trkpt lat="44.34625" lon="5.75376">
        <ele>670.29</ele>
        <time>2019-04-26T13:19:03Z</time>
      </trkpt>
      <trkpt lat="44.34585" lon="5.75473">
        <ele>669.31</ele>
        <time>2019-04-26T13:19:14Z</time>
      </trkpt>
      <trkpt lat="44.34546" lon="5.75571">
        <ele>668.095</ele>
        <time>2019-04-26T13:19:25Z</time>
      </trkpt>
      <trkpt lat="44.34507" lon="5.75671">
        <ele>666.871</ele>
        <time>2019-04-26T13:19:36Z</time>
      </trkpt>
      <trkpt lat="44.34473" lon="5.75756">
        <ele>665.771</ele>
        <time>2019-04-26T13:19:46Z</time>
      </trkpt>
      <trkpt lat="44.34435" lon="5.75849">
        <ele>664.537</ele>
        <time>2019-04-26T13:19:57Z</time>
      </trkpt>
      <trkpt lat="44.34406" lon="5.75953">
        <ele>663.38</ele>
        <time>2019-04-26T13:20:08Z</time>
      </trkpt>
      <trkpt lat="44.34406" lon="5.76069">
        <ele>662.254</ele>
        <time>2019-04-26T13:20:19Z</time>
      </trkpt>
      <trkpt lat="44.34393" lon="5.7619">
        <ele>660.7</ele>
        <time>2019-04-26T13:20:30Z</time>
      </trkpt>
      <trkpt lat="44.34306" lon="5.76159">
        <ele>658.871</ele>
        <time>2019-04-26T13:20:41Z</time>
      </trkpt>
      <trkpt lat="44.34241" lon="5.76148">
        <ele>657.375</ele>
        <time>2019-04-26T13:20:52Z</time>
      </trkpt>
      <trkpt lat="44.34194" lon="5.76187">
        <ele>656.07</ele>
        <time>2019-04-26T13:21:03Z</time>
      </trkpt>
      <trkpt lat="44.3416" lon="5.7627">
        <ele>654.715</ele>
        <time>2019-04-26T13:21:13Z</time>
      </trkpt>
      <trkpt lat="44.34122" lon="5.76347">
        <ele>653.245</ele>
        <time>2019-04-26T13:21:24Z</time>
      </trkpt>
      <trkpt lat="44.34094" lon="5.76292">
        <ele>651.362</ele>
        <time>2019-04-26T13:21:35Z</time>
      </trkpt>
      <trkpt lat="44.34071" lon="5.76248">
        <ele>651.165</ele>
        <time>2019-04-26T13:21:45Z</time>
      </trkpt>
      <trkpt lat="44.34051" lon="5.76206">
        <ele>651.328</ele>
        <time>2019-04-26T13:21:56Z</time>
      </trkpt>
      <trkpt lat="44.34025" lon="5.76153">
        <ele>651.671</ele>
        <time>2019-04-26T13:22:07Z</time>
      </trkpt>
      <trkpt lat="44.33997" lon="5.76097">
        <ele>652.25</ele>
        <time>2019-04-26T13:22:18Z</time>
      </trkpt>
      <trkpt lat="44.33967" lon="5.76035">
        <ele>652.75</ele>
        <time>2019-04-26T13:22:29Z</time>
      </trkpt>
      <trkpt lat="44.33937" lon="5.75975">
        <ele>653.218</ele>
        <time>2019-04-26T13:22:40Z</time>
      </trkpt>
      <trkpt lat="44.3391" lon="5.75918">
        <ele>653.744</ele>
        <time>2019-04-26T13:22:51Z</time>
      </trkpt>
      <trkpt lat="44.33885" lon="5.75866">
        <ele>654.427</ele>
        <time>2019-04-26T13:23:02Z</time>
      </trkpt>
      <trkpt lat="44.33862" lon="5.75828">
        <ele>654.589</ele>
        <time>2019-04-26T13:23:12Z</time>
      </trkpt>
      <trkpt lat="44.33836" lon="5.75788">
        <ele>654.914</ele>
        <time>2019-04-26T13:23:23Z</time>
      </trkpt>
      <trkpt lat="44.33834" lon="5.75785">
        <ele>655.108</ele>
        <time>2019-04-26T13:23:33Z</time>
      </trkpt>
      <trkpt lat="44.33842" lon="5.75786">
        <ele>655.532</ele>
        <time>2019-04-26T13:23:44Z</time>
      </trkpt>
      <trkpt lat="44.33845" lon="5.75784">
        <ele>655.778</ele>
        <time>2019-04-26T13:23:55Z</time>
      </trkpt>
      <trkpt lat="44.33845" lon="5.75784">
        <ele>655.828</ele>
        <time>2019-04-26T13:24:06Z</time>
      </trkpt>
      <trkpt lat="44.33845" lon="5.75784">
        <ele>655.866</ele>
        <time>2019-04-26T13:24:16Z</time>
      </trkpt>
      <trkpt lat="44.33845" lon="5.75784">
        <ele>655.895</ele>
        <time>2019-04-26T13:24:27Z</time>
      </trkpt>
      <trkpt lat="44.33845" lon="5.75784">
        <ele>655.921</ele>
        <time>2019-04-26T13:24:37Z</time>
      </trkpt>
      <trkpt lat="44.33845" lon="5.75784">
        <ele>655.952</ele>
        <time>2019-04-26T13:24:48Z</time>
      </trkpt>
      <trkpt lat="44.33845" lon="5.75784">
        <ele>656.007</ele>
        <time>2019-04-26T13:24:58Z</time>
      </trkpt>
      <trkpt lat="44.33845" lon="5.75784">
        <ele>656.031</ele>
        <time>2019-04-26T13:25:09Z</time>
      </trkpt>
      <trkpt lat="44.33845" lon="5.75784">
        <ele>656.031</ele>
        <time>2019-04-26T13:25:19Z</time>
      </trkpt>
      <trkpt lat="44.33845" lon="5.75784">
        <ele>655.977</ele>
        <time>2019-04-26T13:25:30Z</time>
      </trkpt>
      <trkpt lat="44.33845" lon="5.75784">
        <ele>655.941</ele>
        <time>2019-04-26T13:25:40Z</time>
      </trkpt>
      <trkpt lat="44.33845" lon="5.75784">
        <ele>655.893</ele>
        <time>2019-04-26T13:25:50Z</time>
      </trkpt>
      <trkpt lat="44.33845" lon="5.75784">
        <ele>655.847</ele>
        <time>2019-04-26T13:26:01Z</time>
      </trkpt>
      <trkpt lat="44.33845" lon="5.75784">
        <ele>655.813</ele>
        <time>2019-04-26T13:26:11Z</time>
      </trkpt>
      <trkpt lat="44.33845" lon="5.75782">
        <ele>655.783</ele>
        <time>2019-04-26T13:26:22Z</time>
      </trkpt>
      <trkpt lat="44.33844" lon="5.75782">
        <ele>655.72</ele>
        <time>2019-04-26T13:26:32Z</time>
      </trkpt>
      <trkpt lat="44.33845" lon="5.75781">
        <ele>655.729</ele>
        <time>2019-04-26T13:26:44Z</time>
      </trkpt>
      <trkpt lat="44.33847" lon="5.7578">
        <ele>655.672</ele>
        <time>2019-04-26T13:26:54Z</time>
      </trkpt>
      <trkpt lat="44.33847" lon="5.75781">
        <ele>655.609</ele>
        <time>2019-04-26T13:27:04Z</time>
      </trkpt>
      <trkpt lat="44.33847" lon="5.75781">
        <ele>655.546</ele>
        <time>2019-04-26T13:27:15Z</time>
      </trkpt>
      <trkpt lat="44.33846" lon="5.75781">
        <ele>655.472</ele>
        <time>2019-04-26T13:27:26Z</time>
      </trkpt>
      <trkpt lat="44.33846" lon="5.75781">
        <ele>655.251</ele>
        <time>2019-04-26T13:27:37Z</time>
      </trkpt>
      <trkpt lat="44.33846" lon="5.7578">
        <ele>655.076</ele>
        <time>2019-04-26T13:27:48Z</time>
      </trkpt>
      <trkpt lat="44.33846" lon="5.75781">
        <ele>654.98</ele>
        <time>2019-04-26T13:27:58Z</time>
      </trkpt>
      <trkpt lat="44.33846" lon="5.75781">
        <ele>654.934</ele>
        <time>2019-04-26T13:28:08Z</time>
      </trkpt>
      <trkpt lat="44.33846" lon="5.75781">
        <ele>654.931</ele>
        <time>2019-04-26T13:28:19Z</time>
      </trkpt>
      <trkpt lat="44.33845" lon="5.75782">
        <ele>654.942</ele>
        <time>2019-04-26T13:28:29Z</time>
      </trkpt>
      <trkpt lat="44.33845" lon="5.75782">
        <ele>654.946</ele>
        <time>2019-04-26T13:28:40Z</time>
      </trkpt>
      <trkpt lat="44.33845" lon="5.75782">
        <ele>654.951</ele>
        <time>2019-04-26T13:28:51Z</time>
      </trkpt>
      <trkpt lat="44.33845" lon="5.75781">
        <ele>654.93</ele>
        <time>2019-04-26T13:29:02Z</time>
      </trkpt>
      <trkpt lat="44.33844" lon="5.75781">
        <ele>654.885</ele>
        <time>2019-04-26T13:29:13Z</time>
      </trkpt>
      <trkpt lat="44.33844" lon="5.75781">
        <ele>654.895</ele>
        <time>2019-04-26T13:29:24Z</time>
      </trkpt>
      <trkpt lat="44.33845" lon="5.75782">
        <ele>655.068</ele>
        <time>2019-04-26T13:29:35Z</time>
      </trkpt>
      <trkpt lat="44.33816" lon="5.7577">
        <ele>655.473</ele>
        <time>2019-04-26T13:29:45Z</time>
      </trkpt>
      <trkpt lat="44.33776" lon="5.75726">
        <ele>658.184</ele>
        <time>2019-04-26T13:29:56Z</time>
      </trkpt>
      <trkpt lat="44.33739" lon="5.75686">
        <ele>658.256</ele>
        <time>2019-04-26T13:30:06Z</time>
      </trkpt>
      <trkpt lat="44.33701" lon="5.75623">
        <ele>658.62</ele>
        <time>2019-04-26T13:30:17Z</time>
      </trkpt>
      <trkpt lat="44.33669" lon="5.75541">
        <ele>659.785</ele>
        <time>2019-04-26T13:30:28Z</time>
      </trkpt>
      <trkpt lat="44.33628" lon="5.75479">
        <ele>660.326</ele>
        <time>2019-04-26T13:30:39Z</time>
      </trkpt>
      <trkpt lat="44.3358" lon="5.75439">
        <ele>660.433</ele>
        <time>2019-04-26T13:30:50Z</time>
      </trkpt>
      <trkpt lat="44.33549" lon="5.75403">
        <ele>660.581</ele>
        <time>2019-04-26T13:31:01Z</time>
      </trkpt>
      <trkpt lat="44.33522" lon="5.75372">
        <ele>660.839</ele>
        <time>2019-04-26T13:31:12Z</time>
      </trkpt>
      <trkpt lat="44.33496" lon="5.75341">
        <ele>661.22</ele>
        <time>2019-04-26T13:31:23Z</time>
      </trkpt>
      <trkpt lat="44.33472" lon="5.75313">
        <ele>661.686</ele>
        <time>2019-04-26T13:31:33Z</time>
      </trkpt>
      <trkpt lat="44.33446" lon="5.75285">
        <ele>662.29</ele>
        <time>2019-04-26T13:31:43Z</time>
      </trkpt>
      <trkpt lat="44.33413" lon="5.75253">
        <ele>664.895</ele>
        <time>2019-04-26T13:31:54Z</time>
      </trkpt>
      <trkpt lat="44.33373" lon="5.75221">
        <ele>666.859</ele>
        <time>2019-04-26T13:32:05Z</time>
      </trkpt>
      <trkpt lat="44.33323" lon="5.75186">
        <ele>667.621</ele>
        <time>2019-04-26T13:32:16Z</time>
      </trkpt>
      <trkpt lat="44.33267" lon="5.75146">
        <ele>668.062</ele>
        <time>2019-04-26T13:32:26Z</time>
      </trkpt>
      <trkpt lat="44.3321" lon="5.75105">
        <ele>668.56</ele>
        <time>2019-04-26T13:32:37Z</time>
      </trkpt>
      <trkpt lat="44.33169" lon="5.75075">
        <ele>669.425</ele>
        <time>2019-04-26T13:32:48Z</time>
      </trkpt>
      <trkpt lat="44.33137" lon="5.75046">
        <ele>670.624</ele>
        <time>2019-04-26T13:32:58Z</time>
      </trkpt>
      <trkpt lat="44.33112" lon="5.74999">
        <ele>671.742</ele>
        <time>2019-04-26T13:33:09Z</time>
      </trkpt>
      <trkpt lat="44.3309" lon="5.74947">
        <ele>672.561</ele>
        <time>2019-04-26T13:33:19Z</time>
      </trkpt>
      <trkpt lat="44.33066" lon="5.74889">
        <ele>673.234</ele>
        <time>2019-04-26T13:33:30Z</time>
      </trkpt>
      <trkpt lat="44.33029" lon="5.74837">
        <ele>673.711</ele>
        <time>2019-04-26T13:33:41Z</time>
      </trkpt>
      <trkpt lat="44.32986" lon="5.7479">
        <ele>674.099</ele>
        <time>2019-04-26T13:33:52Z</time>
      </trkpt>
      <trkpt lat="44.32939" lon="5.74742">
        <ele>674.455</ele>
        <time>2019-04-26T13:34:03Z</time>
      </trkpt>
      <trkpt lat="44.32894" lon="5.74693">
        <ele>675.12</ele>
        <time>2019-04-26T13:34:14Z</time>
      </trkpt>
      <trkpt lat="44.32854" lon="5.7465">
        <ele>675.89</ele>
        <time>2019-04-26T13:34:25Z</time>
      </trkpt>
      <trkpt lat="44.32816" lon="5.74609">
        <ele>676.785</ele>
        <time>2019-04-26T13:34:36Z</time>
      </trkpt>
      <trkpt lat="44.32768" lon="5.7457">
        <ele>677.518</ele>
        <time>2019-04-26T13:34:47Z</time>
      </trkpt>
      <trkpt lat="44.32717" lon="5.7454">
        <ele>678.165</ele>
        <time>2019-04-26T13:34:58Z</time>
      </trkpt>
      <trkpt lat="44.32679" lon="5.74505">
        <ele>678.753</ele>
        <time>2019-04-26T13:35:09Z</time>
      </trkpt>
      <trkpt lat="44.32653" lon="5.74469">
        <ele>679.282</ele>
        <time>2019-04-26T13:35:19Z</time>
      </trkpt>
      <trkpt lat="44.32624" lon="5.74428">
        <ele>680.074</ele>
        <time>2019-04-26T13:35:30Z</time>
      </trkpt>
      <trkpt lat="44.32595" lon="5.74386">
        <ele>680.498</ele>
        <time>2019-04-26T13:35:41Z</time>
      </trkpt>
      <trkpt lat="44.32566" lon="5.74346">
        <ele>680.958</ele>
        <time>2019-04-26T13:35:51Z</time>
      </trkpt>
      <trkpt lat="44.32532" lon="5.74303">
        <ele>681.168</ele>
        <time>2019-04-26T13:36:01Z</time>
      </trkpt>
      <trkpt lat="44.32495" lon="5.74257">
        <ele>681.825</ele>
        <time>2019-04-26T13:36:12Z</time>
      </trkpt>
      <trkpt lat="44.3246" lon="5.74207">
        <ele>682.337</ele>
        <time>2019-04-26T13:36:22Z</time>
      </trkpt>
      <trkpt lat="44.32422" lon="5.74135">
        <ele>682.466</ele>
        <time>2019-04-26T13:36:32Z</time>
      </trkpt>
      <trkpt lat="44.3238" lon="5.74057">
        <ele>682.48</ele>
        <time>2019-04-26T13:36:42Z</time>
      </trkpt>
      <trkpt lat="44.32346" lon="5.73993">
        <ele>682.87</ele>
        <time>2019-04-26T13:36:53Z</time>
      </trkpt>
      <trkpt lat="44.32324" lon="5.73953">
        <ele>683.004</ele>
        <time>2019-04-26T13:37:04Z</time>
      </trkpt>
      <trkpt lat="44.32308" lon="5.73918">
        <ele>683.249</ele>
        <time>2019-04-26T13:37:14Z</time>
      </trkpt>
      <trkpt lat="44.32292" lon="5.73877">
        <ele>683.559</ele>
        <time>2019-04-26T13:37:24Z</time>
      </trkpt>
      <trkpt lat="44.32273" lon="5.73826">
        <ele>685.335</ele>
        <time>2019-04-26T13:37:35Z</time>
      </trkpt>
      <trkpt lat="44.32254" lon="5.73772">
        <ele>686.498</ele>
        <time>2019-04-26T13:37:46Z</time>
      </trkpt>
      <trkpt lat="44.32234" lon="5.73716">
        <ele>687.351</ele>
        <time>2019-04-26T13:37:57Z</time>
      </trkpt>
      <trkpt lat="44.32212" lon="5.73653">
        <ele>688.003</ele>
        <time>2019-04-26T13:38:08Z</time>
      </trkpt>
      <trkpt lat="44.3219" lon="5.73589">
        <ele>688.426</ele>
        <time>2019-04-26T13:38:19Z</time>
      </trkpt>
      <trkpt lat="44.32168" lon="5.73528">
        <ele>689.066</ele>
        <time>2019-04-26T13:38:30Z</time>
      </trkpt>
      <trkpt lat="44.32145" lon="5.73463">
        <ele>689.81</ele>
        <time>2019-04-26T13:38:41Z</time>
      </trkpt>
      <trkpt lat="44.32121" lon="5.73398">
        <ele>690.464</ele>
        <time>2019-04-26T13:38:52Z</time>
      </trkpt>
      <trkpt lat="44.32099" lon="5.7333">
        <ele>691.011</ele>
        <time>2019-04-26T13:39:03Z</time>
      </trkpt>
      <trkpt lat="44.32076" lon="5.73256">
        <ele>691.422</ele>
        <time>2019-04-26T13:39:13Z</time>
      </trkpt>
      <trkpt lat="44.32065" lon="5.73174">
        <ele>691.707</ele>
        <time>2019-04-26T13:39:24Z</time>
      </trkpt>
      <trkpt lat="44.32054" lon="5.73097">
        <ele>692.163</ele>
        <time>2019-04-26T13:39:35Z</time>
      </trkpt>
      <trkpt lat="44.32045" lon="5.7302">
        <ele>692.608</ele>
        <time>2019-04-26T13:39:46Z</time>
      </trkpt>
      <trkpt lat="44.32034" lon="5.72949">
        <ele>693.054</ele>
        <time>2019-04-26T13:39:57Z</time>
      </trkpt>
      <trkpt lat="44.32026" lon="5.72881">
        <ele>693.593</ele>
        <time>2019-04-26T13:40:08Z</time>
      </trkpt>
      <trkpt lat="44.32019" lon="5.72826">
        <ele>693.851</ele>
        <time>2019-04-26T13:40:18Z</time>
      </trkpt>
      <trkpt lat="44.32013" lon="5.72776">
        <ele>693.982</ele>
        <time>2019-04-26T13:40:28Z</time>
      </trkpt>
      <trkpt lat="44.32007" lon="5.72725">
        <ele>694.147</ele>
        <time>2019-04-26T13:40:39Z</time>
      </trkpt>
      <trkpt lat="44.32" lon="5.72677">
        <ele>694.418</ele>
        <time>2019-04-26T13:40:50Z</time>
      </trkpt>
      <trkpt lat="44.31993" lon="5.72629">
        <ele>694.805</ele>
        <time>2019-04-26T13:41:01Z</time>
      </trkpt>
      <trkpt lat="44.31985" lon="5.72575">
        <ele>695.327</ele>
        <time>2019-04-26T13:41:12Z</time>
      </trkpt>
      <trkpt lat="44.31969" lon="5.72522">
        <ele>698.204</ele>
        <time>2019-04-26T13:41:23Z</time>
      </trkpt>
      <trkpt lat="44.31947" lon="5.72473">
        <ele>699.331</ele>
        <time>2019-04-26T13:41:33Z</time>
      </trkpt>
      <trkpt lat="44.31922" lon="5.72421">
        <ele>700.04</ele>
        <time>2019-04-26T13:41:43Z</time>
      </trkpt>
      <trkpt lat="44.31904" lon="5.72377">
        <ele>700.253</ele>
        <time>2019-04-26T13:41:53Z</time>
      </trkpt>
      <trkpt lat="44.31884" lon="5.72327">
        <ele>700.893</ele>
        <time>2019-04-26T13:42:04Z</time>
      </trkpt>
      <trkpt lat="44.31871" lon="5.72271">
        <ele>702.761</ele>
        <time>2019-04-26T13:42:15Z</time>
      </trkpt>
      <trkpt lat="44.31859" lon="5.72211">
        <ele>703.275</ele>
        <time>2019-04-26T13:42:26Z</time>
      </trkpt>
      <trkpt lat="44.31842" lon="5.72147">
        <ele>703.763</ele>
        <time>2019-04-26T13:42:37Z</time>
      </trkpt>
      <trkpt lat="44.31824" lon="5.72086">
        <ele>705.345</ele>
        <time>2019-04-26T13:42:48Z</time>
      </trkpt>
      <trkpt lat="44.31808" lon="5.72035">
        <ele>705.972</ele>
        <time>2019-04-26T13:42:58Z</time>
      </trkpt>
      <trkpt lat="44.31785" lon="5.71972">
        <ele>704.941</ele>
        <time>2019-04-26T13:43:09Z</time>
      </trkpt>
      <trkpt lat="44.31767" lon="5.71906">
        <ele>705.116</ele>
        <time>2019-04-26T13:43:19Z</time>
      </trkpt>
      <trkpt lat="44.31761" lon="5.7183">
        <ele>706.859</ele>
        <time>2019-04-26T13:43:30Z</time>
      </trkpt>
      <trkpt lat="44.31755" lon="5.71773">
        <ele>708.427</ele>
        <time>2019-04-26T13:43:41Z</time>
      </trkpt>
      <trkpt lat="44.31748" lon="5.71712">
        <ele>709.783</ele>
        <time>2019-04-26T13:43:52Z</time>
      </trkpt>
      <trkpt lat="44.31717" lon="5.71652">
        <ele>709.414</ele>
        <time>2019-04-26T13:44:03Z</time>
      </trkpt>
      <trkpt lat="44.31681" lon="5.71581">
        <ele>709.308</ele>
        <time>2019-04-26T13:44:14Z</time>
      </trkpt>
      <trkpt lat="44.31651" lon="5.71507">
        <ele>708.882</ele>
        <time>2019-04-26T13:44:25Z</time>
      </trkpt>
      <trkpt lat="44.31623" lon="5.71433">
        <ele>708.622</ele>
        <time>2019-04-26T13:44:36Z</time>
      </trkpt>
      <trkpt lat="44.31605" lon="5.71371">
        <ele>709.214</ele>
        <time>2019-04-26T13:44:46Z</time>
      </trkpt>
      <trkpt lat="44.31594" lon="5.71314">
        <ele>709.769</ele>
        <time>2019-04-26T13:44:57Z</time>
      </trkpt>
      <trkpt lat="44.31586" lon="5.7127">
        <ele>710.024</ele>
        <time>2019-04-26T13:45:08Z</time>
      </trkpt>
      <trkpt lat="44.31578" lon="5.71229">
        <ele>710.443</ele>
        <time>2019-04-26T13:45:18Z</time>
      </trkpt>
      <trkpt lat="44.31568" lon="5.71176">
        <ele>711.088</ele>
        <time>2019-04-26T13:45:29Z</time>
      </trkpt>
      <trkpt lat="44.31557" lon="5.71123">
        <ele>711.498</ele>
        <time>2019-04-26T13:45:40Z</time>
      </trkpt>
      <trkpt lat="44.31541" lon="5.71076">
        <ele>712.259</ele>
        <time>2019-04-26T13:45:51Z</time>
      </trkpt>
      <trkpt lat="44.31534" lon="5.71024">
        <ele>714.034</ele>
        <time>2019-04-26T13:46:02Z</time>
      </trkpt>
      <trkpt lat="44.31539" lon="5.70965">
        <ele>714.975</ele>
        <time>2019-04-26T13:46:13Z</time>
      </trkpt>
      <trkpt lat="44.3155" lon="5.70906">
        <ele>716.893</ele>
        <time>2019-04-26T13:46:24Z</time>
      </trkpt>
      <trkpt lat="44.31557" lon="5.70853">
        <ele>717.337</ele>
        <time>2019-04-26T13:46:35Z</time>
      </trkpt>
      <trkpt lat="44.31563" lon="5.70805">
        <ele>717.957</ele>
        <time>2019-04-26T13:46:45Z</time>
      </trkpt>
      <trkpt lat="44.31563" lon="5.70763">
        <ele>719.031</ele>
        <time>2019-04-26T13:46:56Z</time>
      </trkpt>
      <trkpt lat="44.3156" lon="5.70724">
        <ele>719.834</ele>
        <time>2019-04-26T13:47:07Z</time>
      </trkpt>
      <trkpt lat="44.31557" lon="5.70688">
        <ele>720.385</ele>
        <time>2019-04-26T13:47:18Z</time>
      </trkpt>
      <trkpt lat="44.3155" lon="5.7065">
        <ele>720.923</ele>
        <time>2019-04-26T13:47:28Z</time>
      </trkpt>
      <trkpt lat="44.31533" lon="5.70613">
        <ele>721.104</ele>
        <time>2019-04-26T13:47:39Z</time>
      </trkpt>
      <trkpt lat="44.31515" lon="5.70579">
        <ele>721.179</ele>
        <time>2019-04-26T13:47:50Z</time>
      </trkpt>
      <trkpt lat="44.315" lon="5.70543">
        <ele>721.674</ele>
        <time>2019-04-26T13:48:00Z</time>
      </trkpt>
      <trkpt lat="44.31489" lon="5.70489">
        <ele>722.769</ele>
        <time>2019-04-26T13:48:11Z</time>
      </trkpt>
      <trkpt lat="44.31478" lon="5.70438">
        <ele>724.151</ele>
        <time>2019-04-26T13:48:22Z</time>
      </trkpt>
      <trkpt lat="44.31458" lon="5.70394">
        <ele>729.405</ele>
        <time>2019-04-26T13:48:32Z</time>
      </trkpt>
      <trkpt lat="44.31439" lon="5.70349">
        <ele>729.883</ele>
        <time>2019-04-26T13:48:43Z</time>
      </trkpt>
      <trkpt lat="44.3143" lon="5.70303">
        <ele>730.491</ele>
        <time>2019-04-26T13:48:54Z</time>
      </trkpt>
      <trkpt lat="44.31428" lon="5.70258">
        <ele>731.27</ele>
        <time>2019-04-26T13:49:05Z</time>
      </trkpt>
      <trkpt lat="44.31425" lon="5.70217">
        <ele>732.25</ele>
        <time>2019-04-26T13:49:16Z</time>
      </trkpt>
      <trkpt lat="44.31419" lon="5.70178">
        <ele>733.261</ele>
        <time>2019-04-26T13:49:27Z</time>
      </trkpt>
      <trkpt lat="44.31406" lon="5.70143">
        <ele>733.918</ele>
        <time>2019-04-26T13:49:37Z</time>
      </trkpt>
      <trkpt lat="44.31393" lon="5.70107">
        <ele>734.619</ele>
        <time>2019-04-26T13:49:48Z</time>
      </trkpt>
      <trkpt lat="44.31381" lon="5.70066">
        <ele>735.433</ele>
        <time>2019-04-26T13:49:59Z</time>
      </trkpt>
      <trkpt lat="44.31368" lon="5.7002">
        <ele>736.262</ele>
        <time>2019-04-26T13:50:10Z</time>
      </trkpt>
      <trkpt lat="44.3136" lon="5.69963">
        <ele>738.308</ele>
        <time>2019-04-26T13:50:21Z</time>
      </trkpt>
      <trkpt lat="44.31343" lon="5.69893">
        <ele>739.458</ele>
        <time>2019-04-26T13:50:32Z</time>
      </trkpt>
      <trkpt lat="44.31327" lon="5.69817">
        <ele>739.534</ele>
        <time>2019-04-26T13:50:43Z</time>
      </trkpt>
      <trkpt lat="44.31326" lon="5.69747">
        <ele>739.304</ele>
        <time>2019-04-26T13:50:53Z</time>
      </trkpt>
      <trkpt lat="44.31329" lon="5.69683">
        <ele>738.981</ele>
        <time>2019-04-26T13:51:04Z</time>
      </trkpt>
      <trkpt lat="44.31332" lon="5.69626">
        <ele>741.034</ele>
        <time>2019-04-26T13:51:14Z</time>
      </trkpt>
      <trkpt lat="44.31335" lon="5.69571">
        <ele>741.582</ele>
        <time>2019-04-26T13:51:25Z</time>
      </trkpt>
      <trkpt lat="44.31345" lon="5.69512">
        <ele>742.23</ele>
        <time>2019-04-26T13:51:35Z</time>
      </trkpt>
      <trkpt lat="44.3136" lon="5.69441">
        <ele>741.732</ele>
        <time>2019-04-26T13:51:46Z</time>
      </trkpt>
      <trkpt lat="44.31358" lon="5.69364">
        <ele>738.937</ele>
        <time>2019-04-26T13:51:57Z</time>
      </trkpt>
      <trkpt lat="44.31352" lon="5.69297">
        <ele>738.643</ele>
        <time>2019-04-26T13:52:07Z</time>
      </trkpt>
      <trkpt lat="44.3137" lon="5.69273">
        <ele>739.654</ele>
        <time>2019-04-26T13:52:18Z</time>
      </trkpt>
      <trkpt lat="44.3139" lon="5.69264">
        <ele>742.13</ele>
        <time>2019-04-26T13:52:29Z</time>
      </trkpt>
      <trkpt lat="44.3137" lon="5.69262">
        <ele>744.297</ele>
        <time>2019-04-26T13:52:39Z</time>
      </trkpt>
      <trkpt lat="44.31369" lon="5.69263">
        <ele>744.604</ele>
        <time>2019-04-26T13:52:50Z</time>
      </trkpt>
      <trkpt lat="44.31362" lon="5.69269">
        <ele>744.286</ele>
        <time>2019-04-26T13:53:00Z</time>
      </trkpt>
      <trkpt lat="44.3136" lon="5.69266">
        <ele>743.958</ele>
        <time>2019-04-26T13:53:11Z</time>
      </trkpt>
      <trkpt lat="44.31356" lon="5.69265">
        <ele>743.829</ele>
        <time>2019-04-26T13:53:22Z</time>
      </trkpt>
      <trkpt lat="44.31352" lon="5.69261">
        <ele>744.041</ele>
        <time>2019-04-26T13:53:33Z</time>
      </trkpt>
      <trkpt lat="44.31354" lon="5.69263">
        <ele>743.471</ele>
        <time>2019-04-26T13:53:43Z</time>
      </trkpt>
      <trkpt lat="44.31356" lon="5.69263">
        <ele>741.534</ele>
        <time>2019-04-26T13:53:54Z</time>
      </trkpt>
      <trkpt lat="44.31355" lon="5.69277">
        <ele>740.11</ele>
        <time>2019-04-26T13:54:05Z</time>
      </trkpt>
      <trkpt lat="44.31353" lon="5.69275">
        <ele>740.212</ele>
        <time>2019-04-26T13:54:15Z</time>
      </trkpt>
      <trkpt lat="44.31352" lon="5.69275">
        <ele>740.342</ele>
        <time>2019-04-26T13:54:26Z</time>
      </trkpt>
      <trkpt lat="44.31351" lon="5.69275">
        <ele>740.599</ele>
        <time>2019-04-26T13:54:37Z</time>
      </trkpt>
      <trkpt lat="44.3135" lon="5.69276">
        <ele>740.88</ele>
        <time>2019-04-26T13:54:47Z</time>
      </trkpt>
      <trkpt lat="44.31348" lon="5.69279">
        <ele>741.201</ele>
        <time>2019-04-26T13:54:58Z</time>
      </trkpt>
      <trkpt lat="44.31347" lon="5.69279">
        <ele>741.516</ele>
        <time>2019-04-26T13:55:08Z</time>
      </trkpt>
      <trkpt lat="44.31346" lon="5.6928">
        <ele>741.858</ele>
        <time>2019-04-26T13:55:19Z</time>
      </trkpt>
      <trkpt lat="44.31346" lon="5.6928">
        <ele>742.529</ele>
        <time>2019-04-26T13:55:30Z</time>
      </trkpt>
      <trkpt lat="44.31346" lon="5.69279">
        <ele>742.868</ele>
        <time>2019-04-26T13:55:40Z</time>
      </trkpt>
      <trkpt lat="44.31346" lon="5.69278">
        <ele>743.272</ele>
        <time>2019-04-26T13:55:51Z</time>
      </trkpt>
      <trkpt lat="44.31346" lon="5.69277">
        <ele>743.594</ele>
        <time>2019-04-26T13:56:02Z</time>
      </trkpt>
      <trkpt lat="44.31347" lon="5.69276">
        <ele>744.988</ele>
        <time>2019-04-26T13:56:13Z</time>
      </trkpt>
      <trkpt lat="44.31354" lon="5.69273">
        <ele>746.823</ele>
        <time>2019-04-26T13:56:24Z</time>
      </trkpt>
      <trkpt lat="44.31354" lon="5.6927">
        <ele>747.248</ele>
        <time>2019-04-26T13:56:35Z</time>
      </trkpt>
      <trkpt lat="44.31353" lon="5.6927">
        <ele>747.221</ele>
        <time>2019-04-26T13:56:46Z</time>
      </trkpt>
      <trkpt lat="44.31353" lon="5.6927">
        <ele>747.194</ele>
        <time>2019-04-26T13:56:56Z</time>
      </trkpt>
      <trkpt lat="44.31353" lon="5.6927">
        <ele>747.193</ele>
        <time>2019-04-26T13:57:06Z</time>
      </trkpt>
      <trkpt lat="44.31353" lon="5.6927">
        <ele>747.172</ele>
        <time>2019-04-26T13:57:16Z</time>
      </trkpt>
      <trkpt lat="44.31352" lon="5.6927">
        <ele>747.111</ele>
        <time>2019-04-26T13:57:27Z</time>
      </trkpt>
      <trkpt lat="44.31352" lon="5.6927">
        <ele>747.022</ele>
        <time>2019-04-26T13:57:37Z</time>
      </trkpt>
      <trkpt lat="44.31352" lon="5.69272">
        <ele>746.318</ele>
        <time>2019-04-26T13:57:48Z</time>
      </trkpt>
      <trkpt lat="44.31356" lon="5.69275">
        <ele>747.096</ele>
        <time>2019-04-26T13:57:58Z</time>
      </trkpt>
      <trkpt lat="44.31355" lon="5.69275">
        <ele>747.436</ele>
        <time>2019-04-26T13:58:09Z</time>
      </trkpt>
      <trkpt lat="44.31354" lon="5.69274">
        <ele>747.434</ele>
        <time>2019-04-26T13:58:20Z</time>
      </trkpt>
      <trkpt lat="44.31354" lon="5.69274">
        <ele>747.42</ele>
        <time>2019-04-26T13:58:30Z</time>
      </trkpt>
      <trkpt lat="44.31353" lon="5.69273">
        <ele>747.419</ele>
        <time>2019-04-26T13:58:41Z</time>
      </trkpt>
      <trkpt lat="44.31353" lon="5.69273">
        <ele>747.377</ele>
        <time>2019-04-26T13:58:52Z</time>
      </trkpt>
      <trkpt lat="44.31352" lon="5.69272">
        <ele>747.317</ele>
        <time>2019-04-26T13:59:03Z</time>
      </trkpt>
      <trkpt lat="44.31351" lon="5.69272">
        <ele>747.148</ele>
        <time>2019-04-26T13:59:14Z</time>
      </trkpt>
      <trkpt lat="44.31351" lon="5.69273">
        <ele>747.089</ele>
        <time>2019-04-26T13:59:24Z</time>
      </trkpt>
      <trkpt lat="44.31352" lon="5.69275">
        <ele>747.016</ele>
        <time>2019-04-26T13:59:35Z</time>
      </trkpt>
      <trkpt lat="44.31351" lon="5.69274">
        <ele>746.868</ele>
        <time>2019-04-26T13:59:46Z</time>
      </trkpt>
      <trkpt lat="44.31351" lon="5.69272">
        <ele>746.648</ele>
        <time>2019-04-26T13:59:56Z</time>
      </trkpt>
      <trkpt lat="44.31351" lon="5.69274">
        <ele>746.552</ele>
        <time>2019-04-26T14:00:07Z</time>
      </trkpt>
      <trkpt lat="44.31354" lon="5.69275">
        <ele>746.751</ele>
        <time>2019-04-26T14:00:17Z</time>
      </trkpt>
      <trkpt lat="44.31351" lon="5.69268">
        <ele>747.37</ele>
        <time>2019-04-26T14:00:28Z</time>
      </trkpt>
      <trkpt lat="44.31351" lon="5.69267">
        <ele>747.688</ele>
        <time>2019-04-26T14:00:38Z</time>
      </trkpt>
      <trkpt lat="44.31351" lon="5.69267">
        <ele>747.87</ele>
        <time>2019-04-26T14:00:49Z</time>
      </trkpt>
      <trkpt lat="44.31351" lon="5.69269">
        <ele>748.362</ele>
        <time>2019-04-26T14:01:00Z</time>
      </trkpt>
      <trkpt lat="44.31352" lon="5.69269">
        <ele>748.417</ele>
        <time>2019-04-26T14:01:10Z</time>
      </trkpt>
      <trkpt lat="44.31352" lon="5.6927">
        <ele>748.467</ele>
        <time>2019-04-26T14:01:21Z</time>
      </trkpt>
      <trkpt lat="44.31352" lon="5.6927">
        <ele>748.502</ele>
        <time>2019-04-26T14:01:31Z</time>
      </trkpt>
      <trkpt lat="44.31352" lon="5.69271">
        <ele>748.513</ele>
        <time>2019-04-26T14:01:42Z</time>
      </trkpt>
      <trkpt lat="44.31354" lon="5.69272">
        <ele>748.497</ele>
        <time>2019-04-26T14:01:52Z</time>
      </trkpt>
      <trkpt lat="44.31356" lon="5.69271">
        <ele>748.463</ele>
        <time>2019-04-26T14:02:03Z</time>
      </trkpt>
      <trkpt lat="44.31354" lon="5.6927">
        <ele>748.517</ele>
        <time>2019-04-26T14:02:14Z</time>
      </trkpt>
      <trkpt lat="44.31355" lon="5.69274">
        <ele>748.506</ele>
        <time>2019-04-26T14:02:25Z</time>
      </trkpt>
      <trkpt lat="44.31355" lon="5.69274">
        <ele>748.532</ele>
        <time>2019-04-26T14:02:35Z</time>
      </trkpt>
      <trkpt lat="44.31355" lon="5.69273">
        <ele>748.552</ele>
        <time>2019-04-26T14:02:46Z</time>
      </trkpt>
      <trkpt lat="44.31355" lon="5.69272">
        <ele>748.457</ele>
        <time>2019-04-26T14:02:57Z</time>
      </trkpt>
      <trkpt lat="44.31357" lon="5.69272">
        <ele>748.301</ele>
        <time>2019-04-26T14:03:07Z</time>
      </trkpt>
      <trkpt lat="44.31356" lon="5.69272">
        <ele>748.273</ele>
        <time>2019-04-26T14:03:18Z</time>
      </trkpt>
      <trkpt lat="44.31356" lon="5.69272">
        <ele>748.257</ele>
        <time>2019-04-26T14:03:29Z</time>
      </trkpt>
      <trkpt lat="44.31356" lon="5.69272">
        <ele>748.292</ele>
        <time>2019-04-26T14:03:39Z</time>
      </trkpt>
      <trkpt lat="44.31356" lon="5.69272">
        <ele>748.447</ele>
        <time>2019-04-26T14:03:50Z</time>
      </trkpt>
      <trkpt lat="44.31355" lon="5.69272">
        <ele>748.532</ele>
        <time>2019-04-26T14:04:01Z</time>
      </trkpt>
      <trkpt lat="44.31355" lon="5.69272">
        <ele>748.747</ele>
        <time>2019-04-26T14:04:12Z</time>
      </trkpt>
      <trkpt lat="44.31355" lon="5.69272">
        <ele>748.786</ele>
        <time>2019-04-26T14:04:22Z</time>
      </trkpt>
      <trkpt lat="44.31354" lon="5.69276">
        <ele>748.849</ele>
        <time>2019-04-26T14:04:32Z</time>
      </trkpt>
      <trkpt lat="44.3135" lon="5.69276">
        <ele>749.279</ele>
        <time>2019-04-26T14:04:43Z</time>
      </trkpt>
      <trkpt lat="44.31349" lon="5.69277">
        <ele>749.695</ele>
        <time>2019-04-26T14:04:54Z</time>
      </trkpt>
      <trkpt lat="44.3135" lon="5.69278">
        <ele>750.452</ele>
        <time>2019-04-26T14:05:05Z</time>
      </trkpt>
      <trkpt lat="44.3135" lon="5.69278">
        <ele>750.595</ele>
        <time>2019-04-26T14:05:15Z</time>
      </trkpt>
      <trkpt lat="44.3135" lon="5.69277">
        <ele>750.729</ele>
        <time>2019-04-26T14:05:26Z</time>
      </trkpt>
      <trkpt lat="44.31351" lon="5.69276">
        <ele>750.805</ele>
        <time>2019-04-26T14:05:36Z</time>
      </trkpt>
      <trkpt lat="44.31351" lon="5.69276">
        <ele>750.925</ele>
        <time>2019-04-26T14:05:47Z</time>
      </trkpt>
      <trkpt lat="44.31351" lon="5.69275">
        <ele>751.061</ele>
        <time>2019-04-26T14:05:57Z</time>
      </trkpt>
      <trkpt lat="44.31353" lon="5.69276">
        <ele>751.257</ele>
        <time>2019-04-26T14:06:08Z</time>
      </trkpt>
      <trkpt lat="44.31353" lon="5.69276">
        <ele>751.395</ele>
        <time>2019-04-26T14:06:19Z</time>
      </trkpt>
      <trkpt lat="44.31352" lon="5.69276">
        <ele>751.536</ele>
        <time>2019-04-26T14:06:29Z</time>
      </trkpt>
      <trkpt lat="44.31353" lon="5.69276">
        <ele>751.785</ele>
        <time>2019-04-26T14:06:39Z</time>
      </trkpt>
      <trkpt lat="44.31353" lon="5.69284">
        <ele>755.329</ele>
        <time>2019-04-26T14:06:50Z</time>
      </trkpt>
      <trkpt lat="44.31354" lon="5.6928">
        <ele>757.429</ele>
        <time>2019-04-26T14:07:01Z</time>
      </trkpt>
      <trkpt lat="44.31353" lon="5.69275">
        <ele>758.047</ele>
        <time>2019-04-26T14:07:11Z</time>
      </trkpt>
      <trkpt lat="44.31354" lon="5.69275">
        <ele>758.079</ele>
        <time>2019-04-26T14:07:22Z</time>
      </trkpt>
      <trkpt lat="44.31356" lon="5.69275">
        <ele>757.625</ele>
        <time>2019-04-26T14:07:32Z</time>
      </trkpt>
      <trkpt lat="44.31357" lon="5.69275">
        <ele>757.434</ele>
        <time>2019-04-26T14:07:42Z</time>
      </trkpt>
      <trkpt lat="44.31357" lon="5.69275">
        <ele>757.296</ele>
        <time>2019-04-26T14:07:53Z</time>
      </trkpt>
      <trkpt lat="44.31356" lon="5.69275">
        <ele>757.139</ele>
        <time>2019-04-26T14:08:04Z</time>
      </trkpt>
      <trkpt lat="44.31356" lon="5.69275">
        <ele>756.572</ele>
        <time>2019-04-26T14:08:14Z</time>
      </trkpt>
      <trkpt lat="44.31357" lon="5.69273">
        <ele>755.756</ele>
        <time>2019-04-26T14:08:25Z</time>
      </trkpt>
      <trkpt lat="44.31355" lon="5.69268">
        <ele>754.011</ele>
        <time>2019-04-26T14:08:36Z</time>
      </trkpt>
      <trkpt lat="44.31355" lon="5.69266">
        <ele>752.604</ele>
        <time>2019-04-26T14:08:46Z</time>
      </trkpt>
      <trkpt lat="44.31358" lon="5.69269">
        <ele>752.015</ele>
        <time>2019-04-26T14:08:57Z</time>
      </trkpt>
      <trkpt lat="44.31356" lon="5.69269">
        <ele>752.105</ele>
        <time>2019-04-26T14:09:08Z</time>
      </trkpt>
      <trkpt lat="44.31356" lon="5.6927">
        <ele>752.221</ele>
        <time>2019-04-26T14:09:18Z</time>
      </trkpt>
      <trkpt lat="44.31353" lon="5.69277">
        <ele>754.596</ele>
        <time>2019-04-26T14:09:29Z</time>
      </trkpt>
      <trkpt lat="44.31351" lon="5.69271">
        <ele>757.86</ele>
        <time>2019-04-26T14:09:40Z</time>
      </trkpt>
      <trkpt lat="44.31347" lon="5.69269">
        <ele>758.846</ele>
        <time>2019-04-26T14:09:51Z</time>
      </trkpt>
      <trkpt lat="44.31347" lon="5.69269">
        <ele>759.056</ele>
        <time>2019-04-26T14:10:02Z</time>
      </trkpt>
      <trkpt lat="44.31347" lon="5.69269">
        <ele>759.118</ele>
        <time>2019-04-26T14:10:14Z</time>
      </trkpt>
      <trkpt lat="44.31347" lon="5.69269">
        <ele>759.148</ele>
        <time>2019-04-26T14:10:25Z</time>
      </trkpt>
      <trkpt lat="44.31347" lon="5.6927">
        <ele>759.203</ele>
        <time>2019-04-26T14:10:36Z</time>
      </trkpt>
      <trkpt lat="44.31347" lon="5.69271">
        <ele>759.464</ele>
        <time>2019-04-26T14:10:46Z</time>
      </trkpt>
      <trkpt lat="44.31346" lon="5.69271">
        <ele>759.919</ele>
        <time>2019-04-26T14:10:57Z</time>
      </trkpt>
      <trkpt lat="44.31345" lon="5.69271">
        <ele>760.277</ele>
        <time>2019-04-26T14:11:07Z</time>
      </trkpt>
      <trkpt lat="44.31345" lon="5.69271">
        <ele>760.471</ele>
        <time>2019-04-26T14:11:18Z</time>
      </trkpt>
      <trkpt lat="44.31346" lon="5.69271">
        <ele>760.642</ele>
        <time>2019-04-26T14:11:28Z</time>
      </trkpt>
      <trkpt lat="44.31347" lon="5.69271">
        <ele>760.692</ele>
        <time>2019-04-26T14:11:39Z</time>
      </trkpt>
      <trkpt lat="44.31349" lon="5.6927">
        <ele>760.779</ele>
        <time>2019-04-26T14:11:50Z</time>
      </trkpt>
      <trkpt lat="44.31348" lon="5.69274">
        <ele>760.736</ele>
        <time>2019-04-26T14:12:00Z</time>
      </trkpt>
      <trkpt lat="44.31349" lon="5.69275">
        <ele>761.151</ele>
        <time>2019-04-26T14:12:11Z</time>
      </trkpt>
      <trkpt lat="44.31347" lon="5.69272">
        <ele>762.042</ele>
        <time>2019-04-26T14:12:21Z</time>
      </trkpt>
      <trkpt lat="44.31349" lon="5.69268">
        <ele>762.781</ele>
        <time>2019-04-26T14:12:31Z</time>
      </trkpt>
      <trkpt lat="44.31352" lon="5.69265">
        <ele>763.211</ele>
        <time>2019-04-26T14:12:42Z</time>
      </trkpt>
      <trkpt lat="44.31352" lon="5.69266">
        <ele>763.167</ele>
        <time>2019-04-26T14:12:52Z</time>
      </trkpt>
      <trkpt lat="44.31353" lon="5.69263">
        <ele>762.457</ele>
        <time>2019-04-26T14:13:03Z</time>
      </trkpt>
      <trkpt lat="44.31345" lon="5.69263">
        <ele>761.223</ele>
        <time>2019-04-26T14:13:14Z</time>
      </trkpt>
      <trkpt lat="44.31345" lon="5.69263">
        <ele>760.755</ele>
        <time>2019-04-26T14:13:25Z</time>
      </trkpt>
      <trkpt lat="44.31348" lon="5.6927">
        <ele>760.618</ele>
        <time>2019-04-26T14:13:36Z</time>
      </trkpt>
      <trkpt lat="44.3135" lon="5.69272">
        <ele>761.12</ele>
        <time>2019-04-26T14:13:46Z</time>
      </trkpt>
      <trkpt lat="44.31353" lon="5.6927">
        <ele>761.407</ele>
        <time>2019-04-26T14:13:56Z</time>
      </trkpt>
      <trkpt lat="44.31359" lon="5.69265">
        <ele>761.349</ele>
        <time>2019-04-26T14:14:06Z</time>
      </trkpt>
      <trkpt lat="44.3136" lon="5.69259">
        <ele>760.904</ele>
        <time>2019-04-26T14:14:17Z</time>
      </trkpt>
      <trkpt lat="44.31358" lon="5.69259">
        <ele>759.107</ele>
        <time>2019-04-26T14:14:27Z</time>
      </trkpt>
      <trkpt lat="44.31358" lon="5.6926">
        <ele>757.07</ele>
        <time>2019-04-26T14:14:38Z</time>
      </trkpt>
      <trkpt lat="44.31358" lon="5.6926">
        <ele>755.915</ele>
        <time>2019-04-26T14:14:49Z</time>
      </trkpt>
      <trkpt lat="44.31357" lon="5.69259">
        <ele>749.465</ele>
        <time>2019-04-26T14:15:01Z</time>
      </trkpt>
      <trkpt lat="44.31345" lon="5.69261">
        <ele>740.572</ele>
        <time>2019-04-26T14:15:18Z</time>
      </trkpt>
      <trkpt lat="44.31339" lon="5.6926">
        <ele>738.593</ele>
        <time>2019-04-26T14:15:28Z</time>
      </trkpt>
      <trkpt lat="44.31345" lon="5.69268">
        <ele>764.102</ele>
        <time>2019-04-26T14:18:59Z</time>
      </trkpt>
      <trkpt lat="44.31344" lon="5.69266">
        <ele>756.797</ele>
        <time>2019-04-26T14:19:09Z</time>
      </trkpt>
      <trkpt lat="44.31339" lon="5.6926">
        <ele>777.015</ele>
        <time>2019-04-26T14:19:49Z</time>
      </trkpt>
      <trkpt lat="44.31339" lon="5.69261">
        <ele>776.88</ele>
        <time>2019-04-26T14:19:59Z</time>
      </trkpt>
      <trkpt lat="44.31341" lon="5.69261">
        <ele>776.512</ele>
        <time>2019-04-26T14:20:10Z</time>
      </trkpt>
      <trkpt lat="44.31341" lon="5.6926">
        <ele>775.953</ele>
        <time>2019-04-26T14:20:20Z</time>
      </trkpt>
      <trkpt lat="44.31344" lon="5.69265">
        <ele>772.994</ele>
        <time>2019-04-26T14:20:30Z</time>
      </trkpt>
      <trkpt lat="44.31347" lon="5.69257">
        <ele>770.915</ele>
        <time>2019-04-26T14:20:41Z</time>
      </trkpt>
      <trkpt lat="44.31347" lon="5.69257">
        <ele>770.157</ele>
        <time>2019-04-26T14:20:51Z</time>
      </trkpt>
      <trkpt lat="44.31348" lon="5.69258">
        <ele>769.826</ele>
        <time>2019-04-26T14:21:02Z</time>
      </trkpt>
      <trkpt lat="44.31352" lon="5.69258">
        <ele>769.139</ele>
        <time>2019-04-26T14:21:13Z</time>
      </trkpt>
      <trkpt lat="44.31355" lon="5.6926">
        <ele>767.747</ele>
        <time>2019-04-26T14:21:23Z</time>
      </trkpt>
      <trkpt lat="44.31353" lon="5.69261">
        <ele>766.617</ele>
        <time>2019-04-26T14:21:36Z</time>
      </trkpt>
      <trkpt lat="44.31353" lon="5.6926">
        <ele>765.652</ele>
        <time>2019-04-26T14:21:48Z</time>
      </trkpt>
      <trkpt lat="44.31349" lon="5.6933">
        <ele>793.033</ele>
        <time>2019-04-26T14:23:05Z</time>
      </trkpt>
      <trkpt lat="44.31346" lon="5.69287">
        <ele>798.795</ele>
        <time>2019-04-26T14:23:15Z</time>
      </trkpt>
      <trkpt lat="44.31341" lon="5.69281">
        <ele>801.262</ele>
        <time>2019-04-26T14:23:25Z</time>
      </trkpt>
      <trkpt lat="44.31352" lon="5.6928">
        <ele>803.157</ele>
        <time>2019-04-26T14:23:36Z</time>
      </trkpt>
      <trkpt lat="44.31354" lon="5.69277">
        <ele>802.552</ele>
        <time>2019-04-26T14:23:46Z</time>
      </trkpt>
      <trkpt lat="44.31353" lon="5.69278">
        <ele>801.231</ele>
        <time>2019-04-26T14:23:56Z</time>
      </trkpt>
      <trkpt lat="44.31352" lon="5.69273">
        <ele>798.695</ele>
        <time>2019-04-26T14:24:07Z</time>
      </trkpt>
      <trkpt lat="44.31348" lon="5.69274">
        <ele>797.861</ele>
        <time>2019-04-26T14:24:17Z</time>
      </trkpt>
      <trkpt lat="44.31348" lon="5.69274">
        <ele>797.649</ele>
        <time>2019-04-26T14:24:28Z</time>
      </trkpt>
      <trkpt lat="44.31353" lon="5.69269">
        <ele>795.425</ele>
        <time>2019-04-26T14:24:39Z</time>
      </trkpt>
      <trkpt lat="44.31354" lon="5.69264">
        <ele>793.308</ele>
        <time>2019-04-26T14:24:49Z</time>
      </trkpt>
      <trkpt lat="44.3135" lon="5.69264">
        <ele>791.234</ele>
        <time>2019-04-26T14:24:59Z</time>
      </trkpt>
      <trkpt lat="44.31348" lon="5.69262">
        <ele>790.215</ele>
        <time>2019-04-26T14:25:10Z</time>
      </trkpt>
      <trkpt lat="44.31349" lon="5.69276">
        <ele>789.24</ele>
        <time>2019-04-26T14:25:20Z</time>
      </trkpt>
      <trkpt lat="44.31356" lon="5.69283">
        <ele>787.564</ele>
        <time>2019-04-26T14:25:30Z</time>
      </trkpt>
      <trkpt lat="44.31357" lon="5.69281">
        <ele>786.77</ele>
        <time>2019-04-26T14:25:41Z</time>
      </trkpt>
      <trkpt lat="44.31359" lon="5.69278">
        <ele>785.066</ele>
        <time>2019-04-26T14:25:52Z</time>
      </trkpt>
      <trkpt lat="44.31358" lon="5.69278">
        <ele>784.751</ele>
        <time>2019-04-26T14:26:03Z</time>
      </trkpt>
      <trkpt lat="44.31365" lon="5.69276">
        <ele>782.453</ele>
        <time>2019-04-26T14:26:14Z</time>
      </trkpt>
      <trkpt lat="44.31371" lon="5.69266">
        <ele>778.398</ele>
        <time>2019-04-26T14:26:24Z</time>
      </trkpt>
      <trkpt lat="44.31371" lon="5.69267">
        <ele>777.925</ele>
        <time>2019-04-26T14:26:35Z</time>
      </trkpt>
      <trkpt lat="44.31371" lon="5.69267">
        <ele>777.284</ele>
        <time>2019-04-26T14:26:46Z</time>
      </trkpt>
      <trkpt lat="44.3137" lon="5.69268">
        <ele>777.145</ele>
        <time>2019-04-26T14:26:57Z</time>
      </trkpt>
      <trkpt lat="44.3137" lon="5.69268">
        <ele>777.415</ele>
        <time>2019-04-26T14:27:07Z</time>
      </trkpt>
      <trkpt lat="44.31369" lon="5.69269">
        <ele>777.807</ele>
        <time>2019-04-26T14:27:17Z</time>
      </trkpt>
      <trkpt lat="44.31369" lon="5.69268">
        <ele>778.186</ele>
        <time>2019-04-26T14:27:28Z</time>
      </trkpt>
      <trkpt lat="44.31368" lon="5.69269">
        <ele>778.517</ele>
        <time>2019-04-26T14:27:39Z</time>
      </trkpt>
      <trkpt lat="44.31368" lon="5.69269">
        <ele>778.817</ele>
        <time>2019-04-26T14:27:50Z</time>
      </trkpt>
      <trkpt lat="44.31367" lon="5.69269">
        <ele>779.081</ele>
        <time>2019-04-26T14:28:01Z</time>
      </trkpt>
      <trkpt lat="44.31367" lon="5.69269">
        <ele>779.284</ele>
        <time>2019-04-26T14:28:12Z</time>
      </trkpt>
      <trkpt lat="44.31367" lon="5.69269">
        <ele>779.478</ele>
        <time>2019-04-26T14:28:22Z</time>
      </trkpt>
      <trkpt lat="44.31367" lon="5.69269">
        <ele>779.657</ele>
        <time>2019-04-26T14:28:32Z</time>
      </trkpt>
      <trkpt lat="44.31367" lon="5.69269">
        <ele>779.794</ele>
        <time>2019-04-26T14:28:43Z</time>
      </trkpt>
      <trkpt lat="44.31367" lon="5.69269">
        <ele>779.85</ele>
        <time>2019-04-26T14:28:54Z</time>
      </trkpt>
      <trkpt lat="44.31368" lon="5.6927">
        <ele>779.855</ele>
        <time>2019-04-26T14:29:05Z</time>
      </trkpt>
      <trkpt lat="44.31368" lon="5.6927">
        <ele>779.853</ele>
        <time>2019-04-26T14:29:15Z</time>
      </trkpt>
      <trkpt lat="44.31368" lon="5.69271">
        <ele>779.966</ele>
        <time>2019-04-26T14:29:26Z</time>
      </trkpt>
      <trkpt lat="44.31368" lon="5.69272">
        <ele>780.151</ele>
        <time>2019-04-26T14:29:36Z</time>
      </trkpt>
      <trkpt lat="44.31368" lon="5.69271">
        <ele>780.318</ele>
        <time>2019-04-26T14:29:46Z</time>
      </trkpt>
      <trkpt lat="44.3137" lon="5.69272">
        <ele>780.605</ele>
        <time>2019-04-26T14:29:57Z</time>
      </trkpt>
      <trkpt lat="44.31363" lon="5.69274">
        <ele>780.039</ele>
        <time>2019-04-26T14:30:07Z</time>
      </trkpt>
      <trkpt lat="44.31351" lon="5.69297">
        <ele>776.234</ele>
        <time>2019-04-26T14:30:18Z</time>
      </trkpt>
      <trkpt lat="44.31359" lon="5.69333">
        <ele>768.597</ele>
        <time>2019-04-26T14:30:29Z</time>
      </trkpt>
      <trkpt lat="44.31359" lon="5.69382">
        <ele>761.959</ele>
        <time>2019-04-26T14:30:39Z</time>
      </trkpt>
      <trkpt lat="44.31357" lon="5.69422">
        <ele>755.736</ele>
        <time>2019-04-26T14:30:50Z</time>
      </trkpt>
      <trkpt lat="44.31308" lon="5.69456">
        <ele>733.686</ele>
        <time>2019-04-26T14:31:01Z</time>
      </trkpt>
      <trkpt lat="44.31293" lon="5.69436">
        <ele>731.916</ele>
        <time>2019-04-26T14:31:12Z</time>
      </trkpt>
      <trkpt lat="44.31292" lon="5.6942">
        <ele>729.789</ele>
        <time>2019-04-26T14:31:23Z</time>
      </trkpt>
      <trkpt lat="44.31291" lon="5.69413">
        <ele>728.242</ele>
        <time>2019-04-26T14:31:34Z</time>
      </trkpt>
      <trkpt lat="44.31292" lon="5.69411">
        <ele>725.056</ele>
        <time>2019-04-26T14:31:44Z</time>
      </trkpt>
      <trkpt lat="44.31292" lon="5.69424">
        <ele>719.552</ele>
        <time>2019-04-26T14:31:54Z</time>
      </trkpt>
      <trkpt lat="44.31292" lon="5.69423">
        <ele>715.027</ele>
        <time>2019-04-26T14:32:05Z</time>
      </trkpt>
      <trkpt lat="44.31292" lon="5.69429">
        <ele>711.252</ele>
        <time>2019-04-26T14:32:16Z</time>
      </trkpt>
      <trkpt lat="44.31291" lon="5.69418">
        <ele>707.913</ele>
        <time>2019-04-26T14:32:27Z</time>
      </trkpt>
      <trkpt lat="44.31291" lon="5.69414">
        <ele>704.254</ele>
        <time>2019-04-26T14:32:38Z</time>
      </trkpt>
      <trkpt lat="44.31293" lon="5.69407">
        <ele>700.418</ele>
        <time>2019-04-26T14:32:48Z</time>
      </trkpt>
      <trkpt lat="44.31298" lon="5.69412">
        <ele>696.249</ele>
        <time>2019-04-26T14:32:59Z</time>
      </trkpt>
      <trkpt lat="44.31306" lon="5.69417">
        <ele>691.164</ele>
        <time>2019-04-26T14:33:09Z</time>
      </trkpt>
      <trkpt lat="44.31303" lon="5.69416">
        <ele>686.238</ele>
        <time>2019-04-26T14:33:20Z</time>
      </trkpt>
      <trkpt lat="44.31308" lon="5.69412">
        <ele>683.309</ele>
        <time>2019-04-26T14:33:30Z</time>
      </trkpt>
      <trkpt lat="44.3131" lon="5.69405">
        <ele>682.122</ele>
        <time>2019-04-26T14:33:40Z</time>
      </trkpt>
      <trkpt lat="44.31307" lon="5.69411">
        <ele>682.237</ele>
        <time>2019-04-26T14:33:51Z</time>
      </trkpt>
      <trkpt lat="44.31312" lon="5.69412">
        <ele>683.252</ele>
        <time>2019-04-26T14:34:01Z</time>
      </trkpt>
      <trkpt lat="44.31318" lon="5.69413">
        <ele>684.644</ele>
        <time>2019-04-26T14:34:12Z</time>
      </trkpt>
      <trkpt lat="44.31318" lon="5.69417">
        <ele>685.818</ele>
        <time>2019-04-26T14:34:23Z</time>
      </trkpt>
      <trkpt lat="44.31314" lon="5.69421">
        <ele>689.338</ele>
        <time>2019-04-26T14:34:34Z</time>
      </trkpt>
      <trkpt lat="44.31312" lon="5.69431">
        <ele>692.52</ele>
        <time>2019-04-26T14:34:45Z</time>
      </trkpt>
      <trkpt lat="44.31314" lon="5.69439">
        <ele>695.916</ele>
        <time>2019-04-26T14:34:56Z</time>
      </trkpt>
      <trkpt lat="44.31307" lon="5.69431">
        <ele>698.977</ele>
        <time>2019-04-26T14:35:06Z</time>
      </trkpt>
      <trkpt lat="44.31299" lon="5.69416">
        <ele>700.817</ele>
        <time>2019-04-26T14:35:16Z</time>
      </trkpt>
      <trkpt lat="44.31301" lon="5.69421">
        <ele>700.612</ele>
        <time>2019-04-26T14:35:27Z</time>
      </trkpt>
      <trkpt lat="44.31304" lon="5.69417">
        <ele>700.413</ele>
        <time>2019-04-26T14:35:37Z</time>
      </trkpt>
      <trkpt lat="44.31306" lon="5.6943">
        <ele>701.008</ele>
        <time>2019-04-26T14:35:48Z</time>
      </trkpt>
      <trkpt lat="44.31308" lon="5.69438">
        <ele>703.782</ele>
        <time>2019-04-26T14:35:58Z</time>
      </trkpt>
      <trkpt lat="44.31307" lon="5.69435">
        <ele>705.985</ele>
        <time>2019-04-26T14:36:09Z</time>
      </trkpt>
      <trkpt lat="44.31305" lon="5.69429">
        <ele>708.673</ele>
        <time>2019-04-26T14:36:19Z</time>
      </trkpt>
      <trkpt lat="44.31305" lon="5.6943">
        <ele>712.906</ele>
        <time>2019-04-26T14:36:30Z</time>
      </trkpt>
      <trkpt lat="44.31301" lon="5.69431">
        <ele>715.647</ele>
        <time>2019-04-26T14:36:41Z</time>
      </trkpt>
      <trkpt lat="44.313" lon="5.69416">
        <ele>717.543</ele>
        <time>2019-04-26T14:36:52Z</time>
      </trkpt>
      <trkpt lat="44.31302" lon="5.69421">
        <ele>718.872</ele>
        <time>2019-04-26T14:37:02Z</time>
      </trkpt>
      <trkpt lat="44.31299" lon="5.69422">
        <ele>720.181</ele>
        <time>2019-04-26T14:37:12Z</time>
      </trkpt>
      <trkpt lat="44.31296" lon="5.69429">
        <ele>720.231</ele>
        <time>2019-04-26T14:37:22Z</time>
      </trkpt>
      <trkpt lat="44.31292" lon="5.69434">
        <ele>720.659</ele>
        <time>2019-04-26T14:37:33Z</time>
      </trkpt>
      <trkpt lat="44.31298" lon="5.69429">
        <ele>723.18</ele>
        <time>2019-04-26T14:37:44Z</time>
      </trkpt>
      <trkpt lat="44.31305" lon="5.69427">
        <ele>725.824</ele>
        <time>2019-04-26T14:37:55Z</time>
      </trkpt>
      <trkpt lat="44.31307" lon="5.6943">
        <ele>726.122</ele>
        <time>2019-04-26T14:38:06Z</time>
      </trkpt>
      <trkpt lat="44.3131" lon="5.69425">
        <ele>725.761</ele>
        <time>2019-04-26T14:38:17Z</time>
      </trkpt>
      <trkpt lat="44.3131" lon="5.69422">
        <ele>724.661</ele>
        <time>2019-04-26T14:38:27Z</time>
      </trkpt>
      <trkpt lat="44.31305" lon="5.69424">
        <ele>722.532</ele>
        <time>2019-04-26T14:38:37Z</time>
      </trkpt>
      <trkpt lat="44.31302" lon="5.69425">
        <ele>718.551</ele>
        <time>2019-04-26T14:38:48Z</time>
      </trkpt>
      <trkpt lat="44.313" lon="5.69424">
        <ele>717.472</ele>
        <time>2019-04-26T14:38:59Z</time>
      </trkpt>
      <trkpt lat="44.31301" lon="5.69423">
        <ele>714.56</ele>
        <time>2019-04-26T14:39:09Z</time>
      </trkpt>
      <trkpt lat="44.31293" lon="5.69418">
        <ele>710.734</ele>
        <time>2019-04-26T14:39:20Z</time>
      </trkpt>
      <trkpt lat="44.31284" lon="5.69405">
        <ele>708.35</ele>
        <time>2019-04-26T14:39:31Z</time>
      </trkpt>
      <trkpt lat="44.31285" lon="5.69402">
        <ele>706.883</ele>
        <time>2019-04-26T14:39:42Z</time>
      </trkpt>
      <trkpt lat="44.31285" lon="5.69402">
        <ele>706.629</ele>
        <time>2019-04-26T14:39:52Z</time>
      </trkpt>
      <trkpt lat="44.31284" lon="5.69403">
        <ele>706.45</ele>
        <time>2019-04-26T14:40:03Z</time>
      </trkpt>
      <trkpt lat="44.31283" lon="5.69403">
        <ele>706.092</ele>
        <time>2019-04-26T14:40:13Z</time>
      </trkpt>
      <trkpt lat="44.31283" lon="5.69403">
        <ele>705.951</ele>
        <time>2019-04-26T14:40:23Z</time>
      </trkpt>
      <trkpt lat="44.31284" lon="5.69404">
        <ele>705.679</ele>
        <time>2019-04-26T14:40:34Z</time>
      </trkpt>
      <trkpt lat="44.31284" lon="5.69404">
        <ele>705.798</ele>
        <time>2019-04-26T14:40:44Z</time>
      </trkpt>
      <trkpt lat="44.31286" lon="5.69405">
        <ele>706.297</ele>
        <time>2019-04-26T14:40:54Z</time>
      </trkpt>
      <trkpt lat="44.31287" lon="5.69406">
        <ele>706.516</ele>
        <time>2019-04-26T14:41:05Z</time>
      </trkpt>
      <trkpt lat="44.31281" lon="5.69405">
        <ele>707.115</ele>
        <time>2019-04-26T14:41:16Z</time>
      </trkpt>
      <trkpt lat="44.31281" lon="5.69404">
        <ele>707.098</ele>
        <time>2019-04-26T14:41:27Z</time>
      </trkpt>
      <trkpt lat="44.31281" lon="5.69402">
        <ele>707.072</ele>
        <time>2019-04-26T14:41:38Z</time>
      </trkpt>
      <trkpt lat="44.31282" lon="5.69398">
        <ele>707.042</ele>
        <time>2019-04-26T14:41:49Z</time>
      </trkpt>
      <trkpt lat="44.31284" lon="5.69394">
        <ele>707.153</ele>
        <time>2019-04-26T14:42:00Z</time>
      </trkpt>
      <trkpt lat="44.31287" lon="5.69398">
        <ele>706.7</ele>
        <time>2019-04-26T14:42:10Z</time>
      </trkpt>
      <trkpt lat="44.31287" lon="5.69398">
        <ele>706.571</ele>
        <time>2019-04-26T14:42:20Z</time>
      </trkpt>
      <trkpt lat="44.31287" lon="5.69398">
        <ele>706.484</ele>
        <time>2019-04-26T14:42:30Z</time>
      </trkpt>
      <trkpt lat="44.31286" lon="5.69398">
        <ele>706.472</ele>
        <time>2019-04-26T14:42:41Z</time>
      </trkpt>
      <trkpt lat="44.31281" lon="5.69395">
        <ele>706.213</ele>
        <time>2019-04-26T14:42:52Z</time>
      </trkpt>
      <trkpt lat="44.31279" lon="5.69394">
        <ele>706.096</ele>
        <time>2019-04-26T14:43:02Z</time>
      </trkpt>
      <trkpt lat="44.31281" lon="5.69395">
        <ele>706.978</ele>
        <time>2019-04-26T14:43:12Z</time>
      </trkpt>
      <trkpt lat="44.31283" lon="5.69405">
        <ele>708.352</ele>
        <time>2019-04-26T14:43:23Z</time>
      </trkpt>
      <trkpt lat="44.3129" lon="5.69434">
        <ele>711.709</ele>
        <time>2019-04-26T14:43:34Z</time>
      </trkpt>
      <trkpt lat="44.31293" lon="5.69461">
        <ele>715.036</ele>
        <time>2019-04-26T14:43:44Z</time>
      </trkpt>
      <trkpt lat="44.31293" lon="5.6946">
        <ele>721.129</ele>
        <time>2019-04-26T14:43:55Z</time>
      </trkpt>
      <trkpt lat="44.31291" lon="5.69453">
        <ele>722.909</ele>
        <time>2019-04-26T14:44:05Z</time>
      </trkpt>
      <trkpt lat="44.31304" lon="5.69453">
        <ele>723.467</ele>
        <time>2019-04-26T14:44:16Z</time>
      </trkpt>
      <trkpt lat="44.31324" lon="5.69444">
        <ele>723.709</ele>
        <time>2019-04-26T14:44:27Z</time>
      </trkpt>
      <trkpt lat="44.31343" lon="5.69437">
        <ele>723.465</ele>
        <time>2019-04-26T14:44:38Z</time>
      </trkpt>
      <trkpt lat="44.31356" lon="5.6941">
        <ele>723.594</ele>
        <time>2019-04-26T14:44:49Z</time>
      </trkpt>
      <trkpt lat="44.31356" lon="5.69356">
        <ele>725.452</ele>
        <time>2019-04-26T14:45:00Z</time>
      </trkpt>
      <trkpt lat="44.3135" lon="5.69312">
        <ele>728.002</ele>
        <time>2019-04-26T14:45:10Z</time>
      </trkpt>
      <trkpt lat="44.31337" lon="5.6926">
        <ele>736.025</ele>
        <time>2019-04-26T14:45:21Z</time>
      </trkpt>
      <trkpt lat="44.31294" lon="5.69201">
        <ele>742.249</ele>
        <time>2019-04-26T14:45:32Z</time>
      </trkpt>
      <trkpt lat="44.31279" lon="5.69133">
        <ele>740.573</ele>
        <time>2019-04-26T14:45:43Z</time>
      </trkpt>
      <trkpt lat="44.31281" lon="5.69076">
        <ele>737.69</ele>
        <time>2019-04-26T14:45:53Z</time>
      </trkpt>
      <trkpt lat="44.31283" lon="5.69026">
        <ele>737.165</ele>
        <time>2019-04-26T14:46:04Z</time>
      </trkpt>
      <trkpt lat="44.31292" lon="5.68982">
        <ele>736.028</ele>
        <time>2019-04-26T14:46:15Z</time>
      </trkpt>
      <trkpt lat="44.31309" lon="5.6894">
        <ele>734.697</ele>
        <time>2019-04-26T14:46:25Z</time>
      </trkpt>
      <trkpt lat="44.31332" lon="5.68916">
        <ele>733.674</ele>
        <time>2019-04-26T14:46:35Z</time>
      </trkpt>
      <trkpt lat="44.31361" lon="5.68896">
        <ele>733.146</ele>
        <time>2019-04-26T14:46:45Z</time>
      </trkpt>
      <trkpt lat="44.31385" lon="5.68872">
        <ele>732.869</ele>
        <time>2019-04-26T14:46:55Z</time>
      </trkpt>
      <trkpt lat="44.31418" lon="5.68853">
        <ele>732.834</ele>
        <time>2019-04-26T14:47:06Z</time>
      </trkpt>
      <trkpt lat="44.31445" lon="5.68832">
        <ele>732.794</ele>
        <time>2019-04-26T14:47:16Z</time>
      </trkpt>
      <trkpt lat="44.31466" lon="5.688">
        <ele>732.916</ele>
        <time>2019-04-26T14:47:26Z</time>
      </trkpt>
      <trkpt lat="44.3148" lon="5.68763">
        <ele>733.463</ele>
        <time>2019-04-26T14:47:37Z</time>
      </trkpt>
      <trkpt lat="44.31487" lon="5.68723">
        <ele>733.358</ele>
        <time>2019-04-26T14:47:47Z</time>
      </trkpt>
      <trkpt lat="44.31491" lon="5.68674">
        <ele>732.61</ele>
        <time>2019-04-26T14:47:58Z</time>
      </trkpt>
      <trkpt lat="44.31487" lon="5.68626">
        <ele>731.39</ele>
        <time>2019-04-26T14:48:09Z</time>
      </trkpt>
      <trkpt lat="44.31489" lon="5.68578">
        <ele>730.231</ele>
        <time>2019-04-26T14:48:19Z</time>
      </trkpt>
      <trkpt lat="44.31494" lon="5.68526">
        <ele>729.496</ele>
        <time>2019-04-26T14:48:30Z</time>
      </trkpt>
      <trkpt lat="44.3149" lon="5.68475">
        <ele>728.678</ele>
        <time>2019-04-26T14:48:41Z</time>
      </trkpt>
      <trkpt lat="44.31472" lon="5.68433">
        <ele>728.369</ele>
        <time>2019-04-26T14:48:51Z</time>
      </trkpt>
      <trkpt lat="44.31453" lon="5.68398">
        <ele>728.231</ele>
        <time>2019-04-26T14:49:01Z</time>
      </trkpt>
      <trkpt lat="44.31434" lon="5.68358">
        <ele>728.479</ele>
        <time>2019-04-26T14:49:12Z</time>
      </trkpt>
      <trkpt lat="44.31415" lon="5.68314">
        <ele>728.89</ele>
        <time>2019-04-26T14:49:23Z</time>
      </trkpt>
      <trkpt lat="44.31405" lon="5.68272">
        <ele>729.229</ele>
        <time>2019-04-26T14:49:33Z</time>
      </trkpt>
      <trkpt lat="44.31399" lon="5.68227">
        <ele>729.35</ele>
        <time>2019-04-26T14:49:43Z</time>
      </trkpt>
      <trkpt lat="44.314" lon="5.68187">
        <ele>729.248</ele>
        <time>2019-04-26T14:49:54Z</time>
      </trkpt>
      <trkpt lat="44.31407" lon="5.68142">
        <ele>728.775</ele>
        <time>2019-04-26T14:50:05Z</time>
      </trkpt>
      <trkpt lat="44.31408" lon="5.68099">
        <ele>729.453</ele>
        <time>2019-04-26T14:50:15Z</time>
      </trkpt>
      <trkpt lat="44.31411" lon="5.68037">
        <ele>732.049</ele>
        <time>2019-04-26T14:50:26Z</time>
      </trkpt>
      <trkpt lat="44.3141" lon="5.67968">
        <ele>735.063</ele>
        <time>2019-04-26T14:50:37Z</time>
      </trkpt>
      <trkpt lat="44.31411" lon="5.67903">
        <ele>736.957</ele>
        <time>2019-04-26T14:50:48Z</time>
      </trkpt>
      <trkpt lat="44.3141" lon="5.67844">
        <ele>739.565</ele>
        <time>2019-04-26T14:50:59Z</time>
      </trkpt>
      <trkpt lat="44.31406" lon="5.67791">
        <ele>740.505</ele>
        <time>2019-04-26T14:51:10Z</time>
      </trkpt>
      <trkpt lat="44.31403" lon="5.67744">
        <ele>740.723</ele>
        <time>2019-04-26T14:51:21Z</time>
      </trkpt>
      <trkpt lat="44.31401" lon="5.67701">
        <ele>740.664</ele>
        <time>2019-04-26T14:51:31Z</time>
      </trkpt>
      <trkpt lat="44.31396" lon="5.67639">
        <ele>740.523</ele>
        <time>2019-04-26T14:51:42Z</time>
      </trkpt>
      <trkpt lat="44.31389" lon="5.6758">
        <ele>741.088</ele>
        <time>2019-04-26T14:51:53Z</time>
      </trkpt>
      <trkpt lat="44.31378" lon="5.67533">
        <ele>740.823</ele>
        <time>2019-04-26T14:52:04Z</time>
      </trkpt>
      <trkpt lat="44.31368" lon="5.67494">
        <ele>740.445</ele>
        <time>2019-04-26T14:52:14Z</time>
      </trkpt>
      <trkpt lat="44.31351" lon="5.67465">
        <ele>740.826</ele>
        <time>2019-04-26T14:52:24Z</time>
      </trkpt>
      <trkpt lat="44.31334" lon="5.67429">
        <ele>741.672</ele>
        <time>2019-04-26T14:52:35Z</time>
      </trkpt>
      <trkpt lat="44.31317" lon="5.67392">
        <ele>742.335</ele>
        <time>2019-04-26T14:52:46Z</time>
      </trkpt>
      <trkpt lat="44.31296" lon="5.67353">
        <ele>742.981</ele>
        <time>2019-04-26T14:52:57Z</time>
      </trkpt>
      <trkpt lat="44.31272" lon="5.67317">
        <ele>743.834</ele>
        <time>2019-04-26T14:53:08Z</time>
      </trkpt>
      <trkpt lat="44.31248" lon="5.67282">
        <ele>744.614</ele>
        <time>2019-04-26T14:53:18Z</time>
      </trkpt>
      <trkpt lat="44.31224" lon="5.67252">
        <ele>745.507</ele>
        <time>2019-04-26T14:53:28Z</time>
      </trkpt>
      <trkpt lat="44.31201" lon="5.67224">
        <ele>746.811</ele>
        <time>2019-04-26T14:53:39Z</time>
      </trkpt>
      <trkpt lat="44.31177" lon="5.67203">
        <ele>747.974</ele>
        <time>2019-04-26T14:53:49Z</time>
      </trkpt>
      <trkpt lat="44.31147" lon="5.67181">
        <ele>749.226</ele>
        <time>2019-04-26T14:54:00Z</time>
      </trkpt>
      <trkpt lat="44.31112" lon="5.67162">
        <ele>749.994</ele>
        <time>2019-04-26T14:54:11Z</time>
      </trkpt>
      <trkpt lat="44.31079" lon="5.67139">
        <ele>750.575</ele>
        <time>2019-04-26T14:54:22Z</time>
      </trkpt>
      <trkpt lat="44.3105" lon="5.67115">
        <ele>750.933</ele>
        <time>2019-04-26T14:54:32Z</time>
      </trkpt>
      <trkpt lat="44.31015" lon="5.67079">
        <ele>750.83</ele>
        <time>2019-04-26T14:54:43Z</time>
      </trkpt>
      <trkpt lat="44.30991" lon="5.67044">
        <ele>750.408</ele>
        <time>2019-04-26T14:54:54Z</time>
      </trkpt>
      <trkpt lat="44.30967" lon="5.67005">
        <ele>750.196</ele>
        <time>2019-04-26T14:55:05Z</time>
      </trkpt>
      <trkpt lat="44.30949" lon="5.66972">
        <ele>750.342</ele>
        <time>2019-04-26T14:55:15Z</time>
      </trkpt>
      <trkpt lat="44.30931" lon="5.66938">
        <ele>750.667</ele>
        <time>2019-04-26T14:55:25Z</time>
      </trkpt>
      <trkpt lat="44.30912" lon="5.66906">
        <ele>750.925</ele>
        <time>2019-04-26T14:55:35Z</time>
      </trkpt>
      <trkpt lat="44.3089" lon="5.66873">
        <ele>751.689</ele>
        <time>2019-04-26T14:55:46Z</time>
      </trkpt>
      <trkpt lat="44.30866" lon="5.66841">
        <ele>752.411</ele>
        <time>2019-04-26T14:55:57Z</time>
      </trkpt>
      <trkpt lat="44.30835" lon="5.66811">
        <ele>753.141</ele>
        <time>2019-04-26T14:56:08Z</time>
      </trkpt>
      <trkpt lat="44.30808" lon="5.6678">
        <ele>753.844</ele>
        <time>2019-04-26T14:56:19Z</time>
      </trkpt>
      <trkpt lat="44.30773" lon="5.66748">
        <ele>755.39</ele>
        <time>2019-04-26T14:56:30Z</time>
      </trkpt>
      <trkpt lat="44.30731" lon="5.66726">
        <ele>754.846</ele>
        <time>2019-04-26T14:56:41Z</time>
      </trkpt>
      <trkpt lat="44.3069" lon="5.66704">
        <ele>752.89</ele>
        <time>2019-04-26T14:56:51Z</time>
      </trkpt>
      <trkpt lat="44.30653" lon="5.66664">
        <ele>750.644</ele>
        <time>2019-04-26T14:57:02Z</time>
      </trkpt>
      <trkpt lat="44.3062" lon="5.6662">
        <ele>750.675</ele>
        <time>2019-04-26T14:57:13Z</time>
      </trkpt>
      <trkpt lat="44.30591" lon="5.66587">
        <ele>750.897</ele>
        <time>2019-04-26T14:57:23Z</time>
      </trkpt>
      <trkpt lat="44.3056" lon="5.6656">
        <ele>751.901</ele>
        <time>2019-04-26T14:57:34Z</time>
      </trkpt>
      <trkpt lat="44.30519" lon="5.66545">
        <ele>759.487</ele>
        <time>2019-04-26T14:57:45Z</time>
      </trkpt>
      <trkpt lat="44.30473" lon="5.6655">
        <ele>761.262</ele>
        <time>2019-04-26T14:57:56Z</time>
      </trkpt>
      <trkpt lat="44.30435" lon="5.66551">
        <ele>760.48</ele>
        <time>2019-04-26T14:58:06Z</time>
      </trkpt>
      <trkpt lat="44.30406" lon="5.66535">
        <ele>759.734</ele>
        <time>2019-04-26T14:58:16Z</time>
      </trkpt>
      <trkpt lat="44.30376" lon="5.66511">
        <ele>759.317</ele>
        <time>2019-04-26T14:58:27Z</time>
      </trkpt>
      <trkpt lat="44.30349" lon="5.6649">
        <ele>759.744</ele>
        <time>2019-04-26T14:58:37Z</time>
      </trkpt>
      <trkpt lat="44.30325" lon="5.66463">
        <ele>760.499</ele>
        <time>2019-04-26T14:58:48Z</time>
      </trkpt>
      <trkpt lat="44.30306" lon="5.66429">
        <ele>761.147</ele>
        <time>2019-04-26T14:58:59Z</time>
      </trkpt>
      <trkpt lat="44.30297" lon="5.66396">
        <ele>761.681</ele>
        <time>2019-04-26T14:59:09Z</time>
      </trkpt>
      <trkpt lat="44.30291" lon="5.66358">
        <ele>762.284</ele>
        <time>2019-04-26T14:59:20Z</time>
      </trkpt>
      <trkpt lat="44.30284" lon="5.66319">
        <ele>762.797</ele>
        <time>2019-04-26T14:59:31Z</time>
      </trkpt>
      <trkpt lat="44.30277" lon="5.66281">
        <ele>763.412</ele>
        <time>2019-04-26T14:59:42Z</time>
      </trkpt>
      <trkpt lat="44.30264" lon="5.66247">
        <ele>764.468</ele>
        <time>2019-04-26T14:59:53Z</time>
      </trkpt>
      <trkpt lat="44.30246" lon="5.66216">
        <ele>765.6</ele>
        <time>2019-04-26T15:00:03Z</time>
      </trkpt>
      <trkpt lat="44.30227" lon="5.66185">
        <ele>766.86</ele>
        <time>2019-04-26T15:00:14Z</time>
      </trkpt>
      <trkpt lat="44.30209" lon="5.6615">
        <ele>768.262</ele>
        <time>2019-04-26T15:00:25Z</time>
      </trkpt>
      <trkpt lat="44.30191" lon="5.66114">
        <ele>769.713</ele>
        <time>2019-04-26T15:00:36Z</time>
      </trkpt>
      <trkpt lat="44.30176" lon="5.66075">
        <ele>771.128</ele>
        <time>2019-04-26T15:00:46Z</time>
      </trkpt>
      <trkpt lat="44.30167" lon="5.66028">
        <ele>772.595</ele>
        <time>2019-04-26T15:00:57Z</time>
      </trkpt>
      <trkpt lat="44.30157" lon="5.6598">
        <ele>773.557</ele>
        <time>2019-04-26T15:01:07Z</time>
      </trkpt>
      <trkpt lat="44.3014" lon="5.6594">
        <ele>774.664</ele>
        <time>2019-04-26T15:01:17Z</time>
      </trkpt>
      <trkpt lat="44.3012" lon="5.659">
        <ele>775.795</ele>
        <time>2019-04-26T15:01:28Z</time>
      </trkpt>
      <trkpt lat="44.30102" lon="5.65856">
        <ele>777.01</ele>
        <time>2019-04-26T15:01:39Z</time>
      </trkpt>
      <trkpt lat="44.30086" lon="5.65816">
        <ele>777.637</ele>
        <time>2019-04-26T15:01:50Z</time>
      </trkpt>
      <trkpt lat="44.3007" lon="5.65773">
        <ele>778.358</ele>
        <time>2019-04-26T15:02:01Z</time>
      </trkpt>
      <trkpt lat="44.30058" lon="5.65734">
        <ele>779.072</ele>
        <time>2019-04-26T15:02:11Z</time>
      </trkpt>
      <trkpt lat="44.30047" lon="5.65694">
        <ele>779.794</ele>
        <time>2019-04-26T15:02:22Z</time>
      </trkpt>
      <trkpt lat="44.30034" lon="5.65655">
        <ele>780.287</ele>
        <time>2019-04-26T15:02:33Z</time>
      </trkpt>
      <trkpt lat="44.30019" lon="5.65616">
        <ele>780.922</ele>
        <time>2019-04-26T15:02:43Z</time>
      </trkpt>
      <trkpt lat="44.30002" lon="5.65575">
        <ele>781.815</ele>
        <time>2019-04-26T15:02:54Z</time>
      </trkpt>
      <trkpt lat="44.29988" lon="5.65536">
        <ele>782.611</ele>
        <time>2019-04-26T15:03:04Z</time>
      </trkpt>
      <trkpt lat="44.29969" lon="5.65494">
        <ele>783.534</ele>
        <time>2019-04-26T15:03:15Z</time>
      </trkpt>
      <trkpt lat="44.29951" lon="5.65452">
        <ele>784.698</ele>
        <time>2019-04-26T15:03:26Z</time>
      </trkpt>
      <trkpt lat="44.29935" lon="5.65411">
        <ele>785.851</ele>
        <time>2019-04-26T15:03:36Z</time>
      </trkpt>
      <trkpt lat="44.29917" lon="5.65371">
        <ele>786.667</ele>
        <time>2019-04-26T15:03:47Z</time>
      </trkpt>
      <trkpt lat="44.29894" lon="5.65349">
        <ele>786.621</ele>
        <time>2019-04-26T15:03:58Z</time>
      </trkpt>
      <trkpt lat="44.29881" lon="5.65341">
        <ele>786.245</ele>
        <time>2019-04-26T15:04:09Z</time>
      </trkpt>
      <trkpt lat="44.2988" lon="5.65338">
        <ele>786.187</ele>
        <time>2019-04-26T15:04:19Z</time>
      </trkpt>
      <trkpt lat="44.2988" lon="5.65338">
        <ele>786.222</ele>
        <time>2019-04-26T15:04:29Z</time>
      </trkpt>
      <trkpt lat="44.29879" lon="5.65338">
        <ele>786.267</ele>
        <time>2019-04-26T15:04:40Z</time>
      </trkpt>
      <trkpt lat="44.29879" lon="5.65338">
        <ele>786.375</ele>
        <time>2019-04-26T15:04:50Z</time>
      </trkpt>
      <trkpt lat="44.29883" lon="5.6533">
        <ele>786.99</ele>
        <time>2019-04-26T15:05:01Z</time>
      </trkpt>
      <trkpt lat="44.29881" lon="5.65328">
        <ele>787.565</ele>
        <time>2019-04-26T15:05:11Z</time>
      </trkpt>
      <trkpt lat="44.29881" lon="5.65327">
        <ele>787.899</ele>
        <time>2019-04-26T15:05:22Z</time>
      </trkpt>
      <trkpt lat="44.29881" lon="5.65327">
        <ele>788.544</ele>
        <time>2019-04-26T15:05:32Z</time>
      </trkpt>
      <trkpt lat="44.29881" lon="5.65326">
        <ele>788.834</ele>
        <time>2019-04-26T15:05:43Z</time>
      </trkpt>
      <trkpt lat="44.29881" lon="5.65326">
        <ele>789.199</ele>
        <time>2019-04-26T15:05:54Z</time>
      </trkpt>
      <trkpt lat="44.2988" lon="5.65326">
        <ele>789.392</ele>
        <time>2019-04-26T15:06:05Z</time>
      </trkpt>
      <trkpt lat="44.2988" lon="5.65327">
        <ele>789.59</ele>
        <time>2019-04-26T15:06:16Z</time>
      </trkpt>
      <trkpt lat="44.2988" lon="5.65327">
        <ele>789.896</ele>
        <time>2019-04-26T15:06:27Z</time>
      </trkpt>
      <trkpt lat="44.2988" lon="5.65326">
        <ele>790.179</ele>
        <time>2019-04-26T15:06:38Z</time>
      </trkpt>
      <trkpt lat="44.2988" lon="5.65326">
        <ele>790.535</ele>
        <time>2019-04-26T15:06:49Z</time>
      </trkpt>
      <trkpt lat="44.2988" lon="5.65325">
        <ele>790.813</ele>
        <time>2019-04-26T15:06:59Z</time>
      </trkpt>
      <trkpt lat="44.2988" lon="5.65325">
        <ele>790.99</ele>
        <time>2019-04-26T15:07:10Z</time>
      </trkpt>
      <trkpt lat="44.2988" lon="5.65325">
        <ele>791.268</ele>
        <time>2019-04-26T15:07:21Z</time>
      </trkpt>
      <trkpt lat="44.29881" lon="5.65325">
        <ele>791.578</ele>
        <time>2019-04-26T15:07:31Z</time>
      </trkpt>
      <trkpt lat="44.29882" lon="5.65324">
        <ele>791.929</ele>
        <time>2019-04-26T15:07:42Z</time>
      </trkpt>
      <trkpt lat="44.29883" lon="5.65323">
        <ele>792.172</ele>
        <time>2019-04-26T15:07:52Z</time>
      </trkpt>
      <trkpt lat="44.29884" lon="5.65322">
        <ele>792.415</ele>
        <time>2019-04-26T15:08:03Z</time>
      </trkpt>
      <trkpt lat="44.29884" lon="5.65322">
        <ele>792.675</ele>
        <time>2019-04-26T15:08:14Z</time>
      </trkpt>
      <trkpt lat="44.29884" lon="5.65322">
        <ele>792.895</ele>
        <time>2019-04-26T15:08:25Z</time>
      </trkpt>
      <trkpt lat="44.29883" lon="5.65324">
        <ele>792.94</ele>
        <time>2019-04-26T15:08:36Z</time>
      </trkpt>
      <trkpt lat="44.29884" lon="5.65324">
        <ele>793.022</ele>
        <time>2019-04-26T15:08:47Z</time>
      </trkpt>
      <trkpt lat="44.29884" lon="5.65325">
        <ele>793.332</ele>
        <time>2019-04-26T15:08:58Z</time>
      </trkpt>
      <trkpt lat="44.29883" lon="5.65326">
        <ele>793.833</ele>
        <time>2019-04-26T15:09:08Z</time>
      </trkpt>
      <trkpt lat="44.29883" lon="5.65325">
        <ele>793.764</ele>
        <time>2019-04-26T15:09:18Z</time>
      </trkpt>
      <trkpt lat="44.29882" lon="5.65325">
        <ele>793.72</ele>
        <time>2019-04-26T15:09:29Z</time>
      </trkpt>
      <trkpt lat="44.29882" lon="5.65325">
        <ele>793.708</ele>
        <time>2019-04-26T15:09:40Z</time>
      </trkpt>
      <trkpt lat="44.29883" lon="5.65325">
        <ele>793.509</ele>
        <time>2019-04-26T15:09:50Z</time>
      </trkpt>
      <trkpt lat="44.29884" lon="5.65324">
        <ele>793.084</ele>
        <time>2019-04-26T15:10:01Z</time>
      </trkpt>
      <trkpt lat="44.29884" lon="5.65325">
        <ele>792.764</ele>
        <time>2019-04-26T15:10:12Z</time>
      </trkpt>
      <trkpt lat="44.29883" lon="5.65326">
        <ele>792.425</ele>
        <time>2019-04-26T15:10:22Z</time>
      </trkpt>
      <trkpt lat="44.29883" lon="5.65326">
        <ele>791.9</ele>
        <time>2019-04-26T15:10:33Z</time>
      </trkpt>
      <trkpt lat="44.29883" lon="5.65326">
        <ele>791.643</ele>
        <time>2019-04-26T15:10:43Z</time>
      </trkpt>
      <trkpt lat="44.29884" lon="5.65324">
        <ele>791.279</ele>
        <time>2019-04-26T15:10:54Z</time>
      </trkpt>
      <trkpt lat="44.29884" lon="5.65323">
        <ele>790.928</ele>
        <time>2019-04-26T15:11:04Z</time>
      </trkpt>
      <trkpt lat="44.29884" lon="5.65324">
        <ele>790.628</ele>
        <time>2019-04-26T15:11:15Z</time>
      </trkpt>
      <trkpt lat="44.29882" lon="5.65326">
        <ele>790.206</ele>
        <time>2019-04-26T15:11:25Z</time>
      </trkpt>
      <trkpt lat="44.29882" lon="5.65327">
        <ele>789.989</ele>
        <time>2019-04-26T15:11:35Z</time>
      </trkpt>
      <trkpt lat="44.29881" lon="5.65328">
        <ele>789.782</ele>
        <time>2019-04-26T15:11:46Z</time>
      </trkpt>
      <trkpt lat="44.2988" lon="5.65329">
        <ele>789.682</ele>
        <time>2019-04-26T15:11:57Z</time>
      </trkpt>
      <trkpt lat="44.29879" lon="5.65331">
        <ele>789.7</ele>
        <time>2019-04-26T15:12:08Z</time>
      </trkpt>
      <trkpt lat="44.29879" lon="5.65332">
        <ele>789.851</ele>
        <time>2019-04-26T15:12:18Z</time>
      </trkpt>
      <trkpt lat="44.29878" lon="5.65332">
        <ele>789.966</ele>
        <time>2019-04-26T15:12:28Z</time>
      </trkpt>
      <trkpt lat="44.29878" lon="5.65333">
        <ele>790.189</ele>
        <time>2019-04-26T15:12:39Z</time>
      </trkpt>
      <trkpt lat="44.29882" lon="5.65334">
        <ele>791.491</ele>
        <time>2019-04-26T15:12:50Z</time>
      </trkpt>
      <trkpt lat="44.29882" lon="5.65338">
        <ele>792.136</ele>
        <time>2019-04-26T15:13:00Z</time>
      </trkpt>
      <trkpt lat="44.29881" lon="5.65337">
        <ele>792.359</ele>
        <time>2019-04-26T15:13:11Z</time>
      </trkpt>
      <trkpt lat="44.29874" lon="5.65326">
        <ele>792.903</ele>
        <time>2019-04-26T15:13:22Z</time>
      </trkpt>
      <trkpt lat="44.29867" lon="5.65314">
        <ele>793.139</ele>
        <time>2019-04-26T15:13:33Z</time>
      </trkpt>
      <trkpt lat="44.29858" lon="5.65308">
        <ele>793</ele>
        <time>2019-04-26T15:13:43Z</time>
      </trkpt>
      <trkpt lat="44.29843" lon="5.65304">
        <ele>792.228</ele>
        <time>2019-04-26T15:13:54Z</time>
      </trkpt>
      <trkpt lat="44.29832" lon="5.65308">
        <ele>791.344</ele>
        <time>2019-04-26T15:14:04Z</time>
      </trkpt>
      <trkpt lat="44.29826" lon="5.65313">
        <ele>790.306</ele>
        <time>2019-04-26T15:14:15Z</time>
      </trkpt>
      <trkpt lat="44.29825" lon="5.65321">
        <ele>789.677</ele>
        <time>2019-04-26T15:14:26Z</time>
      </trkpt>
      <trkpt lat="44.29825" lon="5.65321">
        <ele>789.656</ele>
        <time>2019-04-26T15:14:37Z</time>
      </trkpt>
      <trkpt lat="44.29824" lon="5.6532">
        <ele>789.625</ele>
        <time>2019-04-26T15:14:47Z</time>
      </trkpt>
      <trkpt lat="44.29824" lon="5.6532">
        <ele>789.657</ele>
        <time>2019-04-26T15:14:58Z</time>
      </trkpt>
      <trkpt lat="44.29824" lon="5.6532">
        <ele>789.672</ele>
        <time>2019-04-26T15:15:09Z</time>
      </trkpt>
      <trkpt lat="44.29824" lon="5.6532">
        <ele>789.683</ele>
        <time>2019-04-26T15:15:20Z</time>
      </trkpt>
      <trkpt lat="44.29824" lon="5.65321">
        <ele>789.68</ele>
        <time>2019-04-26T15:15:31Z</time>
      </trkpt>
      <trkpt lat="44.29825" lon="5.65321">
        <ele>789.634</ele>
        <time>2019-04-26T15:15:41Z</time>
      </trkpt>
      <trkpt lat="44.29825" lon="5.65321">
        <ele>789.602</ele>
        <time>2019-04-26T15:15:52Z</time>
      </trkpt>
      <trkpt lat="44.29825" lon="5.65321">
        <ele>789.61</ele>
        <time>2019-04-26T15:16:02Z</time>
      </trkpt>
      <trkpt lat="44.29825" lon="5.65321">
        <ele>789.635</ele>
        <time>2019-04-26T15:16:13Z</time>
      </trkpt>
      <trkpt lat="44.29825" lon="5.65321">
        <ele>789.668</ele>
        <time>2019-04-26T15:16:24Z</time>
      </trkpt>
      <trkpt lat="44.29825" lon="5.65321">
        <ele>789.678</ele>
        <time>2019-04-26T15:16:34Z</time>
      </trkpt>
      <trkpt lat="44.29825" lon="5.65321">
        <ele>789.673</ele>
        <time>2019-04-26T15:16:45Z</time>
      </trkpt>
      <trkpt lat="44.29826" lon="5.6532">
        <ele>789.684</ele>
        <time>2019-04-26T15:16:55Z</time>
      </trkpt>
      <trkpt lat="44.29826" lon="5.6532">
        <ele>789.722</ele>
        <time>2019-04-26T15:17:05Z</time>
      </trkpt>
      <trkpt lat="44.29826" lon="5.6532">
        <ele>789.702</ele>
        <time>2019-04-26T15:17:16Z</time>
      </trkpt>
      <trkpt lat="44.29825" lon="5.65319">
        <ele>789.619</ele>
        <time>2019-04-26T15:17:26Z</time>
      </trkpt>
      <trkpt lat="44.29825" lon="5.65319">
        <ele>789.489</ele>
        <time>2019-04-26T15:17:37Z</time>
      </trkpt>
      <trkpt lat="44.29824" lon="5.65318">
        <ele>789.398</ele>
        <time>2019-04-26T15:17:47Z</time>
      </trkpt>
      <trkpt lat="44.29824" lon="5.65318">
        <ele>789.341</ele>
        <time>2019-04-26T15:17:57Z</time>
      </trkpt>
      <trkpt lat="44.29824" lon="5.65318">
        <ele>789.287</ele>
        <time>2019-04-26T15:18:08Z</time>
      </trkpt>
      <trkpt lat="44.29824" lon="5.65318">
        <ele>789.256</ele>
        <time>2019-04-26T15:18:19Z</time>
      </trkpt>
      <trkpt lat="44.29824" lon="5.65318">
        <ele>789.197</ele>
        <time>2019-04-26T15:18:30Z</time>
      </trkpt>
      <trkpt lat="44.29824" lon="5.65318">
        <ele>789.11</ele>
        <time>2019-04-26T15:18:40Z</time>
      </trkpt>
      <trkpt lat="44.29825" lon="5.65317">
        <ele>789.035</ele>
        <time>2019-04-26T15:18:51Z</time>
      </trkpt>
      <trkpt lat="44.29825" lon="5.65317">
        <ele>788.964</ele>
        <time>2019-04-26T15:19:02Z</time>
      </trkpt>
      <trkpt lat="44.29825" lon="5.65316">
        <ele>788.908</ele>
        <time>2019-04-26T15:19:13Z</time>
      </trkpt>
      <trkpt lat="44.29825" lon="5.65316">
        <ele>788.83</ele>
        <time>2019-04-26T15:19:24Z</time>
      </trkpt>
      <trkpt lat="44.29825" lon="5.65316">
        <ele>788.757</ele>
        <time>2019-04-26T15:19:35Z</time>
      </trkpt>
      <trkpt lat="44.29826" lon="5.65316">
        <ele>788.683</ele>
        <time>2019-04-26T15:19:46Z</time>
      </trkpt>
      <trkpt lat="44.29826" lon="5.65316">
        <ele>788.598</ele>
        <time>2019-04-26T15:19:56Z</time>
      </trkpt>
      <trkpt lat="44.29826" lon="5.65317">
        <ele>788.526</ele>
        <time>2019-04-26T15:20:06Z</time>
      </trkpt>
      <trkpt lat="44.29827" lon="5.65317">
        <ele>788.446</ele>
        <time>2019-04-26T15:20:17Z</time>
      </trkpt>
      <trkpt lat="44.29827" lon="5.65317">
        <ele>788.378</ele>
        <time>2019-04-26T15:20:28Z</time>
      </trkpt>
      <trkpt lat="44.29827" lon="5.65317">
        <ele>788.326</ele>
        <time>2019-04-26T15:20:39Z</time>
      </trkpt>
      <trkpt lat="44.29827" lon="5.65318">
        <ele>788.299</ele>
        <time>2019-04-26T15:20:49Z</time>
      </trkpt>
      <trkpt lat="44.29827" lon="5.65318">
        <ele>788.295</ele>
        <time>2019-04-26T15:21:00Z</time>
      </trkpt>
      <trkpt lat="44.29827" lon="5.65318">
        <ele>788.307</ele>
        <time>2019-04-26T15:21:10Z</time>
      </trkpt>
      <trkpt lat="44.29827" lon="5.65318">
        <ele>788.336</ele>
        <time>2019-04-26T15:21:21Z</time>
      </trkpt>
      <trkpt lat="44.29827" lon="5.65319">
        <ele>788.362</ele>
        <time>2019-04-26T15:21:32Z</time>
      </trkpt>
      <trkpt lat="44.29827" lon="5.65319">
        <ele>788.392</ele>
        <time>2019-04-26T15:21:42Z</time>
      </trkpt>
      <trkpt lat="44.29827" lon="5.65319">
        <ele>788.44</ele>
        <time>2019-04-26T15:21:52Z</time>
      </trkpt>
      <trkpt lat="44.29827" lon="5.65319">
        <ele>788.493</ele>
        <time>2019-04-26T15:22:03Z</time>
      </trkpt>
      <trkpt lat="44.29827" lon="5.65319">
        <ele>788.538</ele>
        <time>2019-04-26T15:22:14Z</time>
      </trkpt>
      <trkpt lat="44.29827" lon="5.65319">
        <ele>788.592</ele>
        <time>2019-04-26T15:22:25Z</time>
      </trkpt>
      <trkpt lat="44.29827" lon="5.6532">
        <ele>788.624</ele>
        <time>2019-04-26T15:22:36Z</time>
      </trkpt>
      <trkpt lat="44.29827" lon="5.6532">
        <ele>788.598</ele>
        <time>2019-04-26T15:22:46Z</time>
      </trkpt>
      <trkpt lat="44.29827" lon="5.65319">
        <ele>788.722</ele>
        <time>2019-04-26T15:22:57Z</time>
      </trkpt>
      <trkpt lat="44.29827" lon="5.65319">
        <ele>788.813</ele>
        <time>2019-04-26T15:23:07Z</time>
      </trkpt>
      <trkpt lat="44.29827" lon="5.65319">
        <ele>788.864</ele>
        <time>2019-04-26T15:23:18Z</time>
      </trkpt>
      <trkpt lat="44.29827" lon="5.65319">
        <ele>788.984</ele>
        <time>2019-04-26T15:23:28Z</time>
      </trkpt>
      <trkpt lat="44.29827" lon="5.65319">
        <ele>789.034</ele>
        <time>2019-04-26T15:23:38Z</time>
      </trkpt>
      <trkpt lat="44.29827" lon="5.6532">
        <ele>788.987</ele>
        <time>2019-04-26T15:23:49Z</time>
      </trkpt>
      <trkpt lat="44.29831" lon="5.65321">
        <ele>789.055</ele>
        <time>2019-04-26T15:24:00Z</time>
      </trkpt>
      <trkpt lat="44.29844" lon="5.65315">
        <ele>789.443</ele>
        <time>2019-04-26T15:24:11Z</time>
      </trkpt>
      <trkpt lat="44.2985" lon="5.65309">
        <ele>789.76</ele>
        <time>2019-04-26T15:24:21Z</time>
      </trkpt>
      <trkpt lat="44.29864" lon="5.65317">
        <ele>789.677</ele>
        <time>2019-04-26T15:24:32Z</time>
      </trkpt>
      <trkpt lat="44.29875" lon="5.65328">
        <ele>789.519</ele>
        <time>2019-04-26T15:24:43Z</time>
      </trkpt>
      <trkpt lat="44.29882" lon="5.6534">
        <ele>789.267</ele>
        <time>2019-04-26T15:24:54Z</time>
      </trkpt>
      <trkpt lat="44.29885" lon="5.65345">
        <ele>789.735</ele>
        <time>2019-04-26T15:25:04Z</time>
      </trkpt>
      <trkpt lat="44.29886" lon="5.65344">
        <ele>789.919</ele>
        <time>2019-04-26T15:25:15Z</time>
      </trkpt>
      <trkpt lat="44.29887" lon="5.65343">
        <ele>790.53</ele>
        <time>2019-04-26T15:25:26Z</time>
      </trkpt>
      <trkpt lat="44.29888" lon="5.65343">
        <ele>790.719</ele>
        <time>2019-04-26T15:25:37Z</time>
      </trkpt>
      <trkpt lat="44.29888" lon="5.65343">
        <ele>791.11</ele>
        <time>2019-04-26T15:25:48Z</time>
      </trkpt>
      <trkpt lat="44.29889" lon="5.65344">
        <ele>791.732</ele>
        <time>2019-04-26T15:25:58Z</time>
      </trkpt>
      <trkpt lat="44.29889" lon="5.65344">
        <ele>791.965</ele>
        <time>2019-04-26T15:26:09Z</time>
      </trkpt>
      <trkpt lat="44.2989" lon="5.65345">
        <ele>792.305</ele>
        <time>2019-04-26T15:26:19Z</time>
      </trkpt>
      <trkpt lat="44.29892" lon="5.65345">
        <ele>792.705</ele>
        <time>2019-04-26T15:26:30Z</time>
      </trkpt>
      <trkpt lat="44.29893" lon="5.65345">
        <ele>792.89</ele>
        <time>2019-04-26T15:26:40Z</time>
      </trkpt>
      <trkpt lat="44.29891" lon="5.6534">
        <ele>793.683</ele>
        <time>2019-04-26T15:26:51Z</time>
      </trkpt>
      <trkpt lat="44.29891" lon="5.65338">
        <ele>794.256</ele>
        <time>2019-04-26T15:27:02Z</time>
      </trkpt>
      <trkpt lat="44.29891" lon="5.65335">
        <ele>794.477</ele>
        <time>2019-04-26T15:27:13Z</time>
      </trkpt>
      <trkpt lat="44.2989" lon="5.65335">
        <ele>794.531</ele>
        <time>2019-04-26T15:27:23Z</time>
      </trkpt>
      <trkpt lat="44.2989" lon="5.65335">
        <ele>794.679</ele>
        <time>2019-04-26T15:27:34Z</time>
      </trkpt>
      <trkpt lat="44.29896" lon="5.65337">
        <ele>795.664</ele>
        <time>2019-04-26T15:27:45Z</time>
      </trkpt>
      <trkpt lat="44.29896" lon="5.65336">
        <ele>796.421</ele>
        <time>2019-04-26T15:27:56Z</time>
      </trkpt>
      <trkpt lat="44.29896" lon="5.65335">
        <ele>797.432</ele>
        <time>2019-04-26T15:28:07Z</time>
      </trkpt>
      <trkpt lat="44.29896" lon="5.65335">
        <ele>797.884</ele>
        <time>2019-04-26T15:28:18Z</time>
      </trkpt>
      <trkpt lat="44.29896" lon="5.65336">
        <ele>798.266</ele>
        <time>2019-04-26T15:28:29Z</time>
      </trkpt>
      <trkpt lat="44.29895" lon="5.65336">
        <ele>798.549</ele>
        <time>2019-04-26T15:28:40Z</time>
      </trkpt>
      <trkpt lat="44.29896" lon="5.65336">
        <ele>799.154</ele>
        <time>2019-04-26T15:28:50Z</time>
      </trkpt>
      <trkpt lat="44.29895" lon="5.65338">
        <ele>799.275</ele>
        <time>2019-04-26T15:29:00Z</time>
      </trkpt>
      <trkpt lat="44.29888" lon="5.65339">
        <ele>799.373</ele>
        <time>2019-04-26T15:29:11Z</time>
      </trkpt>
      <trkpt lat="44.29886" lon="5.65339">
        <ele>799.357</ele>
        <time>2019-04-26T15:29:22Z</time>
      </trkpt>
      <trkpt lat="44.29886" lon="5.65339">
        <ele>799.381</ele>
        <time>2019-04-26T15:29:32Z</time>
      </trkpt>
      <trkpt lat="44.29884" lon="5.65339">
        <ele>799.337</ele>
        <time>2019-04-26T15:29:42Z</time>
      </trkpt>
      <trkpt lat="44.29884" lon="5.65339">
        <ele>799.322</ele>
        <time>2019-04-26T15:29:53Z</time>
      </trkpt>
      <trkpt lat="44.29884" lon="5.65339">
        <ele>799.35</ele>
        <time>2019-04-26T15:30:03Z</time>
      </trkpt>
      <trkpt lat="44.29885" lon="5.65337">
        <ele>799.534</ele>
        <time>2019-04-26T15:30:14Z</time>
      </trkpt>
      <trkpt lat="44.29885" lon="5.65334">
        <ele>799.769</ele>
        <time>2019-04-26T15:30:25Z</time>
      </trkpt>
      <trkpt lat="44.29885" lon="5.65333">
        <ele>800.197</ele>
        <time>2019-04-26T15:30:36Z</time>
      </trkpt>
      <trkpt lat="44.29885" lon="5.65331">
        <ele>800.901</ele>
        <time>2019-04-26T15:30:46Z</time>
      </trkpt>
      <trkpt lat="44.29886" lon="5.65329">
        <ele>801.64</ele>
        <time>2019-04-26T15:30:56Z</time>
      </trkpt>
      <trkpt lat="44.29885" lon="5.65329">
        <ele>802.002</ele>
        <time>2019-04-26T15:31:07Z</time>
      </trkpt>
      <trkpt lat="44.29885" lon="5.6533">
        <ele>802.161</ele>
        <time>2019-04-26T15:31:18Z</time>
      </trkpt>
      <trkpt lat="44.29885" lon="5.65329">
        <ele>802.518</ele>
        <time>2019-04-26T15:31:28Z</time>
      </trkpt>
      <trkpt lat="44.29885" lon="5.65328">
        <ele>802.714</ele>
        <time>2019-04-26T15:31:39Z</time>
      </trkpt>
      <trkpt lat="44.29886" lon="5.65328">
        <ele>802.831</ele>
        <time>2019-04-26T15:31:49Z</time>
      </trkpt>
      <trkpt lat="44.29885" lon="5.65328">
        <ele>803.107</ele>
        <time>2019-04-26T15:32:00Z</time>
      </trkpt>
      <trkpt lat="44.29885" lon="5.65327">
        <ele>803.308</ele>
        <time>2019-04-26T15:32:10Z</time>
      </trkpt>
      <trkpt lat="44.29885" lon="5.65327">
        <ele>803.65</ele>
        <time>2019-04-26T15:32:20Z</time>
      </trkpt>
      <trkpt lat="44.29884" lon="5.65327">
        <ele>804.033</ele>
        <time>2019-04-26T15:32:31Z</time>
      </trkpt>
      <trkpt lat="44.29884" lon="5.65328">
        <ele>804.192</ele>
        <time>2019-04-26T15:32:42Z</time>
      </trkpt>
      <trkpt lat="44.29885" lon="5.65331">
        <ele>804.008</ele>
        <time>2019-04-26T15:32:53Z</time>
      </trkpt>
      <trkpt lat="44.29885" lon="5.65333">
        <ele>803.954</ele>
        <time>2019-04-26T15:33:03Z</time>
      </trkpt>
      <trkpt lat="44.29885" lon="5.65333">
        <ele>804.057</ele>
        <time>2019-04-26T15:33:14Z</time>
      </trkpt>
      <trkpt lat="44.29885" lon="5.65335">
        <ele>803.972</ele>
        <time>2019-04-26T15:33:24Z</time>
      </trkpt>
      <trkpt lat="44.29885" lon="5.65337">
        <ele>803.595</ele>
        <time>2019-04-26T15:33:35Z</time>
      </trkpt>
      <trkpt lat="44.29885" lon="5.65339">
        <ele>803.099</ele>
        <time>2019-04-26T15:33:45Z</time>
      </trkpt>
      <trkpt lat="44.29884" lon="5.65339">
        <ele>802.873</ele>
        <time>2019-04-26T15:33:55Z</time>
      </trkpt>
      <trkpt lat="44.29884" lon="5.65339">
        <ele>802.781</ele>
        <time>2019-04-26T15:34:05Z</time>
      </trkpt>
      <trkpt lat="44.29884" lon="5.65338">
        <ele>802.725</ele>
        <time>2019-04-26T15:34:16Z</time>
      </trkpt>
      <trkpt lat="44.29884" lon="5.65337">
        <ele>802.678</ele>
        <time>2019-04-26T15:34:27Z</time>
      </trkpt>
      <trkpt lat="44.29884" lon="5.65337">
        <ele>802.639</ele>
        <time>2019-04-26T15:34:37Z</time>
      </trkpt>
      <trkpt lat="44.29884" lon="5.65337">
        <ele>802.611</ele>
        <time>2019-04-26T15:34:48Z</time>
      </trkpt>
      <trkpt lat="44.29885" lon="5.65336">
        <ele>802.59</ele>
        <time>2019-04-26T15:34:59Z</time>
      </trkpt>
      <trkpt lat="44.29885" lon="5.65336">
        <ele>802.576</ele>
        <time>2019-04-26T15:35:09Z</time>
      </trkpt>
      <trkpt lat="44.29885" lon="5.65336">
        <ele>802.559</ele>
        <time>2019-04-26T15:35:20Z</time>
      </trkpt>
      <trkpt lat="44.29885" lon="5.65335">
        <ele>802.537</ele>
        <time>2019-04-26T15:35:30Z</time>
      </trkpt>
      <trkpt lat="44.29886" lon="5.65335">
        <ele>802.516</ele>
        <time>2019-04-26T15:35:41Z</time>
      </trkpt>
      <trkpt lat="44.29886" lon="5.65335">
        <ele>802.528</ele>
        <time>2019-04-26T15:35:52Z</time>
      </trkpt>
      <trkpt lat="44.29886" lon="5.65335">
        <ele>802.568</ele>
        <time>2019-04-26T15:36:03Z</time>
      </trkpt>
      <trkpt lat="44.29886" lon="5.65335">
        <ele>802.623</ele>
        <time>2019-04-26T15:36:14Z</time>
      </trkpt>
      <trkpt lat="44.29886" lon="5.65334">
        <ele>802.674</ele>
        <time>2019-04-26T15:36:25Z</time>
      </trkpt>
      <trkpt lat="44.29886" lon="5.65334">
        <ele>802.75</ele>
        <time>2019-04-26T15:36:36Z</time>
      </trkpt>
      <trkpt lat="44.29887" lon="5.65335">
        <ele>802.811</ele>
        <time>2019-04-26T15:36:46Z</time>
      </trkpt>
      <trkpt lat="44.29888" lon="5.65335">
        <ele>802.861</ele>
        <time>2019-04-26T15:36:57Z</time>
      </trkpt>
      <trkpt lat="44.29889" lon="5.65335">
        <ele>802.88</ele>
        <time>2019-04-26T15:37:08Z</time>
      </trkpt>
      <trkpt lat="44.29888" lon="5.65335">
        <ele>802.871</ele>
        <time>2019-04-26T15:37:18Z</time>
      </trkpt>
      <trkpt lat="44.29888" lon="5.65336">
        <ele>802.821</ele>
        <time>2019-04-26T15:37:29Z</time>
      </trkpt>
      <trkpt lat="44.29888" lon="5.65336">
        <ele>802.726</ele>
        <time>2019-04-26T15:37:40Z</time>
      </trkpt>
      <trkpt lat="44.29888" lon="5.65336">
        <ele>802.6</ele>
        <time>2019-04-26T15:37:51Z</time>
      </trkpt>
      <trkpt lat="44.29883" lon="5.65337">
        <ele>801.432</ele>
        <time>2019-04-26T15:38:02Z</time>
      </trkpt>
      <trkpt lat="44.2988" lon="5.65338">
        <ele>800.446</ele>
        <time>2019-04-26T15:38:13Z</time>
      </trkpt>
      <trkpt lat="44.29885" lon="5.65335">
        <ele>800.032</ele>
        <time>2019-04-26T15:38:24Z</time>
      </trkpt>
      <trkpt lat="44.29883" lon="5.65327">
        <ele>799.263</ele>
        <time>2019-04-26T15:38:35Z</time>
      </trkpt>
      <trkpt lat="44.29883" lon="5.65322">
        <ele>798.746</ele>
        <time>2019-04-26T15:38:46Z</time>
      </trkpt>
      <trkpt lat="44.29883" lon="5.65323">
        <ele>798.746</ele>
        <time>2019-04-26T15:38:57Z</time>
      </trkpt>
      <trkpt lat="44.29882" lon="5.65323">
        <ele>798.819</ele>
        <time>2019-04-26T15:39:08Z</time>
      </trkpt>
      <trkpt lat="44.29883" lon="5.65323">
        <ele>798.719</ele>
        <time>2019-04-26T15:39:18Z</time>
      </trkpt>
      <trkpt lat="44.29884" lon="5.65323">
        <ele>798.592</ele>
        <time>2019-04-26T15:39:29Z</time>
      </trkpt>
      <trkpt lat="44.29884" lon="5.65323">
        <ele>798.207</ele>
        <time>2019-04-26T15:39:40Z</time>
      </trkpt>
      <trkpt lat="44.29882" lon="5.65322">
        <ele>797.257</ele>
        <time>2019-04-26T15:39:50Z</time>
      </trkpt>
      <trkpt lat="44.29881" lon="5.65322">
        <ele>796.456</ele>
        <time>2019-04-26T15:40:00Z</time>
      </trkpt>
      <trkpt lat="44.29881" lon="5.65321">
        <ele>795.928</ele>
        <time>2019-04-26T15:40:11Z</time>
      </trkpt>
      <trkpt lat="44.29884" lon="5.65322">
        <ele>795.423</ele>
        <time>2019-04-26T15:40:22Z</time>
      </trkpt>
      <trkpt lat="44.29887" lon="5.65321">
        <ele>795.062</ele>
        <time>2019-04-26T15:40:32Z</time>
      </trkpt>
      <trkpt lat="44.29889" lon="5.65319">
        <ele>794.518</ele>
        <time>2019-04-26T15:40:43Z</time>
      </trkpt>
      <trkpt lat="44.29887" lon="5.65316">
        <ele>793.797</ele>
        <time>2019-04-26T15:40:53Z</time>
      </trkpt>
      <trkpt lat="44.29884" lon="5.65319">
        <ele>793.467</ele>
        <time>2019-04-26T15:41:04Z</time>
      </trkpt>
      <trkpt lat="44.29886" lon="5.65319">
        <ele>793.386</ele>
        <time>2019-04-26T15:41:14Z</time>
      </trkpt>
      <trkpt lat="44.29887" lon="5.65319">
        <ele>793.491</ele>
        <time>2019-04-26T15:41:25Z</time>
      </trkpt>
      <trkpt lat="44.29888" lon="5.65321">
        <ele>793.533</ele>
        <time>2019-04-26T15:41:35Z</time>
      </trkpt>
      <trkpt lat="44.29889" lon="5.65321">
        <ele>793.527</ele>
        <time>2019-04-26T15:41:46Z</time>
      </trkpt>
      <trkpt lat="44.29889" lon="5.65322">
        <ele>793.536</ele>
        <time>2019-04-26T15:41:57Z</time>
      </trkpt>
      <trkpt lat="44.29889" lon="5.65322">
        <ele>793.563</ele>
        <time>2019-04-26T15:42:07Z</time>
      </trkpt>
      <trkpt lat="44.29889" lon="5.65323">
        <ele>793.717</ele>
        <time>2019-04-26T15:42:17Z</time>
      </trkpt>
      <trkpt lat="44.29888" lon="5.65325">
        <ele>794.098</ele>
        <time>2019-04-26T15:42:28Z</time>
      </trkpt>
      <trkpt lat="44.29888" lon="5.65326">
        <ele>794.183</ele>
        <time>2019-04-26T15:42:38Z</time>
      </trkpt>
      <trkpt lat="44.29887" lon="5.65326">
        <ele>794.219</ele>
        <time>2019-04-26T15:42:49Z</time>
      </trkpt>
      <trkpt lat="44.29887" lon="5.65326">
        <ele>794.222</ele>
        <time>2019-04-26T15:42:59Z</time>
      </trkpt>
      <trkpt lat="44.29887" lon="5.65326">
        <ele>794.227</ele>
        <time>2019-04-26T15:43:09Z</time>
      </trkpt>
      <trkpt lat="44.29882" lon="5.65331">
        <ele>794.156</ele>
        <time>2019-04-26T15:43:20Z</time>
      </trkpt>
      <trkpt lat="44.29879" lon="5.65335">
        <ele>793.53</ele>
        <time>2019-04-26T15:43:31Z</time>
      </trkpt>
      <trkpt lat="44.29878" lon="5.65338">
        <ele>793.039</ele>
        <time>2019-04-26T15:43:42Z</time>
      </trkpt>
      <trkpt lat="44.29877" lon="5.65337">
        <ele>792.828</ele>
        <time>2019-04-26T15:43:53Z</time>
      </trkpt>
      <trkpt lat="44.29877" lon="5.65337">
        <ele>792.861</ele>
        <time>2019-04-26T15:44:04Z</time>
      </trkpt>
      <trkpt lat="44.29881" lon="5.65332">
        <ele>793.775</ele>
        <time>2019-04-26T15:44:14Z</time>
      </trkpt>
      <trkpt lat="44.29879" lon="5.65334">
        <ele>795.635</ele>
        <time>2019-04-26T15:44:25Z</time>
      </trkpt>
      <trkpt lat="44.29879" lon="5.65339">
        <ele>797.936</ele>
        <time>2019-04-26T15:44:36Z</time>
      </trkpt>
      <trkpt lat="44.29879" lon="5.65337">
        <ele>799.503</ele>
        <time>2019-04-26T15:44:47Z</time>
      </trkpt>
      <trkpt lat="44.29879" lon="5.65331">
        <ele>800.592</ele>
        <time>2019-04-26T15:44:57Z</time>
      </trkpt>
      <trkpt lat="44.29879" lon="5.65333">
        <ele>800.615</ele>
        <time>2019-04-26T15:45:07Z</time>
      </trkpt>
      <trkpt lat="44.29881" lon="5.65334">
        <ele>800.555</ele>
        <time>2019-04-26T15:45:18Z</time>
      </trkpt>
      <trkpt lat="44.29881" lon="5.65334">
        <ele>800.519</ele>
        <time>2019-04-26T15:45:28Z</time>
      </trkpt>
      <trkpt lat="44.2988" lon="5.65332">
        <ele>800.295</ele>
        <time>2019-04-26T15:45:39Z</time>
      </trkpt>
      <trkpt lat="44.29881" lon="5.6533">
        <ele>800.158</ele>
        <time>2019-04-26T15:45:50Z</time>
      </trkpt>
      <trkpt lat="44.29881" lon="5.65329">
        <ele>799.887</ele>
        <time>2019-04-26T15:46:01Z</time>
      </trkpt>
    </trkseg>
  </trk>
</gpx>